<?xml version="1.0" encoding="UTF-8" standalone="no" ?>
<gpx xmlns="http://www.topografix.com/GPX/1/1" xmlns:xsi="http://www.w3.org/2001/XMLSchema-instance" xsi:schemaLocation="http://www.topografix.com/GPX/1/1 http://www.topografix.com/GPX/1/1/gpx.xsd" version="1.1" creator="VisuGPX - https://www.visugpx.com">
  <metadata>
    <name>Col Granon Col Buffere Nevache</name>
    <desc><![CDATA[Col Granon Col Buffere Nevache]]></desc>
  </metadata>
  <wpt lat="44.98195" lon="6.5879">
    <ele>2489.4409179688</ele>
    <name><![CDATA[002]]></name>
  </wpt>
  <wpt lat="44.99021" lon="6.55961">
    <ele>2414</ele>
    <name><![CDATA[col Buffere]]></name>
  </wpt>
  <wpt lat="44.96227" lon="6.61127">
    <ele>2413</ele>
    <name><![CDATA[col Granon]]></name>
  </wpt>
  <wpt lat="45.01891" lon="6.60616">
    <ele>1613</ele>
    <name><![CDATA[Nevache]]></name>
  </wpt>
  <wpt lat="45.0125" lon="6.57076">
    <ele>2078</ele>
    <name><![CDATA[Rifugio]]></name>
  </wpt>
  <trk>
    <name><![CDATA[ACTIVE LOG]]></name>
    <trkseg>
      <trkpt lat="44.95636" lon="6.6784">
        <ele>1390.6843261719</ele>
        <time>2007-08-18T07:09:00Z</time>
      </trkpt>
      <trkpt lat="44.95636" lon="6.67838">
        <ele>1394.0490722656</ele>
        <time>2007-08-18T07:09:04Z</time>
      </trkpt>
      <trkpt lat="44.95636" lon="6.67838">
        <ele>1397.4135742188</ele>
        <time>2007-08-18T07:09:09Z</time>
      </trkpt>
      <trkpt lat="44.95636" lon="6.67838">
        <ele>1397.4135742188</ele>
        <time>2007-08-18T07:09:10Z</time>
      </trkpt>
      <trkpt lat="44.95638" lon="6.67838">
        <ele>1400.7780761719</ele>
        <time>2007-08-18T07:09:15Z</time>
      </trkpt>
      <trkpt lat="44.95638" lon="6.67836">
        <ele>1404.1430664062</ele>
        <time>2007-08-18T07:09:24Z</time>
      </trkpt>
      <trkpt lat="44.95636" lon="6.67838">
        <ele>1407.5075683594</ele>
        <time>2007-08-18T07:09:35Z</time>
      </trkpt>
      <trkpt lat="44.95636" lon="6.67836">
        <ele>1408.46875</ele>
        <time>2007-08-18T07:09:41Z</time>
      </trkpt>
      <trkpt lat="44.95636" lon="6.67831">
        <ele>1435.3854980469</ele>
        <time>2007-08-18T07:11:49Z</time>
      </trkpt>
      <trkpt lat="44.95636" lon="6.67831">
        <ele>1435.3854980469</ele>
        <time>2007-08-18T07:11:50Z</time>
      </trkpt>
      <trkpt lat="44.95636" lon="6.67834">
        <ele>1432.0209960938</ele>
        <time>2007-08-18T07:11:55Z</time>
      </trkpt>
      <trkpt lat="44.95636" lon="6.67834">
        <ele>1429.1369628906</ele>
        <time>2007-08-18T07:12:01Z</time>
      </trkpt>
      <trkpt lat="44.95636" lon="6.67834">
        <ele>1425.7724609375</ele>
        <time>2007-08-18T07:12:07Z</time>
      </trkpt>
      <trkpt lat="44.95636" lon="6.67834">
        <ele>1425.7724609375</ele>
        <time>2007-08-18T07:12:08Z</time>
      </trkpt>
      <trkpt lat="44.95633" lon="6.67834">
        <ele>1420.9660644531</ele>
        <time>2007-08-18T07:12:27Z</time>
      </trkpt>
      <trkpt lat="44.95633" lon="6.67834">
        <ele>1420.9660644531</ele>
        <time>2007-08-18T07:12:28Z</time>
      </trkpt>
      <trkpt lat="44.95633" lon="6.67836">
        <ele>1418.0817871094</ele>
        <time>2007-08-18T07:13:02Z</time>
      </trkpt>
      <trkpt lat="44.95633" lon="6.67838">
        <ele>1395.9716796875</ele>
        <time>2007-08-18T07:13:27Z</time>
      </trkpt>
      <trkpt lat="44.95633" lon="6.67838">
        <ele>1396.9328613281</ele>
        <time>2007-08-18T07:13:28Z</time>
      </trkpt>
      <trkpt lat="44.95633" lon="6.67836">
        <ele>1406.5461425781</ele>
        <time>2007-08-18T07:14:22Z</time>
      </trkpt>
      <trkpt lat="44.95633" lon="6.67836">
        <ele>1406.0654296875</ele>
        <time>2007-08-18T07:14:23Z</time>
      </trkpt>
      <trkpt lat="44.95636" lon="6.6784">
        <ele>1407.0268554688</ele>
        <time>2007-08-18T07:15:12Z</time>
      </trkpt>
      <trkpt lat="44.95636" lon="6.67825">
        <ele>1406.5461425781</ele>
        <time>2007-08-18T07:15:17Z</time>
      </trkpt>
      <trkpt lat="44.95618" lon="6.67816">
        <ele>1407.0268554688</ele>
        <time>2007-08-18T07:15:22Z</time>
      </trkpt>
      <trkpt lat="44.95578" lon="6.67819">
        <ele>1406.0654296875</ele>
        <time>2007-08-18T07:15:34Z</time>
      </trkpt>
      <trkpt lat="44.95569" lon="6.67808">
        <ele>1407.0268554688</ele>
        <time>2007-08-18T07:15:38Z</time>
      </trkpt>
      <trkpt lat="44.95558" lon="6.6778">
        <ele>1406.5461425781</ele>
        <time>2007-08-18T07:15:46Z</time>
      </trkpt>
      <trkpt lat="44.95556" lon="6.67776">
        <ele>1406.5461425781</ele>
        <time>2007-08-18T07:15:57Z</time>
      </trkpt>
      <trkpt lat="44.95552" lon="6.67773">
        <ele>1407.5075683594</ele>
        <time>2007-08-18T07:17:21Z</time>
      </trkpt>
      <trkpt lat="44.9556" lon="6.67763">
        <ele>1407.98828125</ele>
        <time>2007-08-18T07:17:31Z</time>
      </trkpt>
      <trkpt lat="44.95563" lon="6.67763">
        <ele>1408.46875</ele>
        <time>2007-08-18T07:17:53Z</time>
      </trkpt>
      <trkpt lat="44.95582" lon="6.67765">
        <ele>1410.3913574219</ele>
        <time>2007-08-18T07:18:00Z</time>
      </trkpt>
      <trkpt lat="44.95584" lon="6.67769">
        <ele>1410.3913574219</ele>
        <time>2007-08-18T07:18:03Z</time>
      </trkpt>
      <trkpt lat="44.95603" lon="6.67769">
        <ele>1410.8720703125</ele>
        <time>2007-08-18T07:18:09Z</time>
      </trkpt>
      <trkpt lat="44.95648" lon="6.67754">
        <ele>1413.275390625</ele>
        <time>2007-08-18T07:18:25Z</time>
      </trkpt>
      <trkpt lat="44.95678" lon="6.67739">
        <ele>1415.6787109375</ele>
        <time>2007-08-18T07:18:39Z</time>
      </trkpt>
      <trkpt lat="44.95717" lon="6.67724">
        <ele>1417.6010742188</ele>
        <time>2007-08-18T07:18:55Z</time>
      </trkpt>
      <trkpt lat="44.95758" lon="6.67707">
        <ele>1418.5625</ele>
        <time>2007-08-18T07:19:12Z</time>
      </trkpt>
      <trkpt lat="44.95805" lon="6.67677">
        <ele>1420.9660644531</ele>
        <time>2007-08-18T07:19:31Z</time>
      </trkpt>
      <trkpt lat="44.95835" lon="6.67638">
        <ele>1423.3693847656</ele>
        <time>2007-08-18T07:19:48Z</time>
      </trkpt>
      <trkpt lat="44.95842" lon="6.67623">
        <ele>1425.2917480469</ele>
        <time>2007-08-18T07:20:00Z</time>
      </trkpt>
      <trkpt lat="44.95842" lon="6.67623">
        <ele>1425.7724609375</ele>
        <time>2007-08-18T07:20:21Z</time>
      </trkpt>
      <trkpt lat="44.95842" lon="6.67621">
        <ele>1425.2917480469</ele>
        <time>2007-08-18T07:20:25Z</time>
      </trkpt>
      <trkpt lat="44.95869" lon="6.67589">
        <ele>1423.8498535156</ele>
        <time>2007-08-18T07:20:40Z</time>
      </trkpt>
      <trkpt lat="44.95908" lon="6.67559">
        <ele>1424.8112792969</ele>
        <time>2007-08-18T07:20:55Z</time>
      </trkpt>
      <trkpt lat="44.95962" lon="6.67505">
        <ele>1424.3305664062</ele>
        <time>2007-08-18T07:21:14Z</time>
      </trkpt>
      <trkpt lat="44.95992" lon="6.67454">
        <ele>1426.2531738281</ele>
        <time>2007-08-18T07:21:30Z</time>
      </trkpt>
      <trkpt lat="44.9599" lon="6.67426">
        <ele>1428.17578125</ele>
        <time>2007-08-18T07:21:38Z</time>
      </trkpt>
      <trkpt lat="44.95994" lon="6.67409">
        <ele>1429.1369628906</ele>
        <time>2007-08-18T07:21:43Z</time>
      </trkpt>
      <trkpt lat="44.96022" lon="6.67342">
        <ele>1431.0598144531</ele>
        <time>2007-08-18T07:22:04Z</time>
      </trkpt>
      <trkpt lat="44.9605" lon="6.67269">
        <ele>1433.462890625</ele>
        <time>2007-08-18T07:22:26Z</time>
      </trkpt>
      <trkpt lat="44.9608" lon="6.67207">
        <ele>1434.9050292969</ele>
        <time>2007-08-18T07:22:46Z</time>
      </trkpt>
      <trkpt lat="44.96103" lon="6.67136">
        <ele>1436.8276367188</ele>
        <time>2007-08-18T07:23:08Z</time>
      </trkpt>
      <trkpt lat="44.96116" lon="6.6707">
        <ele>1438.7504882812</ele>
        <time>2007-08-18T07:23:28Z</time>
      </trkpt>
      <trkpt lat="44.96123" lon="6.67007">
        <ele>1442.1149902344</ele>
        <time>2007-08-18T07:23:48Z</time>
      </trkpt>
      <trkpt lat="44.96138" lon="6.6698">
        <ele>1445.4794921875</ele>
        <time>2007-08-18T07:24:00Z</time>
      </trkpt>
      <trkpt lat="44.96155" lon="6.66954">
        <ele>1448.36328125</ele>
        <time>2007-08-18T07:24:13Z</time>
      </trkpt>
      <trkpt lat="44.96144" lon="6.66889">
        <ele>1451.2473144531</ele>
        <time>2007-08-18T07:24:44Z</time>
      </trkpt>
      <trkpt lat="44.96093" lon="6.66907">
        <ele>1450.7666015625</ele>
        <time>2007-08-18T07:24:47Z</time>
      </trkpt>
      <trkpt lat="44.9606" lon="6.66902">
        <ele>1452.689453125</ele>
        <time>2007-08-18T07:24:59Z</time>
      </trkpt>
      <trkpt lat="44.96024" lon="6.66913">
        <ele>1455.0927734375</ele>
        <time>2007-08-18T07:25:16Z</time>
      </trkpt>
      <trkpt lat="44.96011" lon="6.66915">
        <ele>1455.5734863281</ele>
        <time>2007-08-18T07:25:22Z</time>
      </trkpt>
      <trkpt lat="44.96002" lon="6.66892">
        <ele>1457.0153808594</ele>
        <time>2007-08-18T07:25:31Z</time>
      </trkpt>
      <trkpt lat="44.96026" lon="6.6684">
        <ele>1460.8605957031</ele>
        <time>2007-08-18T07:25:55Z</time>
      </trkpt>
      <trkpt lat="44.96037" lon="6.66829">
        <ele>1462.783203125</ele>
        <time>2007-08-18T07:26:02Z</time>
      </trkpt>
      <trkpt lat="44.96082" lon="6.6687">
        <ele>1466.1477050781</ele>
        <time>2007-08-18T07:26:15Z</time>
      </trkpt>
      <trkpt lat="44.96093" lon="6.66866">
        <ele>1467.1091308594</ele>
        <time>2007-08-18T07:26:21Z</time>
      </trkpt>
      <trkpt lat="44.96133" lon="6.66836">
        <ele>1470.9545898438</ele>
        <time>2007-08-18T07:26:43Z</time>
      </trkpt>
      <trkpt lat="44.96163" lon="6.66836">
        <ele>1473.8383789062</ele>
        <time>2007-08-18T07:27:05Z</time>
      </trkpt>
      <trkpt lat="44.96176" lon="6.66827">
        <ele>1477.203125</ele>
        <time>2007-08-18T07:27:18Z</time>
      </trkpt>
      <trkpt lat="44.96208" lon="6.66801">
        <ele>1480.5676269531</ele>
        <time>2007-08-18T07:27:41Z</time>
      </trkpt>
      <trkpt lat="44.96249" lon="6.66767">
        <ele>1483.9321289062</ele>
        <time>2007-08-18T07:28:05Z</time>
      </trkpt>
      <trkpt lat="44.96309" lon="6.66735">
        <ele>1486.8161621094</ele>
        <time>2007-08-18T07:28:34Z</time>
      </trkpt>
      <trkpt lat="44.96318" lon="6.66731">
        <ele>1487.7775878906</ele>
        <time>2007-08-18T07:28:38Z</time>
      </trkpt>
      <trkpt lat="44.96333" lon="6.66724">
        <ele>1490.6613769531</ele>
        <time>2007-08-18T07:28:48Z</time>
      </trkpt>
      <trkpt lat="44.96354" lon="6.66716">
        <ele>1493.5454101562</ele>
        <time>2007-08-18T07:29:02Z</time>
      </trkpt>
      <trkpt lat="44.9638" lon="6.66692">
        <ele>1496.9099121094</ele>
        <time>2007-08-18T07:29:19Z</time>
      </trkpt>
      <trkpt lat="44.96399" lon="6.66675">
        <ele>1500.2749023438</ele>
        <time>2007-08-18T07:29:33Z</time>
      </trkpt>
      <trkpt lat="44.96419" lon="6.66649">
        <ele>1503.6394042969</ele>
        <time>2007-08-18T07:29:48Z</time>
      </trkpt>
      <trkpt lat="44.96444" lon="6.6663">
        <ele>1507.00390625</ele>
        <time>2007-08-18T07:30:08Z</time>
      </trkpt>
      <trkpt lat="44.96459" lon="6.66619">
        <ele>1509.8876953125</ele>
        <time>2007-08-18T07:30:21Z</time>
      </trkpt>
      <trkpt lat="44.96485" lon="6.66595">
        <ele>1513.2524414062</ele>
        <time>2007-08-18T07:30:42Z</time>
      </trkpt>
      <trkpt lat="44.9652" lon="6.6657">
        <ele>1516.6171875</ele>
        <time>2007-08-18T07:31:07Z</time>
      </trkpt>
      <trkpt lat="44.96537" lon="6.66559">
        <ele>1519.9816894531</ele>
        <time>2007-08-18T07:31:20Z</time>
      </trkpt>
      <trkpt lat="44.96547" lon="6.6652">
        <ele>1522.8657226562</ele>
        <time>2007-08-18T07:31:45Z</time>
      </trkpt>
      <trkpt lat="44.96565" lon="6.6649">
        <ele>1526.2302246094</ele>
        <time>2007-08-18T07:32:03Z</time>
      </trkpt>
      <trkpt lat="44.9659" lon="6.66469">
        <ele>1530.0754394531</ele>
        <time>2007-08-18T07:32:22Z</time>
      </trkpt>
      <trkpt lat="44.96608" lon="6.6646">
        <ele>1532.9594726562</ele>
        <time>2007-08-18T07:32:35Z</time>
      </trkpt>
      <trkpt lat="44.96623" lon="6.66447">
        <ele>1536.32421875</ele>
        <time>2007-08-18T07:32:48Z</time>
      </trkpt>
      <trkpt lat="44.96642" lon="6.66424">
        <ele>1538.7275390625</ele>
        <time>2007-08-18T07:33:07Z</time>
      </trkpt>
      <trkpt lat="44.96657" lon="6.66417">
        <ele>1542.0920410156</ele>
        <time>2007-08-18T07:33:17Z</time>
      </trkpt>
      <trkpt lat="44.9668" lon="6.66394">
        <ele>1544.9758300781</ele>
        <time>2007-08-18T07:33:38Z</time>
      </trkpt>
      <trkpt lat="44.96687" lon="6.66377">
        <ele>1548.3405761719</ele>
        <time>2007-08-18T07:33:52Z</time>
      </trkpt>
      <trkpt lat="44.96706" lon="6.66342">
        <ele>1551.7053222656</ele>
        <time>2007-08-18T07:34:11Z</time>
      </trkpt>
      <trkpt lat="44.96726" lon="6.66317">
        <ele>1555.0698242188</ele>
        <time>2007-08-18T07:34:26Z</time>
      </trkpt>
      <trkpt lat="44.96741" lon="6.66301">
        <ele>1557.9538574219</ele>
        <time>2007-08-18T07:34:39Z</time>
      </trkpt>
      <trkpt lat="44.96751" lon="6.66284">
        <ele>1561.318359375</ele>
        <time>2007-08-18T07:34:56Z</time>
      </trkpt>
      <trkpt lat="44.96766" lon="6.66265">
        <ele>1564.6831054688</ele>
        <time>2007-08-18T07:35:12Z</time>
      </trkpt>
      <trkpt lat="44.96773" lon="6.66246">
        <ele>1567.5668945312</ele>
        <time>2007-08-18T07:35:27Z</time>
      </trkpt>
      <trkpt lat="44.96788" lon="6.66216">
        <ele>1570.931640625</ele>
        <time>2007-08-18T07:35:47Z</time>
      </trkpt>
      <trkpt lat="44.96803" lon="6.66196">
        <ele>1573.8154296875</ele>
        <time>2007-08-18T07:36:00Z</time>
      </trkpt>
      <trkpt lat="44.96807" lon="6.66194">
        <ele>1575.2573242188</ele>
        <time>2007-08-18T07:36:02Z</time>
      </trkpt>
      <trkpt lat="44.96811" lon="6.66196">
        <ele>1575.2573242188</ele>
        <time>2007-08-18T07:36:06Z</time>
      </trkpt>
      <trkpt lat="44.96816" lon="6.66196">
        <ele>1575.2573242188</ele>
        <time>2007-08-18T07:36:10Z</time>
      </trkpt>
      <trkpt lat="44.96818" lon="6.66192">
        <ele>1576.6994628906</ele>
        <time>2007-08-18T07:36:17Z</time>
      </trkpt>
      <trkpt lat="44.9682" lon="6.66192">
        <ele>1577.1801757812</ele>
        <time>2007-08-18T07:36:20Z</time>
      </trkpt>
      <trkpt lat="44.96826" lon="6.66177">
        <ele>1580.544921875</ele>
        <time>2007-08-18T07:36:36Z</time>
      </trkpt>
      <trkpt lat="44.96826" lon="6.66177">
        <ele>1580.544921875</ele>
        <time>2007-08-18T07:36:37Z</time>
      </trkpt>
      <trkpt lat="44.96822" lon="6.66166">
        <ele>1582.4675292969</ele>
        <time>2007-08-18T07:36:44Z</time>
      </trkpt>
      <trkpt lat="44.96818" lon="6.66171">
        <ele>1582.4675292969</ele>
        <time>2007-08-18T07:36:48Z</time>
      </trkpt>
      <trkpt lat="44.96809" lon="6.66168">
        <ele>1583.9094238281</ele>
        <time>2007-08-18T07:36:55Z</time>
      </trkpt>
      <trkpt lat="44.96807" lon="6.66171">
        <ele>1582.4675292969</ele>
        <time>2007-08-18T07:37:18Z</time>
      </trkpt>
      <trkpt lat="44.96809" lon="6.66171">
        <ele>1583.4287109375</ele>
        <time>2007-08-18T07:37:27Z</time>
      </trkpt>
      <trkpt lat="44.96811" lon="6.66162">
        <ele>1585.3513183594</ele>
        <time>2007-08-18T07:40:10Z</time>
      </trkpt>
      <trkpt lat="44.96809" lon="6.66168">
        <ele>1587.2739257812</ele>
        <time>2007-08-18T07:40:59Z</time>
      </trkpt>
      <trkpt lat="44.96786" lon="6.66183">
        <ele>1589.6772460938</ele>
        <time>2007-08-18T07:41:15Z</time>
      </trkpt>
      <trkpt lat="44.96764" lon="6.66194">
        <ele>1592.5612792969</ele>
        <time>2007-08-18T07:41:31Z</time>
      </trkpt>
      <trkpt lat="44.96756" lon="6.66186">
        <ele>1594.9643554688</ele>
        <time>2007-08-18T07:41:44Z</time>
      </trkpt>
      <trkpt lat="44.96753" lon="6.66186">
        <ele>1595.4450683594</ele>
        <time>2007-08-18T07:41:45Z</time>
      </trkpt>
      <trkpt lat="44.96749" lon="6.66188">
        <ele>1595.92578125</ele>
        <time>2007-08-18T07:41:49Z</time>
      </trkpt>
      <trkpt lat="44.96734" lon="6.66194">
        <ele>1598.8098144531</ele>
        <time>2007-08-18T07:42:02Z</time>
      </trkpt>
      <trkpt lat="44.96734" lon="6.66196">
        <ele>1599.2905273438</ele>
        <time>2007-08-18T07:42:03Z</time>
      </trkpt>
      <trkpt lat="44.96715" lon="6.66214">
        <ele>1600.251953125</ele>
        <time>2007-08-18T07:42:20Z</time>
      </trkpt>
      <trkpt lat="44.967" lon="6.66231">
        <ele>1604.0971679688</ele>
        <time>2007-08-18T07:42:32Z</time>
      </trkpt>
      <trkpt lat="44.96689" lon="6.66233">
        <ele>1604.5776367188</ele>
        <time>2007-08-18T07:42:39Z</time>
      </trkpt>
      <trkpt lat="44.96685" lon="6.66224">
        <ele>1605.0583496094</ele>
        <time>2007-08-18T07:42:44Z</time>
      </trkpt>
      <trkpt lat="44.96691" lon="6.66216">
        <ele>1606.5002441406</ele>
        <time>2007-08-18T07:42:49Z</time>
      </trkpt>
      <trkpt lat="44.96717" lon="6.66198">
        <ele>1609.3842773438</ele>
        <time>2007-08-18T07:43:07Z</time>
      </trkpt>
      <trkpt lat="44.96736" lon="6.66168">
        <ele>1612.2683105469</ele>
        <time>2007-08-18T07:43:26Z</time>
      </trkpt>
      <trkpt lat="44.96756" lon="6.6616">
        <ele>1615.6330566406</ele>
        <time>2007-08-18T07:43:40Z</time>
      </trkpt>
      <trkpt lat="44.96764" lon="6.6613">
        <ele>1617.0749511719</ele>
        <time>2007-08-18T07:43:55Z</time>
      </trkpt>
      <trkpt lat="44.96768" lon="6.66106">
        <ele>1620.439453125</ele>
        <time>2007-08-18T07:44:08Z</time>
      </trkpt>
      <trkpt lat="44.96775" lon="6.66074">
        <ele>1623.8039550781</ele>
        <time>2007-08-18T07:44:25Z</time>
      </trkpt>
      <trkpt lat="44.96779" lon="6.66053">
        <ele>1625.2458496094</ele>
        <time>2007-08-18T07:44:37Z</time>
      </trkpt>
      <trkpt lat="44.96745" lon="6.66063">
        <ele>1628.1301269531</ele>
        <time>2007-08-18T07:44:56Z</time>
      </trkpt>
      <trkpt lat="44.96723" lon="6.6607">
        <ele>1631.0141601562</ele>
        <time>2007-08-18T07:45:09Z</time>
      </trkpt>
      <trkpt lat="44.96706" lon="6.66083">
        <ele>1632.9365234375</ele>
        <time>2007-08-18T07:45:19Z</time>
      </trkpt>
      <trkpt lat="44.96698" lon="6.66123">
        <ele>1636.3012695312</ele>
        <time>2007-08-18T07:45:36Z</time>
      </trkpt>
      <trkpt lat="44.96698" lon="6.66126">
        <ele>1635.8205566406</ele>
        <time>2007-08-18T07:45:37Z</time>
      </trkpt>
      <trkpt lat="44.96698" lon="6.66132">
        <ele>1636.3012695312</ele>
        <time>2007-08-18T07:45:39Z</time>
      </trkpt>
      <trkpt lat="44.96687" lon="6.66145">
        <ele>1637.7431640625</ele>
        <time>2007-08-18T07:45:47Z</time>
      </trkpt>
      <trkpt lat="44.9668" lon="6.66151">
        <ele>1639.1850585938</ele>
        <time>2007-08-18T07:45:51Z</time>
      </trkpt>
      <trkpt lat="44.96676" lon="6.66153">
        <ele>1638.7045898438</ele>
        <time>2007-08-18T07:45:54Z</time>
      </trkpt>
      <trkpt lat="44.96665" lon="6.66145">
        <ele>1640.146484375</ele>
        <time>2007-08-18T07:46:01Z</time>
      </trkpt>
      <trkpt lat="44.96663" lon="6.66136">
        <ele>1640.626953125</ele>
        <time>2007-08-18T07:46:05Z</time>
      </trkpt>
      <trkpt lat="44.96678" lon="6.66072">
        <ele>1643.5109863281</ele>
        <time>2007-08-18T07:46:31Z</time>
      </trkpt>
      <trkpt lat="44.967" lon="6.66038">
        <ele>1646.3952636719</ele>
        <time>2007-08-18T07:46:49Z</time>
      </trkpt>
      <trkpt lat="44.96726" lon="6.66014">
        <ele>1649.759765625</ele>
        <time>2007-08-18T07:47:08Z</time>
      </trkpt>
      <trkpt lat="44.96747" lon="6.66001">
        <ele>1652.1628417969</ele>
        <time>2007-08-18T07:47:23Z</time>
      </trkpt>
      <trkpt lat="44.96771" lon="6.65973">
        <ele>1654.5661621094</ele>
        <time>2007-08-18T07:47:44Z</time>
      </trkpt>
      <trkpt lat="44.96786" lon="6.65939">
        <ele>1657.4501953125</ele>
        <time>2007-08-18T07:48:01Z</time>
      </trkpt>
      <trkpt lat="44.96796" lon="6.65898">
        <ele>1659.8532714844</ele>
        <time>2007-08-18T07:48:20Z</time>
      </trkpt>
      <trkpt lat="44.96794" lon="6.65864">
        <ele>1663.6987304688</ele>
        <time>2007-08-18T07:48:38Z</time>
      </trkpt>
      <trkpt lat="44.96783" lon="6.65825">
        <ele>1667.0634765625</ele>
        <time>2007-08-18T07:48:55Z</time>
      </trkpt>
      <trkpt lat="44.96777" lon="6.65808">
        <ele>1668.5053710938</ele>
        <time>2007-08-18T07:49:03Z</time>
      </trkpt>
      <trkpt lat="44.96768" lon="6.65804">
        <ele>1669.947265625</ele>
        <time>2007-08-18T07:49:09Z</time>
      </trkpt>
      <trkpt lat="44.96751" lon="6.65814">
        <ele>1672.3505859375</ele>
        <time>2007-08-18T07:49:25Z</time>
      </trkpt>
      <trkpt lat="44.96751" lon="6.65851">
        <ele>1675.7150878906</ele>
        <time>2007-08-18T07:49:41Z</time>
      </trkpt>
      <trkpt lat="44.96736" lon="6.65883">
        <ele>1679.0798339844</ele>
        <time>2007-08-18T07:50:00Z</time>
      </trkpt>
      <trkpt lat="44.96698" lon="6.6592">
        <ele>1681.9638671875</ele>
        <time>2007-08-18T07:50:29Z</time>
      </trkpt>
      <trkpt lat="44.96678" lon="6.65939">
        <ele>1685.3283691406</ele>
        <time>2007-08-18T07:50:42Z</time>
      </trkpt>
      <trkpt lat="44.96665" lon="6.65943">
        <ele>1687.7316894531</ele>
        <time>2007-08-18T07:50:50Z</time>
      </trkpt>
      <trkpt lat="44.96644" lon="6.6592">
        <ele>1689.1735839844</ele>
        <time>2007-08-18T07:51:06Z</time>
      </trkpt>
      <trkpt lat="44.96629" lon="6.65922">
        <ele>1692.0578613281</ele>
        <time>2007-08-18T07:51:16Z</time>
      </trkpt>
      <trkpt lat="44.9664" lon="6.65952">
        <ele>1694.4609375</ele>
        <time>2007-08-18T07:51:31Z</time>
      </trkpt>
      <trkpt lat="44.9664" lon="6.65969">
        <ele>1695.4223632812</ele>
        <time>2007-08-18T07:51:39Z</time>
      </trkpt>
      <trkpt lat="44.96629" lon="6.65971">
        <ele>1696.3837890625</ele>
        <time>2007-08-18T07:51:44Z</time>
      </trkpt>
      <trkpt lat="44.96612" lon="6.65943">
        <ele>1697.3449707031</ele>
        <time>2007-08-18T07:52:00Z</time>
      </trkpt>
      <trkpt lat="44.96601" lon="6.65881">
        <ele>1700.7094726562</ele>
        <time>2007-08-18T07:52:24Z</time>
      </trkpt>
      <trkpt lat="44.96601" lon="6.65872">
        <ele>1700.7094726562</ele>
        <time>2007-08-18T07:52:28Z</time>
      </trkpt>
      <trkpt lat="44.96614" lon="6.6584">
        <ele>1704.07421875</ele>
        <time>2007-08-18T07:52:44Z</time>
      </trkpt>
      <trkpt lat="44.96618" lon="6.65812">
        <ele>1707.4387207031</ele>
        <time>2007-08-18T07:52:59Z</time>
      </trkpt>
      <trkpt lat="44.96618" lon="6.65804">
        <ele>1707.9194335938</ele>
        <time>2007-08-18T07:53:04Z</time>
      </trkpt>
      <trkpt lat="44.96605" lon="6.65787">
        <ele>1711.7648925781</ele>
        <time>2007-08-18T07:53:15Z</time>
      </trkpt>
      <trkpt lat="44.96599" lon="6.6578">
        <ele>1712.2453613281</ele>
        <time>2007-08-18T07:53:19Z</time>
      </trkpt>
      <trkpt lat="44.96599" lon="6.65739">
        <ele>1713.2067871094</ele>
        <time>2007-08-18T07:53:36Z</time>
      </trkpt>
      <trkpt lat="44.96629" lon="6.65718">
        <ele>1716.0905761719</ele>
        <time>2007-08-18T07:53:54Z</time>
      </trkpt>
      <trkpt lat="44.96661" lon="6.65709">
        <ele>1718.974609375</ele>
        <time>2007-08-18T07:54:13Z</time>
      </trkpt>
      <trkpt lat="44.96678" lon="6.65707">
        <ele>1721.8583984375</ele>
        <time>2007-08-18T07:54:23Z</time>
      </trkpt>
      <trkpt lat="44.96696" lon="6.65686">
        <ele>1725.2231445312</ele>
        <time>2007-08-18T07:54:40Z</time>
      </trkpt>
      <trkpt lat="44.96715" lon="6.65666">
        <ele>1728.1071777344</ele>
        <time>2007-08-18T07:54:56Z</time>
      </trkpt>
      <trkpt lat="44.96726" lon="6.65628">
        <ele>1730.0297851562</ele>
        <time>2007-08-18T07:55:13Z</time>
      </trkpt>
      <trkpt lat="44.96721" lon="6.65606">
        <ele>1732.9135742188</ele>
        <time>2007-08-18T07:55:26Z</time>
      </trkpt>
      <trkpt lat="44.96719" lon="6.656">
        <ele>1733.3942871094</ele>
        <time>2007-08-18T07:55:30Z</time>
      </trkpt>
      <trkpt lat="44.96719" lon="6.65593">
        <ele>1734.8364257812</ele>
        <time>2007-08-18T07:55:33Z</time>
      </trkpt>
      <trkpt lat="44.96717" lon="6.65587">
        <ele>1735.3168945312</ele>
        <time>2007-08-18T07:55:38Z</time>
      </trkpt>
      <trkpt lat="44.96715" lon="6.65581">
        <ele>1735.7976074219</ele>
        <time>2007-08-18T07:55:41Z</time>
      </trkpt>
      <trkpt lat="44.96721" lon="6.65561">
        <ele>1738.2009277344</ele>
        <time>2007-08-18T07:55:52Z</time>
      </trkpt>
      <trkpt lat="44.96717" lon="6.65514">
        <ele>1742.0463867188</ele>
        <time>2007-08-18T07:56:16Z</time>
      </trkpt>
      <trkpt lat="44.96717" lon="6.65501">
        <ele>1743.48828125</ele>
        <time>2007-08-18T07:56:23Z</time>
      </trkpt>
      <trkpt lat="44.96711" lon="6.65497">
        <ele>1744.9301757812</ele>
        <time>2007-08-18T07:56:27Z</time>
      </trkpt>
      <trkpt lat="44.96706" lon="6.65503">
        <ele>1744.9301757812</ele>
        <time>2007-08-18T07:56:32Z</time>
      </trkpt>
      <trkpt lat="44.96704" lon="6.65542">
        <ele>1749.7368164062</ele>
        <time>2007-08-18T07:56:49Z</time>
      </trkpt>
      <trkpt lat="44.96704" lon="6.6555">
        <ele>1750.2175292969</ele>
        <time>2007-08-18T07:56:54Z</time>
      </trkpt>
      <trkpt lat="44.9668" lon="6.65596">
        <ele>1752.6206054688</ele>
        <time>2007-08-18T07:57:16Z</time>
      </trkpt>
      <trkpt lat="44.96663" lon="6.65602">
        <ele>1755.9851074219</ele>
        <time>2007-08-18T07:57:29Z</time>
      </trkpt>
      <trkpt lat="44.96648" lon="6.65621">
        <ele>1756.9467773438</ele>
        <time>2007-08-18T07:57:42Z</time>
      </trkpt>
      <trkpt lat="44.96629" lon="6.65636">
        <ele>1757.4274902344</ele>
        <time>2007-08-18T07:57:54Z</time>
      </trkpt>
      <trkpt lat="44.96618" lon="6.65628">
        <ele>1758.8693847656</ele>
        <time>2007-08-18T07:57:59Z</time>
      </trkpt>
      <trkpt lat="44.96616" lon="6.65621">
        <ele>1759.3500976562</ele>
        <time>2007-08-18T07:58:02Z</time>
      </trkpt>
      <trkpt lat="44.9662" lon="6.65617">
        <ele>1759.8305664062</ele>
        <time>2007-08-18T07:58:06Z</time>
      </trkpt>
      <trkpt lat="44.96646" lon="6.656">
        <ele>1760.7919921875</ele>
        <time>2007-08-18T07:58:17Z</time>
      </trkpt>
      <trkpt lat="44.96665" lon="6.65561">
        <ele>1764.1564941406</ele>
        <time>2007-08-18T07:58:34Z</time>
      </trkpt>
      <trkpt lat="44.96678" lon="6.65533">
        <ele>1766.5598144531</ele>
        <time>2007-08-18T07:58:48Z</time>
      </trkpt>
      <trkpt lat="44.96672" lon="6.6551">
        <ele>1768.0017089844</ele>
        <time>2007-08-18T07:58:58Z</time>
      </trkpt>
      <trkpt lat="44.96657" lon="6.6548">
        <ele>1770.4050292969</ele>
        <time>2007-08-18T07:59:16Z</time>
      </trkpt>
      <trkpt lat="44.9665" lon="6.65488">
        <ele>1771.8469238281</ele>
        <time>2007-08-18T07:59:22Z</time>
      </trkpt>
      <trkpt lat="44.96638" lon="6.65523">
        <ele>1775.2116699219</ele>
        <time>2007-08-18T07:59:39Z</time>
      </trkpt>
      <trkpt lat="44.9661" lon="6.65546">
        <ele>1778.095703125</ele>
        <time>2007-08-18T07:59:58Z</time>
      </trkpt>
      <trkpt lat="44.96597" lon="6.65557">
        <ele>1779.0568847656</ele>
        <time>2007-08-18T08:00:06Z</time>
      </trkpt>
      <trkpt lat="44.96588" lon="6.65548">
        <ele>1780.0183105469</ele>
        <time>2007-08-18T08:00:12Z</time>
      </trkpt>
      <trkpt lat="44.96605" lon="6.65501">
        <ele>1781.9409179688</ele>
        <time>2007-08-18T08:00:30Z</time>
      </trkpt>
      <trkpt lat="44.9662" lon="6.6546">
        <ele>1785.3054199219</ele>
        <time>2007-08-18T08:00:45Z</time>
      </trkpt>
      <trkpt lat="44.96635" lon="6.6543">
        <ele>1787.2280273438</ele>
        <time>2007-08-18T08:01:01Z</time>
      </trkpt>
      <trkpt lat="44.96661" lon="6.65424">
        <ele>1790.1123046875</ele>
        <time>2007-08-18T08:01:15Z</time>
      </trkpt>
      <trkpt lat="44.96668" lon="6.65424">
        <ele>1790.5927734375</ele>
        <time>2007-08-18T08:01:19Z</time>
      </trkpt>
      <trkpt lat="44.9668" lon="6.65411">
        <ele>1792.0349121094</ele>
        <time>2007-08-18T08:01:28Z</time>
      </trkpt>
      <trkpt lat="44.96685" lon="6.65394">
        <ele>1792.515625</ele>
        <time>2007-08-18T08:01:35Z</time>
      </trkpt>
      <trkpt lat="44.96661" lon="6.65398">
        <ele>1794.4379882812</ele>
        <time>2007-08-18T08:01:49Z</time>
      </trkpt>
      <trkpt lat="44.96635" lon="6.65407">
        <ele>1797.802734375</ele>
        <time>2007-08-18T08:02:02Z</time>
      </trkpt>
      <trkpt lat="44.96595" lon="6.65409">
        <ele>1800.2060546875</ele>
        <time>2007-08-18T08:02:22Z</time>
      </trkpt>
      <trkpt lat="44.9658" lon="6.65432">
        <ele>1803.08984375</ele>
        <time>2007-08-18T08:02:33Z</time>
      </trkpt>
      <trkpt lat="44.96573" lon="6.65432">
        <ele>1803.5705566406</ele>
        <time>2007-08-18T08:02:37Z</time>
      </trkpt>
      <trkpt lat="44.96569" lon="6.6542">
        <ele>1804.5319824219</ele>
        <time>2007-08-18T08:02:43Z</time>
      </trkpt>
      <trkpt lat="44.9659" lon="6.65387">
        <ele>1805.4934082031</ele>
        <time>2007-08-18T08:03:00Z</time>
      </trkpt>
      <trkpt lat="44.96616" lon="6.65375">
        <ele>1806.4545898438</ele>
        <time>2007-08-18T08:03:18Z</time>
      </trkpt>
      <trkpt lat="44.96635" lon="6.65359">
        <ele>1809.8190917969</ele>
        <time>2007-08-18T08:03:33Z</time>
      </trkpt>
      <trkpt lat="44.96644" lon="6.65353">
        <ele>1811.7419433594</ele>
        <time>2007-08-18T08:03:41Z</time>
      </trkpt>
      <trkpt lat="44.96661" lon="6.6534">
        <ele>1814.6257324219</ele>
        <time>2007-08-18T08:03:56Z</time>
      </trkpt>
      <trkpt lat="44.9667" lon="6.6534">
        <ele>1814.6257324219</ele>
        <time>2007-08-18T08:04:02Z</time>
      </trkpt>
      <trkpt lat="44.9668" lon="6.65306">
        <ele>1817.5095214844</ele>
        <time>2007-08-18T08:04:23Z</time>
      </trkpt>
      <trkpt lat="44.96685" lon="6.65287">
        <ele>1818.9516601562</ele>
        <time>2007-08-18T08:04:32Z</time>
      </trkpt>
      <trkpt lat="44.96683" lon="6.65257">
        <ele>1822.31640625</ele>
        <time>2007-08-18T08:04:49Z</time>
      </trkpt>
      <trkpt lat="44.96678" lon="6.65214">
        <ele>1823.7583007812</ele>
        <time>2007-08-18T08:05:11Z</time>
      </trkpt>
      <trkpt lat="44.9667" lon="6.65214">
        <ele>1824.7197265625</ele>
        <time>2007-08-18T08:05:17Z</time>
      </trkpt>
      <trkpt lat="44.96665" lon="6.65252">
        <ele>1826.6423339844</ele>
        <time>2007-08-18T08:05:34Z</time>
      </trkpt>
      <trkpt lat="44.96653" lon="6.65291">
        <ele>1828.5649414062</ele>
        <time>2007-08-18T08:05:51Z</time>
      </trkpt>
      <trkpt lat="44.96629" lon="6.65308">
        <ele>1830.9682617188</ele>
        <time>2007-08-18T08:06:09Z</time>
      </trkpt>
      <trkpt lat="44.9661" lon="6.65312">
        <ele>1833.8520507812</ele>
        <time>2007-08-18T08:06:22Z</time>
      </trkpt>
      <trkpt lat="44.96588" lon="6.65321">
        <ele>1837.6975097656</ele>
        <time>2007-08-18T08:06:37Z</time>
      </trkpt>
      <trkpt lat="44.96586" lon="6.65321">
        <ele>1837.6975097656</ele>
        <time>2007-08-18T08:06:38Z</time>
      </trkpt>
      <trkpt lat="44.96552" lon="6.65329">
        <ele>1839.6201171875</ele>
        <time>2007-08-18T08:06:58Z</time>
      </trkpt>
      <trkpt lat="44.96524" lon="6.65351">
        <ele>1842.0234375</ele>
        <time>2007-08-18T08:07:17Z</time>
      </trkpt>
      <trkpt lat="44.965" lon="6.65375">
        <ele>1844.4265136719</ele>
        <time>2007-08-18T08:07:35Z</time>
      </trkpt>
      <trkpt lat="44.96477" lon="6.65409">
        <ele>1847.310546875</ele>
        <time>2007-08-18T08:07:52Z</time>
      </trkpt>
      <trkpt lat="44.96462" lon="6.65452">
        <ele>1848.7524414062</ele>
        <time>2007-08-18T08:08:10Z</time>
      </trkpt>
      <trkpt lat="44.96462" lon="6.65482">
        <ele>1852.1171875</ele>
        <time>2007-08-18T08:08:22Z</time>
      </trkpt>
      <trkpt lat="44.96464" lon="6.65501">
        <ele>1854.0400390625</ele>
        <time>2007-08-18T08:08:29Z</time>
      </trkpt>
      <trkpt lat="44.96455" lon="6.65495">
        <ele>1855.4819335938</ele>
        <time>2007-08-18T08:08:35Z</time>
      </trkpt>
      <trkpt lat="44.96442" lon="6.65428">
        <ele>1857.8852539062</ele>
        <time>2007-08-18T08:08:59Z</time>
      </trkpt>
      <trkpt lat="44.96442" lon="6.6542">
        <ele>1858.3657226562</ele>
        <time>2007-08-18T08:09:02Z</time>
      </trkpt>
      <trkpt lat="44.96451" lon="6.6539">
        <ele>1862.2109375</ele>
        <time>2007-08-18T08:09:14Z</time>
      </trkpt>
      <trkpt lat="44.96472" lon="6.65351">
        <ele>1865.0949707031</ele>
        <time>2007-08-18T08:09:31Z</time>
      </trkpt>
      <trkpt lat="44.96496" lon="6.65317">
        <ele>1868.4597167969</ele>
        <time>2007-08-18T08:09:49Z</time>
      </trkpt>
      <trkpt lat="44.96517" lon="6.65282">
        <ele>1871.82421875</ele>
        <time>2007-08-18T08:10:07Z</time>
      </trkpt>
      <trkpt lat="44.96539" lon="6.65246">
        <ele>1874.7082519531</ele>
        <time>2007-08-18T08:10:29Z</time>
      </trkpt>
      <trkpt lat="44.96556" lon="6.65226">
        <ele>1878.5534667969</ele>
        <time>2007-08-18T08:10:43Z</time>
      </trkpt>
      <trkpt lat="44.96569" lon="6.65194">
        <ele>1880.4760742188</ele>
        <time>2007-08-18T08:10:59Z</time>
      </trkpt>
      <trkpt lat="44.96571" lon="6.65177">
        <ele>1882.8791503906</ele>
        <time>2007-08-18T08:11:06Z</time>
      </trkpt>
      <trkpt lat="44.96584" lon="6.65134">
        <ele>1884.8022460938</ele>
        <time>2007-08-18T08:11:26Z</time>
      </trkpt>
      <trkpt lat="44.96586" lon="6.65123">
        <ele>1885.2827148438</ele>
        <time>2007-08-18T08:11:30Z</time>
      </trkpt>
      <trkpt lat="44.96578" lon="6.65113">
        <ele>1886.724609375</ele>
        <time>2007-08-18T08:11:35Z</time>
      </trkpt>
      <trkpt lat="44.96558" lon="6.65068">
        <ele>1888.6474609375</ele>
        <time>2007-08-18T08:11:54Z</time>
      </trkpt>
      <trkpt lat="44.9655" lon="6.65042">
        <ele>1891.0505371094</ele>
        <time>2007-08-18T08:12:04Z</time>
      </trkpt>
      <trkpt lat="44.96547" lon="6.64995">
        <ele>1892.9731445312</ele>
        <time>2007-08-18T08:12:23Z</time>
      </trkpt>
      <trkpt lat="44.96554" lon="6.64982">
        <ele>1893.4538574219</ele>
        <time>2007-08-18T08:12:28Z</time>
      </trkpt>
      <trkpt lat="44.9656" lon="6.6498">
        <ele>1894.4150390625</ele>
        <time>2007-08-18T08:12:32Z</time>
      </trkpt>
      <trkpt lat="44.96586" lon="6.64982">
        <ele>1896.818359375</ele>
        <time>2007-08-18T08:12:45Z</time>
      </trkpt>
      <trkpt lat="44.96588" lon="6.64967">
        <ele>1897.7797851562</ele>
        <time>2007-08-18T08:12:51Z</time>
      </trkpt>
      <trkpt lat="44.9658" lon="6.64909">
        <ele>1902.5864257812</ele>
        <time>2007-08-18T08:13:15Z</time>
      </trkpt>
      <trkpt lat="44.96578" lon="6.6486">
        <ele>1905.4704589844</ele>
        <time>2007-08-18T08:13:33Z</time>
      </trkpt>
      <trkpt lat="44.96571" lon="6.6481">
        <ele>1906.9123535156</ele>
        <time>2007-08-18T08:13:51Z</time>
      </trkpt>
      <trkpt lat="44.96571" lon="6.64802">
        <ele>1907.3930664062</ele>
        <time>2007-08-18T08:13:55Z</time>
      </trkpt>
      <trkpt lat="44.96584" lon="6.64754">
        <ele>1909.7961425781</ele>
        <time>2007-08-18T08:14:16Z</time>
      </trkpt>
      <trkpt lat="44.9658" lon="6.64718">
        <ele>1913.1608886719</ele>
        <time>2007-08-18T08:14:33Z</time>
      </trkpt>
      <trkpt lat="44.96586" lon="6.64654">
        <ele>1915.5642089844</ele>
        <time>2007-08-18T08:15:00Z</time>
      </trkpt>
      <trkpt lat="44.96582" lon="6.64572">
        <ele>1917.9675292969</ele>
        <time>2007-08-18T08:15:33Z</time>
      </trkpt>
      <trkpt lat="44.96601" lon="6.64546">
        <ele>1920.8515625</ele>
        <time>2007-08-18T08:15:49Z</time>
      </trkpt>
      <trkpt lat="44.96623" lon="6.64499">
        <ele>1924.2160644531</ele>
        <time>2007-08-18T08:16:12Z</time>
      </trkpt>
      <trkpt lat="44.96629" lon="6.64456">
        <ele>1927.5805664062</ele>
        <time>2007-08-18T08:16:31Z</time>
      </trkpt>
      <trkpt lat="44.96627" lon="6.64411">
        <ele>1929.5031738281</ele>
        <time>2007-08-18T08:16:49Z</time>
      </trkpt>
      <trkpt lat="44.96638" lon="6.6437">
        <ele>1932.8679199219</ele>
        <time>2007-08-18T08:17:08Z</time>
      </trkpt>
      <trkpt lat="44.9664" lon="6.64342">
        <ele>1933.8293457031</ele>
        <time>2007-08-18T08:17:23Z</time>
      </trkpt>
      <trkpt lat="44.96633" lon="6.64319">
        <ele>1937.1938476562</ele>
        <time>2007-08-18T08:17:37Z</time>
      </trkpt>
      <trkpt lat="44.96629" lon="6.64293">
        <ele>1939.5971679688</ele>
        <time>2007-08-18T08:17:53Z</time>
      </trkpt>
      <trkpt lat="44.96612" lon="6.64267">
        <ele>1943.9230957031</ele>
        <time>2007-08-18T08:18:11Z</time>
      </trkpt>
      <trkpt lat="44.96608" lon="6.64239">
        <ele>1947.2875976562</ele>
        <time>2007-08-18T08:18:25Z</time>
      </trkpt>
      <trkpt lat="44.9661" lon="6.6422">
        <ele>1950.171875</ele>
        <time>2007-08-18T08:18:35Z</time>
      </trkpt>
      <trkpt lat="44.96612" lon="6.64212">
        <ele>1950.171875</ele>
        <time>2007-08-18T08:18:39Z</time>
      </trkpt>
      <trkpt lat="44.96616" lon="6.64207">
        <ele>1951.1330566406</ele>
        <time>2007-08-18T08:18:43Z</time>
      </trkpt>
      <trkpt lat="44.96623" lon="6.64177">
        <ele>1952.5749511719</ele>
        <time>2007-08-18T08:18:59Z</time>
      </trkpt>
      <trkpt lat="44.9661" lon="6.64134">
        <ele>1953.0556640625</ele>
        <time>2007-08-18T08:19:15Z</time>
      </trkpt>
      <trkpt lat="44.96612" lon="6.64087">
        <ele>1955.458984375</ele>
        <time>2007-08-18T08:19:31Z</time>
      </trkpt>
      <trkpt lat="44.96614" lon="6.64038">
        <ele>1958.3427734375</ele>
        <time>2007-08-18T08:19:49Z</time>
      </trkpt>
      <trkpt lat="44.96603" lon="6.63997">
        <ele>1958.3427734375</ele>
        <time>2007-08-18T08:20:01Z</time>
      </trkpt>
      <trkpt lat="44.96616" lon="6.6398">
        <ele>1958.8234863281</ele>
        <time>2007-08-18T08:20:11Z</time>
      </trkpt>
      <trkpt lat="44.96625" lon="6.6395">
        <ele>1958.3427734375</ele>
        <time>2007-08-18T08:20:24Z</time>
      </trkpt>
      <trkpt lat="44.9661" lon="6.63892">
        <ele>1958.8234863281</ele>
        <time>2007-08-18T08:20:40Z</time>
      </trkpt>
      <trkpt lat="44.9659" lon="6.63842">
        <ele>1960.2653808594</ele>
        <time>2007-08-18T08:20:58Z</time>
      </trkpt>
      <trkpt lat="44.9656" lon="6.6381">
        <ele>1961.2268066406</ele>
        <time>2007-08-18T08:21:14Z</time>
      </trkpt>
      <trkpt lat="44.96558" lon="6.6381">
        <ele>1960.74609375</ele>
        <time>2007-08-18T08:21:28Z</time>
      </trkpt>
      <trkpt lat="44.96562" lon="6.63804">
        <ele>1962.1879882812</ele>
        <time>2007-08-18T08:23:01Z</time>
      </trkpt>
      <trkpt lat="44.96562" lon="6.63812">
        <ele>1961.7075195312</ele>
        <time>2007-08-18T08:24:24Z</time>
      </trkpt>
      <trkpt lat="44.96554" lon="6.63804">
        <ele>1963.1494140625</ele>
        <time>2007-08-18T08:26:00Z</time>
      </trkpt>
      <trkpt lat="44.96556" lon="6.63804">
        <ele>1963.6298828125</ele>
        <time>2007-08-18T08:26:04Z</time>
      </trkpt>
      <trkpt lat="44.96558" lon="6.638">
        <ele>1963.1494140625</ele>
        <time>2007-08-18T08:26:07Z</time>
      </trkpt>
      <trkpt lat="44.9656" lon="6.63757">
        <ele>1966.5141601562</ele>
        <time>2007-08-18T08:26:30Z</time>
      </trkpt>
      <trkpt lat="44.96569" lon="6.63714">
        <ele>1968.9174804688</ele>
        <time>2007-08-18T08:26:50Z</time>
      </trkpt>
      <trkpt lat="44.96588" lon="6.63664">
        <ele>1971.3205566406</ele>
        <time>2007-08-18T08:27:11Z</time>
      </trkpt>
      <trkpt lat="44.96595" lon="6.63634">
        <ele>1973.7238769531</ele>
        <time>2007-08-18T08:27:22Z</time>
      </trkpt>
      <trkpt lat="44.96616" lon="6.63604">
        <ele>1977.0886230469</ele>
        <time>2007-08-18T08:27:40Z</time>
      </trkpt>
      <trkpt lat="44.96627" lon="6.63574">
        <ele>1979.9724121094</ele>
        <time>2007-08-18T08:27:54Z</time>
      </trkpt>
      <trkpt lat="44.9664" lon="6.63521">
        <ele>1981.8952636719</ele>
        <time>2007-08-18T08:28:15Z</time>
      </trkpt>
      <trkpt lat="44.96655" lon="6.63484">
        <ele>1985.259765625</ele>
        <time>2007-08-18T08:28:32Z</time>
      </trkpt>
      <trkpt lat="44.96659" lon="6.63439">
        <ele>1987.1823730469</ele>
        <time>2007-08-18T08:28:51Z</time>
      </trkpt>
      <trkpt lat="44.96661" lon="6.63433">
        <ele>1987.1823730469</ele>
        <time>2007-08-18T08:28:54Z</time>
      </trkpt>
      <trkpt lat="44.96668" lon="6.63426">
        <ele>1988.6245117188</ele>
        <time>2007-08-18T08:28:58Z</time>
      </trkpt>
      <trkpt lat="44.96685" lon="6.63388">
        <ele>1990.546875</ele>
        <time>2007-08-18T08:29:15Z</time>
      </trkpt>
      <trkpt lat="44.967" lon="6.63351">
        <ele>1992.4697265625</ele>
        <time>2007-08-18T08:29:32Z</time>
      </trkpt>
      <trkpt lat="44.96719" lon="6.63327">
        <ele>1993.4309082031</ele>
        <time>2007-08-18T08:29:48Z</time>
      </trkpt>
      <trkpt lat="44.96732" lon="6.63345">
        <ele>1993.4309082031</ele>
        <time>2007-08-18T08:29:54Z</time>
      </trkpt>
      <trkpt lat="44.96728" lon="6.6339">
        <ele>1995.353515625</ele>
        <time>2007-08-18T08:30:11Z</time>
      </trkpt>
      <trkpt lat="44.96728" lon="6.63411">
        <ele>1998.2375488281</ele>
        <time>2007-08-18T08:30:19Z</time>
      </trkpt>
      <trkpt lat="44.9673" lon="6.63452">
        <ele>2000.6408691406</ele>
        <time>2007-08-18T08:30:36Z</time>
      </trkpt>
      <trkpt lat="44.96741" lon="6.63486">
        <ele>2004.0056152344</ele>
        <time>2007-08-18T08:30:53Z</time>
      </trkpt>
      <trkpt lat="44.96753" lon="6.63516">
        <ele>2006.8894042969</ele>
        <time>2007-08-18T08:31:08Z</time>
      </trkpt>
      <trkpt lat="44.96766" lon="6.63551">
        <ele>2009.2927246094</ele>
        <time>2007-08-18T08:31:25Z</time>
      </trkpt>
      <trkpt lat="44.96777" lon="6.63596">
        <ele>2013.1381835938</ele>
        <time>2007-08-18T08:31:45Z</time>
      </trkpt>
      <trkpt lat="44.96779" lon="6.63598">
        <ele>2012.6574707031</ele>
        <time>2007-08-18T08:31:46Z</time>
      </trkpt>
      <trkpt lat="44.96786" lon="6.63615">
        <ele>2014.580078125</ele>
        <time>2007-08-18T08:31:55Z</time>
      </trkpt>
      <trkpt lat="44.9679" lon="6.63647">
        <ele>2018.4252929688</ele>
        <time>2007-08-18T08:32:11Z</time>
      </trkpt>
      <trkpt lat="44.9679" lon="6.63682">
        <ele>2020.8286132812</ele>
        <time>2007-08-18T08:32:27Z</time>
      </trkpt>
      <trkpt lat="44.96794" lon="6.63712">
        <ele>2024.1931152344</ele>
        <time>2007-08-18T08:32:42Z</time>
      </trkpt>
      <trkpt lat="44.96796" lon="6.6372">
        <ele>2024.1931152344</ele>
        <time>2007-08-18T08:32:48Z</time>
      </trkpt>
      <trkpt lat="44.96803" lon="6.63722">
        <ele>2025.154296875</ele>
        <time>2007-08-18T08:32:53Z</time>
      </trkpt>
      <trkpt lat="44.96811" lon="6.63705">
        <ele>2027.0771484375</ele>
        <time>2007-08-18T08:33:05Z</time>
      </trkpt>
      <trkpt lat="44.96824" lon="6.63673">
        <ele>2029.48046875</ele>
        <time>2007-08-18T08:33:23Z</time>
      </trkpt>
      <trkpt lat="44.96833" lon="6.63643">
        <ele>2031.8837890625</ele>
        <time>2007-08-18T08:33:39Z</time>
      </trkpt>
      <trkpt lat="44.96837" lon="6.63611">
        <ele>2033.3256835938</ele>
        <time>2007-08-18T08:33:54Z</time>
      </trkpt>
      <trkpt lat="44.96839" lon="6.63579">
        <ele>2037.6516113281</ele>
        <time>2007-08-18T08:34:10Z</time>
      </trkpt>
      <trkpt lat="44.96835" lon="6.63553">
        <ele>2040.0549316406</ele>
        <time>2007-08-18T08:34:22Z</time>
      </trkpt>
      <trkpt lat="44.96833" lon="6.63529">
        <ele>2041.9775390625</ele>
        <time>2007-08-18T08:34:33Z</time>
      </trkpt>
      <trkpt lat="44.96831" lon="6.63521">
        <ele>2042.4582519531</ele>
        <time>2007-08-18T08:34:37Z</time>
      </trkpt>
      <trkpt lat="44.96831" lon="6.63491">
        <ele>2044.380859375</ele>
        <time>2007-08-18T08:34:52Z</time>
      </trkpt>
      <trkpt lat="44.96835" lon="6.6346">
        <ele>2046.7841796875</ele>
        <time>2007-08-18T08:35:08Z</time>
      </trkpt>
      <trkpt lat="44.96844" lon="6.63426">
        <ele>2048.7067871094</ele>
        <time>2007-08-18T08:35:25Z</time>
      </trkpt>
      <trkpt lat="44.96852" lon="6.63388">
        <ele>2051.5908203125</ele>
        <time>2007-08-18T08:35:43Z</time>
      </trkpt>
      <trkpt lat="44.96856" lon="6.63347">
        <ele>2054.9553222656</ele>
        <time>2007-08-18T08:36:01Z</time>
      </trkpt>
      <trkpt lat="44.96861" lon="6.63321">
        <ele>2058.3198242188</ele>
        <time>2007-08-18T08:36:13Z</time>
      </trkpt>
      <trkpt lat="44.96865" lon="6.63312">
        <ele>2059.28125</ele>
        <time>2007-08-18T08:36:18Z</time>
      </trkpt>
      <trkpt lat="44.96867" lon="6.63306">
        <ele>2059.76171875</ele>
        <time>2007-08-18T08:36:22Z</time>
      </trkpt>
      <trkpt lat="44.96876" lon="6.6327">
        <ele>2063.1267089844</ele>
        <time>2007-08-18T08:36:41Z</time>
      </trkpt>
      <trkpt lat="44.96899" lon="6.63222">
        <ele>2065.5300292969</ele>
        <time>2007-08-18T08:37:08Z</time>
      </trkpt>
      <trkpt lat="44.96904" lon="6.63209">
        <ele>2068.89453125</ele>
        <time>2007-08-18T08:37:17Z</time>
      </trkpt>
      <trkpt lat="44.96923" lon="6.63182">
        <ele>2072.2590332031</ele>
        <time>2007-08-18T08:37:38Z</time>
      </trkpt>
      <trkpt lat="44.96942" lon="6.63158">
        <ele>2074.6623535156</ele>
        <time>2007-08-18T08:37:57Z</time>
      </trkpt>
      <trkpt lat="44.96949" lon="6.63158">
        <ele>2076.1044921875</ele>
        <time>2007-08-18T08:38:04Z</time>
      </trkpt>
      <trkpt lat="44.96936" lon="6.63197">
        <ele>2078.0270996094</ele>
        <time>2007-08-18T08:38:20Z</time>
      </trkpt>
      <trkpt lat="44.96934" lon="6.63201">
        <ele>2078.5078125</ele>
        <time>2007-08-18T08:38:22Z</time>
      </trkpt>
      <trkpt lat="44.96936" lon="6.63239">
        <ele>2082.3530273438</ele>
        <time>2007-08-18T08:38:39Z</time>
      </trkpt>
      <trkpt lat="44.96942" lon="6.63263">
        <ele>2085.2368164062</ele>
        <time>2007-08-18T08:38:50Z</time>
      </trkpt>
      <trkpt lat="44.96953" lon="6.63304">
        <ele>2088.1208496094</ele>
        <time>2007-08-18T08:39:12Z</time>
      </trkpt>
      <trkpt lat="44.96968" lon="6.63338">
        <ele>2089.5627441406</ele>
        <time>2007-08-18T08:39:30Z</time>
      </trkpt>
      <trkpt lat="44.9697" lon="6.63342">
        <ele>2089.5627441406</ele>
        <time>2007-08-18T08:39:32Z</time>
      </trkpt>
      <trkpt lat="44.96996" lon="6.63342">
        <ele>2092.9274902344</ele>
        <time>2007-08-18T08:39:48Z</time>
      </trkpt>
      <trkpt lat="44.97002" lon="6.63334">
        <ele>2093.8889160156</ele>
        <time>2007-08-18T08:39:54Z</time>
      </trkpt>
      <trkpt lat="44.97005" lon="6.63321">
        <ele>2095.8115234375</ele>
        <time>2007-08-18T08:40:01Z</time>
      </trkpt>
      <trkpt lat="44.97005" lon="6.63317">
        <ele>2095.8115234375</ele>
        <time>2007-08-18T08:40:04Z</time>
      </trkpt>
      <trkpt lat="44.97009" lon="6.63278">
        <ele>2099.6567382812</ele>
        <time>2007-08-18T08:40:24Z</time>
      </trkpt>
      <trkpt lat="44.97026" lon="6.63259">
        <ele>2101.5793457031</ele>
        <time>2007-08-18T08:40:40Z</time>
      </trkpt>
      <trkpt lat="44.9703" lon="6.63254">
        <ele>2102.5405273438</ele>
        <time>2007-08-18T08:40:44Z</time>
      </trkpt>
      <trkpt lat="44.97043" lon="6.63239">
        <ele>2105.4245605469</ele>
        <time>2007-08-18T08:40:57Z</time>
      </trkpt>
      <trkpt lat="44.97054" lon="6.63224">
        <ele>2107.8278808594</ele>
        <time>2007-08-18T08:41:09Z</time>
      </trkpt>
      <trkpt lat="44.97069" lon="6.63203">
        <ele>2109.7504882812</ele>
        <time>2007-08-18T08:41:25Z</time>
      </trkpt>
      <trkpt lat="44.97084" lon="6.63186">
        <ele>2112.1538085938</ele>
        <time>2007-08-18T08:41:38Z</time>
      </trkpt>
      <trkpt lat="44.9709" lon="6.63173">
        <ele>2113.595703125</ele>
        <time>2007-08-18T08:41:46Z</time>
      </trkpt>
      <trkpt lat="44.97092" lon="6.6316">
        <ele>2114.5571289062</ele>
        <time>2007-08-18T08:41:53Z</time>
      </trkpt>
      <trkpt lat="44.97108" lon="6.6313">
        <ele>2116.4797363281</ele>
        <time>2007-08-18T08:42:10Z</time>
      </trkpt>
      <trkpt lat="44.9712" lon="6.63102">
        <ele>2118.8830566406</ele>
        <time>2007-08-18T08:42:28Z</time>
      </trkpt>
      <trkpt lat="44.97125" lon="6.63096">
        <ele>2119.8442382812</ele>
        <time>2007-08-18T08:42:32Z</time>
      </trkpt>
      <trkpt lat="44.97133" lon="6.63085">
        <ele>2121.2861328125</ele>
        <time>2007-08-18T08:42:41Z</time>
      </trkpt>
      <trkpt lat="44.9715" lon="6.63057">
        <ele>2124.6511230469</ele>
        <time>2007-08-18T08:43:00Z</time>
      </trkpt>
      <trkpt lat="44.97157" lon="6.63049">
        <ele>2125.6123046875</ele>
        <time>2007-08-18T08:43:05Z</time>
      </trkpt>
      <trkpt lat="44.97165" lon="6.63033">
        <ele>2128.015625</ele>
        <time>2007-08-18T08:43:15Z</time>
      </trkpt>
      <trkpt lat="44.97178" lon="6.63012">
        <ele>2129.9382324219</ele>
        <time>2007-08-18T08:43:29Z</time>
      </trkpt>
      <trkpt lat="44.97183" lon="6.63001">
        <ele>2129.9382324219</ele>
        <time>2007-08-18T08:43:35Z</time>
      </trkpt>
      <trkpt lat="44.97185" lon="6.62988">
        <ele>2131.8608398438</ele>
        <time>2007-08-18T08:43:41Z</time>
      </trkpt>
      <trkpt lat="44.97185" lon="6.62971">
        <ele>2133.302734375</ele>
        <time>2007-08-18T08:43:50Z</time>
      </trkpt>
      <trkpt lat="44.97191" lon="6.62946">
        <ele>2136.6672363281</ele>
        <time>2007-08-18T08:44:02Z</time>
      </trkpt>
      <trkpt lat="44.97198" lon="6.62928">
        <ele>2138.109375</ele>
        <time>2007-08-18T08:44:12Z</time>
      </trkpt>
      <trkpt lat="44.97208" lon="6.6289">
        <ele>2140.0322265625</ele>
        <time>2007-08-18T08:44:31Z</time>
      </trkpt>
      <trkpt lat="44.97206" lon="6.62881">
        <ele>2140.5126953125</ele>
        <time>2007-08-18T08:44:35Z</time>
      </trkpt>
      <trkpt lat="44.97215" lon="6.62849">
        <ele>2144.3579101562</ele>
        <time>2007-08-18T08:44:54Z</time>
      </trkpt>
      <trkpt lat="44.97217" lon="6.62845">
        <ele>2144.8386230469</ele>
        <time>2007-08-18T08:44:57Z</time>
      </trkpt>
      <trkpt lat="44.97219" lon="6.62838">
        <ele>2145.8000488281</ele>
        <time>2007-08-18T08:45:01Z</time>
      </trkpt>
      <trkpt lat="44.97221" lon="6.62825">
        <ele>2147.2419433594</ele>
        <time>2007-08-18T08:45:09Z</time>
      </trkpt>
      <trkpt lat="44.97219" lon="6.62819">
        <ele>2147.72265625</ele>
        <time>2007-08-18T08:45:13Z</time>
      </trkpt>
      <trkpt lat="44.97221" lon="6.62804">
        <ele>2148.6838378906</ele>
        <time>2007-08-18T08:45:21Z</time>
      </trkpt>
      <trkpt lat="44.97226" lon="6.62793">
        <ele>2149.1645507812</ele>
        <time>2007-08-18T08:45:27Z</time>
      </trkpt>
      <trkpt lat="44.97232" lon="6.62765">
        <ele>2153.009765625</ele>
        <time>2007-08-18T08:45:42Z</time>
      </trkpt>
      <trkpt lat="44.97234" lon="6.62733">
        <ele>2154.4516601562</ele>
        <time>2007-08-18T08:45:58Z</time>
      </trkpt>
      <trkpt lat="44.97234" lon="6.62703">
        <ele>2157.3359375</ele>
        <time>2007-08-18T08:46:14Z</time>
      </trkpt>
      <trkpt lat="44.97234" lon="6.62701">
        <ele>2156.8552246094</ele>
        <time>2007-08-18T08:46:15Z</time>
      </trkpt>
      <trkpt lat="44.97234" lon="6.62686">
        <ele>2158.7778320312</ele>
        <time>2007-08-18T08:46:23Z</time>
      </trkpt>
      <trkpt lat="44.97236" lon="6.62684">
        <ele>2159.2585449219</ele>
        <time>2007-08-18T08:46:25Z</time>
      </trkpt>
      <trkpt lat="44.97241" lon="6.62682">
        <ele>2159.7390136719</ele>
        <time>2007-08-18T08:46:29Z</time>
      </trkpt>
      <trkpt lat="44.97247" lon="6.62686">
        <ele>2160.7004394531</ele>
        <time>2007-08-18T08:46:34Z</time>
      </trkpt>
      <trkpt lat="44.97251" lon="6.62722">
        <ele>2162.623046875</ele>
        <time>2007-08-18T08:46:50Z</time>
      </trkpt>
      <trkpt lat="44.9726" lon="6.62759">
        <ele>2163.5842285156</ele>
        <time>2007-08-18T08:47:08Z</time>
      </trkpt>
      <trkpt lat="44.97262" lon="6.62772">
        <ele>2164.5456542969</ele>
        <time>2007-08-18T08:47:14Z</time>
      </trkpt>
      <trkpt lat="44.97264" lon="6.62782">
        <ele>2165.5070800781</ele>
        <time>2007-08-18T08:47:20Z</time>
      </trkpt>
      <trkpt lat="44.97266" lon="6.62791">
        <ele>2165.9875488281</ele>
        <time>2007-08-18T08:47:25Z</time>
      </trkpt>
      <trkpt lat="44.9729" lon="6.62808">
        <ele>2168.8715820312</ele>
        <time>2007-08-18T08:47:42Z</time>
      </trkpt>
      <trkpt lat="44.97305" lon="6.62834">
        <ele>2171.2746582031</ele>
        <time>2007-08-18T08:48:01Z</time>
      </trkpt>
      <trkpt lat="44.97301" lon="6.62834">
        <ele>2172.236328125</ele>
        <time>2007-08-18T08:48:16Z</time>
      </trkpt>
      <trkpt lat="44.97296" lon="6.62845">
        <ele>2173.6782226562</ele>
        <time>2007-08-18T08:48:23Z</time>
      </trkpt>
      <trkpt lat="44.97294" lon="6.62851">
        <ele>2173.6782226562</ele>
        <time>2007-08-18T08:48:27Z</time>
      </trkpt>
      <trkpt lat="44.97294" lon="6.62864">
        <ele>2176.5622558594</ele>
        <time>2007-08-18T08:48:33Z</time>
      </trkpt>
      <trkpt lat="44.97301" lon="6.62883">
        <ele>2178.0041503906</ele>
        <time>2007-08-18T08:48:43Z</time>
      </trkpt>
      <trkpt lat="44.97313" lon="6.62928">
        <ele>2180.4074707031</ele>
        <time>2007-08-18T08:49:07Z</time>
      </trkpt>
      <trkpt lat="44.97311" lon="6.62946">
        <ele>2182.810546875</ele>
        <time>2007-08-18T08:49:16Z</time>
      </trkpt>
      <trkpt lat="44.97311" lon="6.62961">
        <ele>2184.2526855469</ele>
        <time>2007-08-18T08:49:24Z</time>
      </trkpt>
      <trkpt lat="44.97316" lon="6.62988">
        <ele>2187.1364746094</ele>
        <time>2007-08-18T08:49:40Z</time>
      </trkpt>
      <trkpt lat="44.97313" lon="6.62999">
        <ele>2188.0981445312</ele>
        <time>2007-08-18T08:49:45Z</time>
      </trkpt>
      <trkpt lat="44.97309" lon="6.63033">
        <ele>2190.0207519531</ele>
        <time>2007-08-18T08:50:01Z</time>
      </trkpt>
      <trkpt lat="44.97307" lon="6.63064">
        <ele>2193.8659667969</ele>
        <time>2007-08-18T08:50:14Z</time>
      </trkpt>
      <trkpt lat="44.97305" lon="6.63104">
        <ele>2194.8271484375</ele>
        <time>2007-08-18T08:50:33Z</time>
      </trkpt>
      <trkpt lat="44.97303" lon="6.63141">
        <ele>2196.2692871094</ele>
        <time>2007-08-18T08:50:50Z</time>
      </trkpt>
      <trkpt lat="44.97301" lon="6.63156">
        <ele>2197.23046875</ele>
        <time>2007-08-18T08:50:58Z</time>
      </trkpt>
      <trkpt lat="44.97301" lon="6.63188">
        <ele>2200.1145019531</ele>
        <time>2007-08-18T08:51:14Z</time>
      </trkpt>
      <trkpt lat="44.97301" lon="6.63218">
        <ele>2202.517578125</ele>
        <time>2007-08-18T08:51:30Z</time>
      </trkpt>
      <trkpt lat="44.97296" lon="6.63246">
        <ele>2205.8823242188</ele>
        <time>2007-08-18T08:51:45Z</time>
      </trkpt>
      <trkpt lat="44.97286" lon="6.63263">
        <ele>2209.2470703125</ele>
        <time>2007-08-18T08:51:57Z</time>
      </trkpt>
      <trkpt lat="44.97275" lon="6.63295">
        <ele>2211.1696777344</ele>
        <time>2007-08-18T08:52:16Z</time>
      </trkpt>
      <trkpt lat="44.97271" lon="6.63321">
        <ele>2214.0534667969</ele>
        <time>2007-08-18T08:52:29Z</time>
      </trkpt>
      <trkpt lat="44.97266" lon="6.63357">
        <ele>2216.9375</ele>
        <time>2007-08-18T08:52:49Z</time>
      </trkpt>
      <trkpt lat="44.97264" lon="6.63394">
        <ele>2218.3793945312</ele>
        <time>2007-08-18T08:53:07Z</time>
      </trkpt>
      <trkpt lat="44.97277" lon="6.63435">
        <ele>2220.7829589844</ele>
        <time>2007-08-18T08:53:29Z</time>
      </trkpt>
      <trkpt lat="44.97279" lon="6.63439">
        <ele>2220.7829589844</ele>
        <time>2007-08-18T08:53:31Z</time>
      </trkpt>
      <trkpt lat="44.97286" lon="6.6346">
        <ele>2222.7055664062</ele>
        <time>2007-08-18T08:53:43Z</time>
      </trkpt>
      <trkpt lat="44.9729" lon="6.63456">
        <ele>2224.1474609375</ele>
        <time>2007-08-18T08:53:47Z</time>
      </trkpt>
      <trkpt lat="44.9729" lon="6.63426">
        <ele>2226.55078125</ele>
        <time>2007-08-18T08:54:01Z</time>
      </trkpt>
      <trkpt lat="44.97296" lon="6.63398">
        <ele>2229.9152832031</ele>
        <time>2007-08-18T08:54:16Z</time>
      </trkpt>
      <trkpt lat="44.97305" lon="6.63366">
        <ele>2231.837890625</ele>
        <time>2007-08-18T08:54:33Z</time>
      </trkpt>
      <trkpt lat="44.97305" lon="6.63351">
        <ele>2233.7604980469</ele>
        <time>2007-08-18T08:54:41Z</time>
      </trkpt>
      <trkpt lat="44.97309" lon="6.63338">
        <ele>2234.2412109375</ele>
        <time>2007-08-18T08:54:47Z</time>
      </trkpt>
      <trkpt lat="44.97313" lon="6.63336">
        <ele>2235.2023925781</ele>
        <time>2007-08-18T08:54:49Z</time>
      </trkpt>
      <trkpt lat="44.97318" lon="6.63351">
        <ele>2235.6831054688</ele>
        <time>2007-08-18T08:54:59Z</time>
      </trkpt>
      <trkpt lat="44.97316" lon="6.63373">
        <ele>2237.1252441406</ele>
        <time>2007-08-18T08:55:09Z</time>
      </trkpt>
      <trkpt lat="44.97324" lon="6.63403">
        <ele>2240.4897460938</ele>
        <time>2007-08-18T08:55:22Z</time>
      </trkpt>
      <trkpt lat="44.97337" lon="6.63433">
        <ele>2243.3737792969</ele>
        <time>2007-08-18T08:55:39Z</time>
      </trkpt>
      <trkpt lat="44.97344" lon="6.63445">
        <ele>2244.3349609375</ele>
        <time>2007-08-18T08:55:46Z</time>
      </trkpt>
      <trkpt lat="44.97348" lon="6.63463">
        <ele>2245.7770996094</ele>
        <time>2007-08-18T08:55:55Z</time>
      </trkpt>
      <trkpt lat="44.97354" lon="6.6346">
        <ele>2246.73828125</ele>
        <time>2007-08-18T08:56:00Z</time>
      </trkpt>
      <trkpt lat="44.97356" lon="6.63456">
        <ele>2246.73828125</ele>
        <time>2007-08-18T08:56:02Z</time>
      </trkpt>
      <trkpt lat="44.97356" lon="6.63445">
        <ele>2247.6997070312</ele>
        <time>2007-08-18T08:56:07Z</time>
      </trkpt>
      <trkpt lat="44.97361" lon="6.63415">
        <ele>2248.6608886719</ele>
        <time>2007-08-18T08:56:22Z</time>
      </trkpt>
      <trkpt lat="44.97376" lon="6.63383">
        <ele>2252.0256347656</ele>
        <time>2007-08-18T08:56:41Z</time>
      </trkpt>
      <trkpt lat="44.97389" lon="6.63355">
        <ele>2254.9096679688</ele>
        <time>2007-08-18T08:56:58Z</time>
      </trkpt>
      <trkpt lat="44.97406" lon="6.63325">
        <ele>2257.7937011719</ele>
        <time>2007-08-18T08:57:16Z</time>
      </trkpt>
      <trkpt lat="44.97414" lon="6.633">
        <ele>2259.7160644531</ele>
        <time>2007-08-18T08:57:30Z</time>
      </trkpt>
      <trkpt lat="44.97423" lon="6.63272">
        <ele>2262.6000976562</ele>
        <time>2007-08-18T08:57:45Z</time>
      </trkpt>
      <trkpt lat="44.97429" lon="6.63244">
        <ele>2265.0034179688</ele>
        <time>2007-08-18T08:57:59Z</time>
      </trkpt>
      <trkpt lat="44.97436" lon="6.63237">
        <ele>2266.9260253906</ele>
        <time>2007-08-18T08:58:04Z</time>
      </trkpt>
      <trkpt lat="44.97444" lon="6.63235">
        <ele>2267.4064941406</ele>
        <time>2007-08-18T08:58:10Z</time>
      </trkpt>
      <trkpt lat="44.97455" lon="6.63259">
        <ele>2271.251953125</ele>
        <time>2007-08-18T08:58:24Z</time>
      </trkpt>
      <trkpt lat="44.97468" lon="6.63285">
        <ele>2273.1748046875</ele>
        <time>2007-08-18T08:58:39Z</time>
      </trkpt>
      <trkpt lat="44.97481" lon="6.6331">
        <ele>2276.05859375</ele>
        <time>2007-08-18T08:58:54Z</time>
      </trkpt>
      <trkpt lat="44.97481" lon="6.6331">
        <ele>2276.05859375</ele>
        <time>2007-08-18T08:58:55Z</time>
      </trkpt>
      <trkpt lat="44.97496" lon="6.63342">
        <ele>2278.4619140625</ele>
        <time>2007-08-18T08:59:12Z</time>
      </trkpt>
      <trkpt lat="44.97511" lon="6.63368">
        <ele>2280.3845214844</ele>
        <time>2007-08-18T08:59:27Z</time>
      </trkpt>
      <trkpt lat="44.97524" lon="6.63398">
        <ele>2282.7875976562</ele>
        <time>2007-08-18T08:59:43Z</time>
      </trkpt>
      <trkpt lat="44.97537" lon="6.6343">
        <ele>2285.671875</ele>
        <time>2007-08-18T09:00:01Z</time>
      </trkpt>
      <trkpt lat="44.97547" lon="6.63465">
        <ele>2287.5944824219</ele>
        <time>2007-08-18T09:00:18Z</time>
      </trkpt>
      <trkpt lat="44.9756" lon="6.63499">
        <ele>2289.9978027344</ele>
        <time>2007-08-18T09:00:35Z</time>
      </trkpt>
      <trkpt lat="44.97571" lon="6.63536">
        <ele>2292.4011230469</ele>
        <time>2007-08-18T09:00:52Z</time>
      </trkpt>
      <trkpt lat="44.97582" lon="6.63572">
        <ele>2294.8041992188</ele>
        <time>2007-08-18T09:01:10Z</time>
      </trkpt>
      <trkpt lat="44.97592" lon="6.63598">
        <ele>2295.765625</ele>
        <time>2007-08-18T09:01:24Z</time>
      </trkpt>
      <trkpt lat="44.97599" lon="6.636">
        <ele>2297.2075195312</ele>
        <time>2007-08-18T09:01:30Z</time>
      </trkpt>
      <trkpt lat="44.97607" lon="6.636">
        <ele>2298.6494140625</ele>
        <time>2007-08-18T09:01:44Z</time>
      </trkpt>
      <trkpt lat="44.9761" lon="6.636">
        <ele>2297.6882324219</ele>
        <time>2007-08-18T09:01:58Z</time>
      </trkpt>
      <trkpt lat="44.9761" lon="6.636">
        <ele>2301.0529785156</ele>
        <time>2007-08-18T09:05:02Z</time>
      </trkpt>
      <trkpt lat="44.9761" lon="6.636">
        <ele>2300.572265625</ele>
        <time>2007-08-18T09:08:11Z</time>
      </trkpt>
      <trkpt lat="44.97607" lon="6.636">
        <ele>2303.9370117188</ele>
        <time>2007-08-18T09:09:52Z</time>
      </trkpt>
      <trkpt lat="44.97605" lon="6.636">
        <ele>2303.4562988281</ele>
        <time>2007-08-18T09:09:57Z</time>
      </trkpt>
      <trkpt lat="44.97597" lon="6.63585">
        <ele>2303.4562988281</ele>
        <time>2007-08-18T09:10:04Z</time>
      </trkpt>
      <trkpt lat="44.9759" lon="6.63538">
        <ele>2303.9370117188</ele>
        <time>2007-08-18T09:10:20Z</time>
      </trkpt>
      <trkpt lat="44.97586" lon="6.63473">
        <ele>2305.859375</ele>
        <time>2007-08-18T09:10:39Z</time>
      </trkpt>
      <trkpt lat="44.9761" lon="6.63415">
        <ele>2306.3400878906</ele>
        <time>2007-08-18T09:10:58Z</time>
      </trkpt>
      <trkpt lat="44.97655" lon="6.63368">
        <ele>2308.2626953125</ele>
        <time>2007-08-18T09:11:18Z</time>
      </trkpt>
      <trkpt lat="44.97668" lon="6.63312">
        <ele>2309.2241210938</ele>
        <time>2007-08-18T09:11:33Z</time>
      </trkpt>
      <trkpt lat="44.97648" lon="6.63252">
        <ele>2309.7045898438</ele>
        <time>2007-08-18T09:11:50Z</time>
      </trkpt>
      <trkpt lat="44.9761" lon="6.63229">
        <ele>2310.1853027344</ele>
        <time>2007-08-18T09:12:05Z</time>
      </trkpt>
      <trkpt lat="44.97573" lon="6.63192">
        <ele>2310.666015625</ele>
        <time>2007-08-18T09:12:22Z</time>
      </trkpt>
      <trkpt lat="44.97547" lon="6.63145">
        <ele>2312.1079101562</ele>
        <time>2007-08-18T09:12:38Z</time>
      </trkpt>
      <trkpt lat="44.97545" lon="6.63096">
        <ele>2312.5886230469</ele>
        <time>2007-08-18T09:12:52Z</time>
      </trkpt>
      <trkpt lat="44.97595" lon="6.6307">
        <ele>2314.5112304688</ele>
        <time>2007-08-18T09:13:09Z</time>
      </trkpt>
      <trkpt lat="44.9765" lon="6.63046">
        <ele>2316.4340820312</ele>
        <time>2007-08-18T09:13:28Z</time>
      </trkpt>
      <trkpt lat="44.97685" lon="6.62997">
        <ele>2318.8374023438</ele>
        <time>2007-08-18T09:13:45Z</time>
      </trkpt>
      <trkpt lat="44.977" lon="6.62909">
        <ele>2319.7985839844</ele>
        <time>2007-08-18T09:14:06Z</time>
      </trkpt>
      <trkpt lat="44.97672" lon="6.62862">
        <ele>2321.2404785156</ele>
        <time>2007-08-18T09:14:20Z</time>
      </trkpt>
      <trkpt lat="44.97638" lon="6.628">
        <ele>2322.2019042969</ele>
        <time>2007-08-18T09:14:40Z</time>
      </trkpt>
      <trkpt lat="44.97595" lon="6.6275">
        <ele>2324.6052246094</ele>
        <time>2007-08-18T09:14:59Z</time>
      </trkpt>
      <trkpt lat="44.9755" lon="6.62716">
        <ele>2327.4890136719</ele>
        <time>2007-08-18T09:15:16Z</time>
      </trkpt>
      <trkpt lat="44.97539" lon="6.62662">
        <ele>2328.4504394531</ele>
        <time>2007-08-18T09:15:31Z</time>
      </trkpt>
      <trkpt lat="44.97552" lon="6.62581">
        <ele>2330.373046875</ele>
        <time>2007-08-18T09:15:52Z</time>
      </trkpt>
      <trkpt lat="44.97573" lon="6.6251">
        <ele>2332.2958984375</ele>
        <time>2007-08-18T09:16:11Z</time>
      </trkpt>
      <trkpt lat="44.97584" lon="6.62446">
        <ele>2334.69921875</ele>
        <time>2007-08-18T09:16:27Z</time>
      </trkpt>
      <trkpt lat="44.97597" lon="6.624">
        <ele>2336.1411132812</ele>
        <time>2007-08-18T09:16:40Z</time>
      </trkpt>
      <trkpt lat="44.97622" lon="6.62336">
        <ele>2336.6215820312</ele>
        <time>2007-08-18T09:16:58Z</time>
      </trkpt>
      <trkpt lat="44.97629" lon="6.62285">
        <ele>2337.5830078125</ele>
        <time>2007-08-18T09:17:12Z</time>
      </trkpt>
      <trkpt lat="44.97676" lon="6.62242">
        <ele>2340.9475097656</ele>
        <time>2007-08-18T09:17:30Z</time>
      </trkpt>
      <trkpt lat="44.97693" lon="6.62197">
        <ele>2341.4282226562</ele>
        <time>2007-08-18T09:17:42Z</time>
      </trkpt>
      <trkpt lat="44.9767" lon="6.62156">
        <ele>2343.3508300781</ele>
        <time>2007-08-18T09:17:54Z</time>
      </trkpt>
      <trkpt lat="44.97665" lon="6.62104">
        <ele>2345.2734375</ele>
        <time>2007-08-18T09:18:07Z</time>
      </trkpt>
      <trkpt lat="44.97691" lon="6.62057">
        <ele>2347.1960449219</ele>
        <time>2007-08-18T09:18:21Z</time>
      </trkpt>
      <trkpt lat="44.97713" lon="6.61993">
        <ele>2349.1188964844</ele>
        <time>2007-08-18T09:18:37Z</time>
      </trkpt>
      <trkpt lat="44.97685" lon="6.61948">
        <ele>2351.0415039062</ele>
        <time>2007-08-18T09:18:50Z</time>
      </trkpt>
      <trkpt lat="44.97642" lon="6.61935">
        <ele>2352.4833984375</ele>
        <time>2007-08-18T09:19:04Z</time>
      </trkpt>
      <trkpt lat="44.97607" lon="6.61931">
        <ele>2352.4833984375</ele>
        <time>2007-08-18T09:19:16Z</time>
      </trkpt>
      <trkpt lat="44.97565" lon="6.61851">
        <ele>2355.3674316406</ele>
        <time>2007-08-18T09:19:39Z</time>
      </trkpt>
      <trkpt lat="44.97524" lon="6.61815">
        <ele>2357.7707519531</ele>
        <time>2007-08-18T09:19:55Z</time>
      </trkpt>
      <trkpt lat="44.97474" lon="6.61795">
        <ele>2358.2512207031</ele>
        <time>2007-08-18T09:20:13Z</time>
      </trkpt>
      <trkpt lat="44.97432" lon="6.61757">
        <ele>2360.6545410156</ele>
        <time>2007-08-18T09:20:30Z</time>
      </trkpt>
      <trkpt lat="44.97416" lon="6.61682">
        <ele>2362.5771484375</ele>
        <time>2007-08-18T09:20:49Z</time>
      </trkpt>
      <trkpt lat="44.97423" lon="6.61589">
        <ele>2364.5</ele>
        <time>2007-08-18T09:21:09Z</time>
      </trkpt>
      <trkpt lat="44.97412" lon="6.61493">
        <ele>2366.9033203125</ele>
        <time>2007-08-18T09:21:28Z</time>
      </trkpt>
      <trkpt lat="44.97386" lon="6.61394">
        <ele>2366.9033203125</ele>
        <time>2007-08-18T09:21:49Z</time>
      </trkpt>
      <trkpt lat="44.97393" lon="6.61319">
        <ele>2368.8259277344</ele>
        <time>2007-08-18T09:22:04Z</time>
      </trkpt>
      <trkpt lat="44.97421" lon="6.61222">
        <ele>2370.7485351562</ele>
        <time>2007-08-18T09:22:23Z</time>
      </trkpt>
      <trkpt lat="44.97444" lon="6.61147">
        <ele>2372.1904296875</ele>
        <time>2007-08-18T09:22:39Z</time>
      </trkpt>
      <trkpt lat="44.97429" lon="6.61087">
        <ele>2373.1518554688</ele>
        <time>2007-08-18T09:22:51Z</time>
      </trkpt>
      <trkpt lat="44.97382" lon="6.6104">
        <ele>2374.59375</ele>
        <time>2007-08-18T09:23:06Z</time>
      </trkpt>
      <trkpt lat="44.97333" lon="6.61008">
        <ele>2376.9970703125</ele>
        <time>2007-08-18T09:23:20Z</time>
      </trkpt>
      <trkpt lat="44.97281" lon="6.60993">
        <ele>2377.4775390625</ele>
        <time>2007-08-18T09:23:34Z</time>
      </trkpt>
      <trkpt lat="44.97271" lon="6.60974">
        <ele>2377.9582519531</ele>
        <time>2007-08-18T09:23:39Z</time>
      </trkpt>
      <trkpt lat="44.9723" lon="6.60948">
        <ele>2378.4389648438</ele>
        <time>2007-08-18T09:23:51Z</time>
      </trkpt>
      <trkpt lat="44.97221" lon="6.60948">
        <ele>2378.4389648438</ele>
        <time>2007-08-18T09:23:53Z</time>
      </trkpt>
      <trkpt lat="44.97178" lon="6.60948">
        <ele>2380.3618164062</ele>
        <time>2007-08-18T09:24:04Z</time>
      </trkpt>
      <trkpt lat="44.97108" lon="6.60969">
        <ele>2381.3229980469</ele>
        <time>2007-08-18T09:24:23Z</time>
      </trkpt>
      <trkpt lat="44.97045" lon="6.60976">
        <ele>2383.2456054688</ele>
        <time>2007-08-18T09:24:40Z</time>
      </trkpt>
      <trkpt lat="44.97035" lon="6.60967">
        <ele>2382.7648925781</ele>
        <time>2007-08-18T09:24:43Z</time>
      </trkpt>
      <trkpt lat="44.97009" lon="6.60898">
        <ele>2384.20703125</ele>
        <time>2007-08-18T09:24:58Z</time>
      </trkpt>
      <trkpt lat="44.97007" lon="6.60881">
        <ele>2385.6489257812</ele>
        <time>2007-08-18T09:25:01Z</time>
      </trkpt>
      <trkpt lat="44.97005" lon="6.60871">
        <ele>2386.1296386719</ele>
        <time>2007-08-18T09:25:03Z</time>
      </trkpt>
      <trkpt lat="44.9697" lon="6.60813">
        <ele>2385.6489257812</ele>
        <time>2007-08-18T09:25:18Z</time>
      </trkpt>
      <trkpt lat="44.96927" lon="6.60783">
        <ele>2387.5715332031</ele>
        <time>2007-08-18T09:25:33Z</time>
      </trkpt>
      <trkpt lat="44.96874" lon="6.60763">
        <ele>2387.5715332031</ele>
        <time>2007-08-18T09:25:49Z</time>
      </trkpt>
      <trkpt lat="44.96814" lon="6.60755">
        <ele>2389.494140625</ele>
        <time>2007-08-18T09:26:07Z</time>
      </trkpt>
      <trkpt lat="44.96771" lon="6.60761">
        <ele>2391.4167480469</ele>
        <time>2007-08-18T09:26:21Z</time>
      </trkpt>
      <trkpt lat="44.9673" lon="6.60808">
        <ele>2391.8974609375</ele>
        <time>2007-08-18T09:26:37Z</time>
      </trkpt>
      <trkpt lat="44.96687" lon="6.60858">
        <ele>2393.8200683594</ele>
        <time>2007-08-18T09:26:54Z</time>
      </trkpt>
      <trkpt lat="44.9665" lon="6.6092">
        <ele>2394.3005371094</ele>
        <time>2007-08-18T09:27:09Z</time>
      </trkpt>
      <trkpt lat="44.96612" lon="6.60971">
        <ele>2394.78125</ele>
        <time>2007-08-18T09:27:24Z</time>
      </trkpt>
      <trkpt lat="44.96556" lon="6.61014">
        <ele>2396.7041015625</ele>
        <time>2007-08-18T09:27:42Z</time>
      </trkpt>
      <trkpt lat="44.96483" lon="6.61036">
        <ele>2398.6267089844</ele>
        <time>2007-08-18T09:28:03Z</time>
      </trkpt>
      <trkpt lat="44.96425" lon="6.61079">
        <ele>2400.5493164062</ele>
        <time>2007-08-18T09:28:22Z</time>
      </trkpt>
      <trkpt lat="44.96374" lon="6.61117">
        <ele>2401.0300292969</ele>
        <time>2007-08-18T09:28:40Z</time>
      </trkpt>
      <trkpt lat="44.96322" lon="6.61115">
        <ele>2402.9526367188</ele>
        <time>2007-08-18T09:28:57Z</time>
      </trkpt>
      <trkpt lat="44.96266" lon="6.61087">
        <ele>2403.9140625</ele>
        <time>2007-08-18T09:29:16Z</time>
      </trkpt>
      <trkpt lat="44.96256" lon="6.61083">
        <ele>2403.4333496094</ele>
        <time>2007-08-18T09:29:19Z</time>
      </trkpt>
      <trkpt lat="44.96213" lon="6.6107">
        <ele>2401.9912109375</ele>
        <time>2007-08-18T09:29:32Z</time>
      </trkpt>
      <trkpt lat="44.96172" lon="6.61064">
        <ele>2401.5107421875</ele>
        <time>2007-08-18T09:29:44Z</time>
      </trkpt>
      <trkpt lat="44.96129" lon="6.61083">
        <ele>2401.9912109375</ele>
        <time>2007-08-18T09:29:57Z</time>
      </trkpt>
      <trkpt lat="44.96123" lon="6.61152">
        <ele>2406.3171386719</ele>
        <time>2007-08-18T09:30:11Z</time>
      </trkpt>
      <trkpt lat="44.96125" lon="6.61156">
        <ele>2405.3559570312</ele>
        <time>2007-08-18T09:30:13Z</time>
      </trkpt>
      <trkpt lat="44.96133" lon="6.61162">
        <ele>2407.2785644531</ele>
        <time>2007-08-18T09:30:17Z</time>
      </trkpt>
      <trkpt lat="44.96138" lon="6.61162">
        <ele>2408.2397460938</ele>
        <time>2007-08-18T09:30:19Z</time>
      </trkpt>
      <trkpt lat="44.96178" lon="6.61156">
        <ele>2410.1623535156</ele>
        <time>2007-08-18T09:30:34Z</time>
      </trkpt>
      <trkpt lat="44.96202" lon="6.61147">
        <ele>2410.1623535156</ele>
        <time>2007-08-18T09:30:49Z</time>
      </trkpt>
      <trkpt lat="44.96204" lon="6.61147">
        <ele>2410.1623535156</ele>
        <time>2007-08-18T09:30:50Z</time>
      </trkpt>
      <trkpt lat="44.96223" lon="6.61137">
        <ele>2412.5659179688</ele>
        <time>2007-08-18T09:31:05Z</time>
      </trkpt>
      <trkpt lat="44.96226" lon="6.61137">
        <ele>2413.0466308594</ele>
        <time>2007-08-18T09:31:07Z</time>
      </trkpt>
      <trkpt lat="44.96228" lon="6.61128">
        <ele>2413.5270996094</ele>
        <time>2007-08-18T09:31:20Z</time>
      </trkpt>
      <trkpt lat="44.96228" lon="6.61126">
        <ele>2413.0466308594</ele>
        <time>2007-08-18T09:32:12Z</time>
      </trkpt>
      <trkpt lat="44.96226" lon="6.61126">
        <ele>2416.4111328125</ele>
        <time>2007-08-18T09:35:54Z</time>
      </trkpt>
      <trkpt lat="44.96228" lon="6.6113">
        <ele>2414.9692382812</ele>
        <time>2007-08-18T09:45:49Z</time>
      </trkpt>
      <trkpt lat="44.9623" lon="6.6113">
        <ele>2415.9304199219</ele>
        <time>2007-08-18T09:45:57Z</time>
      </trkpt>
      <trkpt lat="44.96249" lon="6.61117">
        <ele>2412.0852050781</ele>
        <time>2007-08-18T09:46:05Z</time>
      </trkpt>
      <trkpt lat="44.96256" lon="6.61115">
        <ele>2411.1237792969</ele>
        <time>2007-08-18T09:46:07Z</time>
      </trkpt>
      <trkpt lat="44.9626" lon="6.61115">
        <ele>2410.6430664062</ele>
        <time>2007-08-18T09:46:09Z</time>
      </trkpt>
      <trkpt lat="44.96275" lon="6.61102">
        <ele>2407.2785644531</ele>
        <time>2007-08-18T09:46:16Z</time>
      </trkpt>
      <trkpt lat="44.96269" lon="6.61089">
        <ele>2407.2785644531</ele>
        <time>2007-08-18T09:46:20Z</time>
      </trkpt>
      <trkpt lat="44.96247" lon="6.61066">
        <ele>2406.3171386719</ele>
        <time>2007-08-18T09:46:29Z</time>
      </trkpt>
      <trkpt lat="44.96238" lon="6.61044">
        <ele>2404.39453125</ele>
        <time>2007-08-18T09:46:34Z</time>
      </trkpt>
      <trkpt lat="44.96241" lon="6.61038">
        <ele>2402.9526367188</ele>
        <time>2007-08-18T09:46:46Z</time>
      </trkpt>
      <trkpt lat="44.96241" lon="6.61036">
        <ele>2402.9526367188</ele>
        <time>2007-08-18T09:46:50Z</time>
      </trkpt>
      <trkpt lat="44.96262" lon="6.61006">
        <ele>2404.39453125</ele>
        <time>2007-08-18T09:47:05Z</time>
      </trkpt>
      <trkpt lat="44.96266" lon="6.61004">
        <ele>2405.3559570312</ele>
        <time>2007-08-18T09:47:07Z</time>
      </trkpt>
      <trkpt lat="44.96305" lon="6.6101">
        <ele>2405.8364257812</ele>
        <time>2007-08-18T09:47:22Z</time>
      </trkpt>
      <trkpt lat="44.96337" lon="6.60995">
        <ele>2407.2785644531</ele>
        <time>2007-08-18T09:47:35Z</time>
      </trkpt>
      <trkpt lat="44.96367" lon="6.60982">
        <ele>2408.2397460938</ele>
        <time>2007-08-18T09:47:47Z</time>
      </trkpt>
      <trkpt lat="44.96391" lon="6.60954">
        <ele>2409.681640625</ele>
        <time>2007-08-18T09:48:00Z</time>
      </trkpt>
      <trkpt lat="44.96406" lon="6.60911">
        <ele>2411.1237792969</ele>
        <time>2007-08-18T09:48:14Z</time>
      </trkpt>
      <trkpt lat="44.96408" lon="6.6086">
        <ele>2410.6430664062</ele>
        <time>2007-08-18T09:48:28Z</time>
      </trkpt>
      <trkpt lat="44.96402" lon="6.60817">
        <ele>2411.1237792969</ele>
        <time>2007-08-18T09:48:39Z</time>
      </trkpt>
      <trkpt lat="44.96423" lon="6.60787">
        <ele>2412.0852050781</ele>
        <time>2007-08-18T09:48:51Z</time>
      </trkpt>
      <trkpt lat="44.96449" lon="6.60753">
        <ele>2414.4885253906</ele>
        <time>2007-08-18T09:49:07Z</time>
      </trkpt>
      <trkpt lat="44.96449" lon="6.6075">
        <ele>2414.0078125</ele>
        <time>2007-08-18T09:49:08Z</time>
      </trkpt>
      <trkpt lat="44.9644" lon="6.6072">
        <ele>2415.9304199219</ele>
        <time>2007-08-18T09:49:20Z</time>
      </trkpt>
      <trkpt lat="44.96438" lon="6.60707">
        <ele>2416.4111328125</ele>
        <time>2007-08-18T09:49:24Z</time>
      </trkpt>
      <trkpt lat="44.96449" lon="6.60641">
        <ele>2416.4111328125</ele>
        <time>2007-08-18T09:49:43Z</time>
      </trkpt>
      <trkpt lat="44.96481" lon="6.60604">
        <ele>2415.9304199219</ele>
        <time>2007-08-18T09:49:57Z</time>
      </trkpt>
      <trkpt lat="44.96507" lon="6.60555">
        <ele>2415.9304199219</ele>
        <time>2007-08-18T09:50:12Z</time>
      </trkpt>
      <trkpt lat="44.9653" lon="6.60508">
        <ele>2417.3723144531</ele>
        <time>2007-08-18T09:50:28Z</time>
      </trkpt>
      <trkpt lat="44.96558" lon="6.60456">
        <ele>2417.8530273438</ele>
        <time>2007-08-18T09:50:45Z</time>
      </trkpt>
      <trkpt lat="44.96595" lon="6.60396">
        <ele>2418.814453125</ele>
        <time>2007-08-18T09:51:03Z</time>
      </trkpt>
      <trkpt lat="44.96623" lon="6.60347">
        <ele>2421.2175292969</ele>
        <time>2007-08-18T09:51:19Z</time>
      </trkpt>
      <trkpt lat="44.96659" lon="6.60302">
        <ele>2422.6596679688</ele>
        <time>2007-08-18T09:51:37Z</time>
      </trkpt>
      <trkpt lat="44.96668" lon="6.60246">
        <ele>2424.5822753906</ele>
        <time>2007-08-18T09:51:53Z</time>
      </trkpt>
      <trkpt lat="44.9668" lon="6.60201">
        <ele>2426.0241699219</ele>
        <time>2007-08-18T09:52:10Z</time>
      </trkpt>
      <trkpt lat="44.96702" lon="6.60165">
        <ele>2428.427734375</ele>
        <time>2007-08-18T09:52:27Z</time>
      </trkpt>
      <trkpt lat="44.96726" lon="6.60137">
        <ele>2430.8310546875</ele>
        <time>2007-08-18T09:52:44Z</time>
      </trkpt>
      <trkpt lat="44.96741" lon="6.601">
        <ele>2433.2341308594</ele>
        <time>2007-08-18T09:53:02Z</time>
      </trkpt>
      <trkpt lat="44.96758" lon="6.6007">
        <ele>2435.1567382812</ele>
        <time>2007-08-18T09:53:17Z</time>
      </trkpt>
      <trkpt lat="44.9679" lon="6.60057">
        <ele>2435.6374511719</ele>
        <time>2007-08-18T09:53:32Z</time>
      </trkpt>
      <trkpt lat="44.96824" lon="6.60029">
        <ele>2437.5600585938</ele>
        <time>2007-08-18T09:53:51Z</time>
      </trkpt>
      <trkpt lat="44.96826" lon="6.60027">
        <ele>2438.521484375</ele>
        <time>2007-08-18T09:53:53Z</time>
      </trkpt>
      <trkpt lat="44.96848" lon="6.60004">
        <ele>2439.4826660156</ele>
        <time>2007-08-18T09:54:07Z</time>
      </trkpt>
      <trkpt lat="44.96848" lon="6.59991">
        <ele>2439.9633789062</ele>
        <time>2007-08-18T09:54:12Z</time>
      </trkpt>
      <trkpt lat="44.96848" lon="6.59963">
        <ele>2441.8859863281</ele>
        <time>2007-08-18T09:54:23Z</time>
      </trkpt>
      <trkpt lat="44.96852" lon="6.59937">
        <ele>2443.3278808594</ele>
        <time>2007-08-18T09:54:34Z</time>
      </trkpt>
      <trkpt lat="44.96854" lon="6.59926">
        <ele>2444.2893066406</ele>
        <time>2007-08-18T09:54:40Z</time>
      </trkpt>
      <trkpt lat="44.96863" lon="6.59916">
        <ele>2445.2507324219</ele>
        <time>2007-08-18T09:54:48Z</time>
      </trkpt>
      <trkpt lat="44.96889" lon="6.59899">
        <ele>2448.615234375</ele>
        <time>2007-08-18T09:55:05Z</time>
      </trkpt>
      <trkpt lat="44.96904" lon="6.59886">
        <ele>2450.0573730469</ele>
        <time>2007-08-18T09:55:18Z</time>
      </trkpt>
      <trkpt lat="44.96906" lon="6.59873">
        <ele>2450.5378417969</ele>
        <time>2007-08-18T09:55:24Z</time>
      </trkpt>
      <trkpt lat="44.96908" lon="6.59856">
        <ele>2451.0185546875</ele>
        <time>2007-08-18T09:55:30Z</time>
      </trkpt>
      <trkpt lat="44.96917" lon="6.59849">
        <ele>2451.4992675781</ele>
        <time>2007-08-18T09:55:35Z</time>
      </trkpt>
      <trkpt lat="44.96947" lon="6.59851">
        <ele>2454.8637695312</ele>
        <time>2007-08-18T09:55:53Z</time>
      </trkpt>
      <trkpt lat="44.96977" lon="6.59858">
        <ele>2457.7478027344</ele>
        <time>2007-08-18T09:56:11Z</time>
      </trkpt>
      <trkpt lat="44.97002" lon="6.59862">
        <ele>2460.6318359375</ele>
        <time>2007-08-18T09:56:27Z</time>
      </trkpt>
      <trkpt lat="44.97037" lon="6.59862">
        <ele>2463.9963378906</ele>
        <time>2007-08-18T09:56:46Z</time>
      </trkpt>
      <trkpt lat="44.97065" lon="6.59862">
        <ele>2466.3996582031</ele>
        <time>2007-08-18T09:57:01Z</time>
      </trkpt>
      <trkpt lat="44.97099" lon="6.59858">
        <ele>2468.8029785156</ele>
        <time>2007-08-18T09:57:19Z</time>
      </trkpt>
      <trkpt lat="44.97131" lon="6.59858">
        <ele>2471.6867675781</ele>
        <time>2007-08-18T09:57:37Z</time>
      </trkpt>
      <trkpt lat="44.97153" lon="6.5986">
        <ele>2473.12890625</ele>
        <time>2007-08-18T09:57:49Z</time>
      </trkpt>
      <trkpt lat="44.97178" lon="6.59862">
        <ele>2474.5708007812</ele>
        <time>2007-08-18T09:58:04Z</time>
      </trkpt>
      <trkpt lat="44.97195" lon="6.59862">
        <ele>2476.0129394531</ele>
        <time>2007-08-18T09:58:15Z</time>
      </trkpt>
      <trkpt lat="44.97226" lon="6.59858">
        <ele>2478.4162597656</ele>
        <time>2007-08-18T09:58:32Z</time>
      </trkpt>
      <trkpt lat="44.97251" lon="6.5986">
        <ele>2480.8195800781</ele>
        <time>2007-08-18T09:58:47Z</time>
      </trkpt>
      <trkpt lat="44.97281" lon="6.59864">
        <ele>2481.3000488281</ele>
        <time>2007-08-18T09:59:05Z</time>
      </trkpt>
      <trkpt lat="44.97311" lon="6.59868">
        <ele>2484.1840820312</ele>
        <time>2007-08-18T09:59:22Z</time>
      </trkpt>
      <trkpt lat="44.97346" lon="6.59856">
        <ele>2486.5871582031</ele>
        <time>2007-08-18T09:59:40Z</time>
      </trkpt>
      <trkpt lat="44.97352" lon="6.59851">
        <ele>2487.0678710938</ele>
        <time>2007-08-18T09:59:44Z</time>
      </trkpt>
      <trkpt lat="44.97374" lon="6.59838">
        <ele>2488.029296875</ele>
        <time>2007-08-18T09:59:58Z</time>
      </trkpt>
      <trkpt lat="44.97406" lon="6.59821">
        <ele>2490.4323730469</ele>
        <time>2007-08-18T10:00:16Z</time>
      </trkpt>
      <trkpt lat="44.97416" lon="6.59817">
        <ele>2491.8745117188</ele>
        <time>2007-08-18T10:00:22Z</time>
      </trkpt>
      <trkpt lat="44.97421" lon="6.59808">
        <ele>2491.8745117188</ele>
        <time>2007-08-18T10:00:26Z</time>
      </trkpt>
      <trkpt lat="44.97425" lon="6.59796">
        <ele>2491.8745117188</ele>
        <time>2007-08-18T10:00:42Z</time>
      </trkpt>
      <trkpt lat="44.97425" lon="6.59793">
        <ele>2492.35546875</ele>
        <time>2007-08-18T10:01:10Z</time>
      </trkpt>
      <trkpt lat="44.97436" lon="6.59757">
        <ele>2489.9519042969</ele>
        <time>2007-08-18T10:01:24Z</time>
      </trkpt>
      <trkpt lat="44.97442" lon="6.59695">
        <ele>2488.5100097656</ele>
        <time>2007-08-18T10:01:38Z</time>
      </trkpt>
      <trkpt lat="44.97427" lon="6.59613">
        <ele>2485.1452636719</ele>
        <time>2007-08-18T10:01:50Z</time>
      </trkpt>
      <trkpt lat="44.97419" lon="6.59568">
        <ele>2483.22265625</ele>
        <time>2007-08-18T10:01:56Z</time>
      </trkpt>
      <trkpt lat="44.97434" lon="6.59532">
        <ele>2482.2614746094</ele>
        <time>2007-08-18T10:02:02Z</time>
      </trkpt>
      <trkpt lat="44.97451" lon="6.59493">
        <ele>2482.2614746094</ele>
        <time>2007-08-18T10:02:08Z</time>
      </trkpt>
      <trkpt lat="44.97459" lon="6.59461">
        <ele>2481.3000488281</ele>
        <time>2007-08-18T10:02:13Z</time>
      </trkpt>
      <trkpt lat="44.97485" lon="6.59341">
        <ele>2477.935546875</ele>
        <time>2007-08-18T10:02:31Z</time>
      </trkpt>
      <trkpt lat="44.97498" lon="6.59278">
        <ele>2477.4548339844</ele>
        <time>2007-08-18T10:02:41Z</time>
      </trkpt>
      <trkpt lat="44.97507" lon="6.59229">
        <ele>2476.9743652344</ele>
        <time>2007-08-18T10:02:54Z</time>
      </trkpt>
      <trkpt lat="44.97535" lon="6.59184">
        <ele>2474.5708007812</ele>
        <time>2007-08-18T10:03:08Z</time>
      </trkpt>
      <trkpt lat="44.97577" lon="6.59143">
        <ele>2473.609375</ele>
        <time>2007-08-18T10:03:24Z</time>
      </trkpt>
      <trkpt lat="44.97607" lon="6.59141">
        <ele>2473.609375</ele>
        <time>2007-08-18T10:03:32Z</time>
      </trkpt>
      <trkpt lat="44.97618" lon="6.59137">
        <ele>2473.12890625</ele>
        <time>2007-08-18T10:03:35Z</time>
      </trkpt>
      <trkpt lat="44.9764" lon="6.59128">
        <ele>2473.12890625</ele>
        <time>2007-08-18T10:03:40Z</time>
      </trkpt>
      <trkpt lat="44.9768" lon="6.59083">
        <ele>2472.6481933594</ele>
        <time>2007-08-18T10:03:54Z</time>
      </trkpt>
      <trkpt lat="44.97717" lon="6.59021">
        <ele>2472.1674804688</ele>
        <time>2007-08-18T10:04:08Z</time>
      </trkpt>
      <trkpt lat="44.97734" lon="6.59004">
        <ele>2472.1674804688</ele>
        <time>2007-08-18T10:04:14Z</time>
      </trkpt>
      <trkpt lat="44.97813" lon="6.58984">
        <ele>2469.2836914062</ele>
        <time>2007-08-18T10:04:33Z</time>
      </trkpt>
      <trkpt lat="44.97854" lon="6.58974">
        <ele>2469.7641601562</ele>
        <time>2007-08-18T10:04:45Z</time>
      </trkpt>
      <trkpt lat="44.97919" lon="6.58989">
        <ele>2467.3608398438</ele>
        <time>2007-08-18T10:05:02Z</time>
      </trkpt>
      <trkpt lat="44.97934" lon="6.58987">
        <ele>2466.8803710938</ele>
        <time>2007-08-18T10:05:06Z</time>
      </trkpt>
      <trkpt lat="44.97949" lon="6.58976">
        <ele>2464.4770507812</ele>
        <time>2007-08-18T10:05:10Z</time>
      </trkpt>
      <trkpt lat="44.97966" lon="6.58961">
        <ele>2463.9963378906</ele>
        <time>2007-08-18T10:05:14Z</time>
      </trkpt>
      <trkpt lat="44.98022" lon="6.58942">
        <ele>2464.4770507812</ele>
        <time>2007-08-18T10:05:29Z</time>
      </trkpt>
      <trkpt lat="44.9806" lon="6.58916">
        <ele>2465.9189453125</ele>
        <time>2007-08-18T10:05:43Z</time>
      </trkpt>
      <trkpt lat="44.98097" lon="6.58888">
        <ele>2468.322265625</ele>
        <time>2007-08-18T10:05:59Z</time>
      </trkpt>
      <trkpt lat="44.98135" lon="6.58854">
        <ele>2470.2448730469</ele>
        <time>2007-08-18T10:06:19Z</time>
      </trkpt>
      <trkpt lat="44.98148" lon="6.58832">
        <ele>2471.6867675781</ele>
        <time>2007-08-18T10:06:33Z</time>
      </trkpt>
      <trkpt lat="44.98152" lon="6.58828">
        <ele>2471.6867675781</ele>
        <time>2007-08-18T10:06:48Z</time>
      </trkpt>
      <trkpt lat="44.98155" lon="6.58823">
        <ele>2471.2060546875</ele>
        <time>2007-08-18T10:07:54Z</time>
      </trkpt>
      <trkpt lat="44.98155" lon="6.58821">
        <ele>2473.12890625</ele>
        <time>2007-08-18T10:07:57Z</time>
      </trkpt>
      <trkpt lat="44.98161" lon="6.58815">
        <ele>2476.0129394531</ele>
        <time>2007-08-18T10:08:06Z</time>
      </trkpt>
      <trkpt lat="44.9817" lon="6.58802">
        <ele>2479.3774414062</ele>
        <time>2007-08-18T10:08:21Z</time>
      </trkpt>
      <trkpt lat="44.98172" lon="6.58791">
        <ele>2481.7807617188</ele>
        <time>2007-08-18T10:08:29Z</time>
      </trkpt>
      <trkpt lat="44.9818" lon="6.58787">
        <ele>2485.1452636719</ele>
        <time>2007-08-18T10:08:43Z</time>
      </trkpt>
      <trkpt lat="44.98187" lon="6.58785">
        <ele>2488.029296875</ele>
        <time>2007-08-18T10:08:57Z</time>
      </trkpt>
      <trkpt lat="44.98187" lon="6.58785">
        <ele>2488.9904785156</ele>
        <time>2007-08-18T10:08:59Z</time>
      </trkpt>
      <trkpt lat="44.98195" lon="6.58785">
        <ele>2490.4323730469</ele>
        <time>2007-08-18T10:09:14Z</time>
      </trkpt>
      <trkpt lat="44.98195" lon="6.58787">
        <ele>2489.9519042969</ele>
        <time>2007-08-18T10:09:31Z</time>
      </trkpt>
      <trkpt lat="44.98195" lon="6.58789">
        <ele>2489.9519042969</ele>
        <time>2007-08-18T10:09:49Z</time>
      </trkpt>
      <trkpt lat="44.98195" lon="6.58789">
        <ele>2490.4323730469</ele>
        <time>2007-08-18T10:11:47Z</time>
      </trkpt>
      <trkpt lat="44.98195" lon="6.58789">
        <ele>2490.9130859375</ele>
        <time>2007-08-18T10:15:19Z</time>
      </trkpt>
      <trkpt lat="44.98193" lon="6.58787">
        <ele>2489.4711914062</ele>
        <time>2007-08-18T10:21:19Z</time>
      </trkpt>
      <trkpt lat="44.98191" lon="6.58787">
        <ele>2489.9519042969</ele>
        <time>2007-08-18T10:21:27Z</time>
      </trkpt>
      <trkpt lat="44.98187" lon="6.58787">
        <ele>2488.9904785156</ele>
        <time>2007-08-18T10:21:30Z</time>
      </trkpt>
      <trkpt lat="44.98183" lon="6.58789">
        <ele>2487.0678710938</ele>
        <time>2007-08-18T10:21:36Z</time>
      </trkpt>
      <trkpt lat="44.98174" lon="6.58791">
        <ele>2484.6647949219</ele>
        <time>2007-08-18T10:21:48Z</time>
      </trkpt>
      <trkpt lat="44.98172" lon="6.58793">
        <ele>2484.1840820312</ele>
        <time>2007-08-18T10:21:51Z</time>
      </trkpt>
      <trkpt lat="44.98165" lon="6.58808">
        <ele>2480.8195800781</ele>
        <time>2007-08-18T10:21:59Z</time>
      </trkpt>
      <trkpt lat="44.98159" lon="6.58813">
        <ele>2478.4162597656</ele>
        <time>2007-08-18T10:22:10Z</time>
      </trkpt>
      <trkpt lat="44.98152" lon="6.58819">
        <ele>2474.0900878906</ele>
        <time>2007-08-18T10:22:21Z</time>
      </trkpt>
      <trkpt lat="44.9815" lon="6.58826">
        <ele>2473.12890625</ele>
        <time>2007-08-18T10:22:25Z</time>
      </trkpt>
      <trkpt lat="44.98146" lon="6.58828">
        <ele>2471.2060546875</ele>
        <time>2007-08-18T10:22:41Z</time>
      </trkpt>
      <trkpt lat="44.98146" lon="6.58826">
        <ele>2471.6867675781</ele>
        <time>2007-08-18T10:22:50Z</time>
      </trkpt>
      <trkpt lat="44.98144" lon="6.58823">
        <ele>2472.6481933594</ele>
        <time>2007-08-18T10:22:52Z</time>
      </trkpt>
      <trkpt lat="44.98146" lon="6.58815">
        <ele>2469.7641601562</ele>
        <time>2007-08-18T10:22:59Z</time>
      </trkpt>
      <trkpt lat="44.98146" lon="6.58813">
        <ele>2469.7641601562</ele>
        <time>2007-08-18T10:23:01Z</time>
      </trkpt>
      <trkpt lat="44.98146" lon="6.58804">
        <ele>2467.8415527344</ele>
        <time>2007-08-18T10:23:06Z</time>
      </trkpt>
      <trkpt lat="44.98135" lon="6.58806">
        <ele>2464.4770507812</ele>
        <time>2007-08-18T10:23:19Z</time>
      </trkpt>
      <trkpt lat="44.98135" lon="6.58808">
        <ele>2463.515625</ele>
        <time>2007-08-18T10:23:31Z</time>
      </trkpt>
      <trkpt lat="44.98129" lon="6.58806">
        <ele>2459.6701660156</ele>
        <time>2007-08-18T10:23:55Z</time>
      </trkpt>
      <trkpt lat="44.98122" lon="6.58811">
        <ele>2455.3444824219</ele>
        <time>2007-08-18T10:24:07Z</time>
      </trkpt>
      <trkpt lat="44.98118" lon="6.58817">
        <ele>2453.421875</ele>
        <time>2007-08-18T10:24:13Z</time>
      </trkpt>
      <trkpt lat="44.98107" lon="6.58828">
        <ele>2452.4604492188</ele>
        <time>2007-08-18T10:24:27Z</time>
      </trkpt>
      <trkpt lat="44.98105" lon="6.58832">
        <ele>2451.4992675781</ele>
        <time>2007-08-18T10:25:05Z</time>
      </trkpt>
      <trkpt lat="44.98086" lon="6.58834">
        <ele>2449.0959472656</ele>
        <time>2007-08-18T10:25:15Z</time>
      </trkpt>
      <trkpt lat="44.98082" lon="6.58834">
        <ele>2448.1345214844</ele>
        <time>2007-08-18T10:25:16Z</time>
      </trkpt>
      <trkpt lat="44.98073" lon="6.58832">
        <ele>2446.2121582031</ele>
        <time>2007-08-18T10:25:19Z</time>
      </trkpt>
      <trkpt lat="44.98058" lon="6.58826">
        <ele>2441.4052734375</ele>
        <time>2007-08-18T10:25:24Z</time>
      </trkpt>
      <trkpt lat="44.98052" lon="6.58823">
        <ele>2439.9633789062</ele>
        <time>2007-08-18T10:25:26Z</time>
      </trkpt>
      <trkpt lat="44.98032" lon="6.58821">
        <ele>2437.5600585938</ele>
        <time>2007-08-18T10:25:32Z</time>
      </trkpt>
      <trkpt lat="44.98022" lon="6.58821">
        <ele>2434.6762695312</ele>
        <time>2007-08-18T10:25:35Z</time>
      </trkpt>
      <trkpt lat="44.98007" lon="6.58815">
        <ele>2432.2729492188</ele>
        <time>2007-08-18T10:25:39Z</time>
      </trkpt>
      <trkpt lat="44.98002" lon="6.58806">
        <ele>2430.8310546875</ele>
        <time>2007-08-18T10:25:42Z</time>
      </trkpt>
      <trkpt lat="44.97989" lon="6.58789">
        <ele>2427.9467773438</ele>
        <time>2007-08-18T10:25:48Z</time>
      </trkpt>
      <trkpt lat="44.97985" lon="6.58781">
        <ele>2424.5822753906</ele>
        <time>2007-08-18T10:25:51Z</time>
      </trkpt>
      <trkpt lat="44.97979" lon="6.58778">
        <ele>2423.1403808594</ele>
        <time>2007-08-18T10:25:54Z</time>
      </trkpt>
      <trkpt lat="44.97974" lon="6.58778">
        <ele>2421.6982421875</ele>
        <time>2007-08-18T10:25:56Z</time>
      </trkpt>
      <trkpt lat="44.97964" lon="6.58774">
        <ele>2418.814453125</ele>
        <time>2007-08-18T10:26:01Z</time>
      </trkpt>
      <trkpt lat="44.97955" lon="6.58774">
        <ele>2416.4111328125</ele>
        <time>2007-08-18T10:26:04Z</time>
      </trkpt>
      <trkpt lat="44.97949" lon="6.58772">
        <ele>2413.5270996094</ele>
        <time>2007-08-18T10:26:07Z</time>
      </trkpt>
      <trkpt lat="44.97944" lon="6.58772">
        <ele>2412.5659179688</ele>
        <time>2007-08-18T10:26:09Z</time>
      </trkpt>
      <trkpt lat="44.97923" lon="6.58763">
        <ele>2408.2397460938</ele>
        <time>2007-08-18T10:26:16Z</time>
      </trkpt>
      <trkpt lat="44.97919" lon="6.58761">
        <ele>2408.2397460938</ele>
        <time>2007-08-18T10:26:17Z</time>
      </trkpt>
      <trkpt lat="44.9791" lon="6.58757">
        <ele>2406.3171386719</ele>
        <time>2007-08-18T10:26:20Z</time>
      </trkpt>
      <trkpt lat="44.97904" lon="6.58755">
        <ele>2404.39453125</ele>
        <time>2007-08-18T10:26:22Z</time>
      </trkpt>
      <trkpt lat="44.97891" lon="6.5874">
        <ele>2400.5493164062</ele>
        <time>2007-08-18T10:26:31Z</time>
      </trkpt>
      <trkpt lat="44.97886" lon="6.58733">
        <ele>2397.6655273438</ele>
        <time>2007-08-18T10:26:35Z</time>
      </trkpt>
      <trkpt lat="44.97874" lon="6.58729">
        <ele>2393.8200683594</ele>
        <time>2007-08-18T10:26:44Z</time>
      </trkpt>
      <trkpt lat="44.97863" lon="6.58729">
        <ele>2391.4167480469</ele>
        <time>2007-08-18T10:26:49Z</time>
      </trkpt>
      <trkpt lat="44.97854" lon="6.58731">
        <ele>2389.9748535156</ele>
        <time>2007-08-18T10:26:52Z</time>
      </trkpt>
      <trkpt lat="44.97841" lon="6.58727">
        <ele>2387.5715332031</ele>
        <time>2007-08-18T10:26:56Z</time>
      </trkpt>
      <trkpt lat="44.97835" lon="6.58723">
        <ele>2384.6877441406</ele>
        <time>2007-08-18T10:27:01Z</time>
      </trkpt>
      <trkpt lat="44.97824" lon="6.5872">
        <ele>2383.7263183594</ele>
        <time>2007-08-18T10:27:06Z</time>
      </trkpt>
      <trkpt lat="44.97822" lon="6.58718">
        <ele>2382.7648925781</ele>
        <time>2007-08-18T10:27:08Z</time>
      </trkpt>
      <trkpt lat="44.97818" lon="6.58712">
        <ele>2382.2844238281</ele>
        <time>2007-08-18T10:27:11Z</time>
      </trkpt>
      <trkpt lat="44.97809" lon="6.58712">
        <ele>2382.7648925781</ele>
        <time>2007-08-18T10:27:15Z</time>
      </trkpt>
      <trkpt lat="44.97788" lon="6.58703">
        <ele>2381.3229980469</ele>
        <time>2007-08-18T10:27:21Z</time>
      </trkpt>
      <trkpt lat="44.97771" lon="6.58701">
        <ele>2376.9970703125</ele>
        <time>2007-08-18T10:27:25Z</time>
      </trkpt>
      <trkpt lat="44.97753" lon="6.58695">
        <ele>2373.1518554688</ele>
        <time>2007-08-18T10:27:29Z</time>
      </trkpt>
      <trkpt lat="44.97734" lon="6.58693">
        <ele>2369.787109375</ele>
        <time>2007-08-18T10:27:33Z</time>
      </trkpt>
      <trkpt lat="44.97728" lon="6.5869">
        <ele>2368.8259277344</ele>
        <time>2007-08-18T10:27:35Z</time>
      </trkpt>
      <trkpt lat="44.97713" lon="6.58684">
        <ele>2366.4226074219</ele>
        <time>2007-08-18T10:27:39Z</time>
      </trkpt>
      <trkpt lat="44.97695" lon="6.58673">
        <ele>2364.9807128906</ele>
        <time>2007-08-18T10:27:50Z</time>
      </trkpt>
      <trkpt lat="44.97702" lon="6.58678">
        <ele>2365.9418945312</ele>
        <time>2007-08-18T10:28:19Z</time>
      </trkpt>
      <trkpt lat="44.9771" lon="6.58678">
        <ele>2364.9807128906</ele>
        <time>2007-08-18T10:28:23Z</time>
      </trkpt>
      <trkpt lat="44.97747" lon="6.58684">
        <ele>2363.0578613281</ele>
        <time>2007-08-18T10:28:38Z</time>
      </trkpt>
      <trkpt lat="44.97749" lon="6.58684">
        <ele>2362.5771484375</ele>
        <time>2007-08-18T10:28:39Z</time>
      </trkpt>
      <trkpt lat="44.97741" lon="6.58652">
        <ele>2361.6159667969</ele>
        <time>2007-08-18T10:28:48Z</time>
      </trkpt>
      <trkpt lat="44.97736" lon="6.5865">
        <ele>2361.1352539062</ele>
        <time>2007-08-18T10:28:50Z</time>
      </trkpt>
      <trkpt lat="44.9768" lon="6.58656">
        <ele>2357.7707519531</ele>
        <time>2007-08-18T10:29:05Z</time>
      </trkpt>
      <trkpt lat="44.97644" lon="6.58658">
        <ele>2354.88671875</ele>
        <time>2007-08-18T10:29:15Z</time>
      </trkpt>
      <trkpt lat="44.97601" lon="6.58658">
        <ele>2351.5222167969</ele>
        <time>2007-08-18T10:29:28Z</time>
      </trkpt>
      <trkpt lat="44.97601" lon="6.58665">
        <ele>2351.0415039062</ele>
        <time>2007-08-18T10:30:03Z</time>
      </trkpt>
      <trkpt lat="44.97595" lon="6.5866">
        <ele>2351.5222167969</ele>
        <time>2007-08-18T10:30:08Z</time>
      </trkpt>
      <trkpt lat="44.97552" lon="6.58624">
        <ele>2348.1574707031</ele>
        <time>2007-08-18T10:30:20Z</time>
      </trkpt>
      <trkpt lat="44.97545" lon="6.58622">
        <ele>2346.7153320312</ele>
        <time>2007-08-18T10:30:21Z</time>
      </trkpt>
      <trkpt lat="44.97515" lon="6.58626">
        <ele>2344.7927246094</ele>
        <time>2007-08-18T10:30:25Z</time>
      </trkpt>
      <trkpt lat="44.97487" lon="6.58639">
        <ele>2340.9475097656</ele>
        <time>2007-08-18T10:30:30Z</time>
      </trkpt>
      <trkpt lat="44.97444" lon="6.58654">
        <ele>2338.5444335938</ele>
        <time>2007-08-18T10:30:37Z</time>
      </trkpt>
      <trkpt lat="44.97414" lon="6.58665">
        <ele>2335.1796875</ele>
        <time>2007-08-18T10:30:42Z</time>
      </trkpt>
      <trkpt lat="44.97386" lon="6.5868">
        <ele>2332.2958984375</ele>
        <time>2007-08-18T10:30:47Z</time>
      </trkpt>
      <trkpt lat="44.9738" lon="6.58684">
        <ele>2332.2958984375</ele>
        <time>2007-08-18T10:30:48Z</time>
      </trkpt>
      <trkpt lat="44.97354" lon="6.58693">
        <ele>2329.8923339844</ele>
        <time>2007-08-18T10:30:52Z</time>
      </trkpt>
      <trkpt lat="44.97344" lon="6.58697">
        <ele>2328.9309082031</ele>
        <time>2007-08-18T10:30:54Z</time>
      </trkpt>
      <trkpt lat="44.97294" lon="6.58667">
        <ele>2325.56640625</ele>
        <time>2007-08-18T10:31:01Z</time>
      </trkpt>
      <trkpt lat="44.9729" lon="6.58665">
        <ele>2325.56640625</ele>
        <time>2007-08-18T10:31:02Z</time>
      </trkpt>
      <trkpt lat="44.97268" lon="6.58656">
        <ele>2323.6437988281</ele>
        <time>2007-08-18T10:31:06Z</time>
      </trkpt>
      <trkpt lat="44.97221" lon="6.58656">
        <ele>2320.279296875</ele>
        <time>2007-08-18T10:31:17Z</time>
      </trkpt>
      <trkpt lat="44.97206" lon="6.58656">
        <ele>2319.3181152344</ele>
        <time>2007-08-18T10:31:21Z</time>
      </trkpt>
      <trkpt lat="44.97174" lon="6.5866">
        <ele>2315.953125</ele>
        <time>2007-08-18T10:31:29Z</time>
      </trkpt>
      <trkpt lat="44.9717" lon="6.5866">
        <ele>2315.953125</ele>
        <time>2007-08-18T10:31:30Z</time>
      </trkpt>
      <trkpt lat="44.97142" lon="6.58667">
        <ele>2312.5886230469</ele>
        <time>2007-08-18T10:31:38Z</time>
      </trkpt>
      <trkpt lat="44.97123" lon="6.58675">
        <ele>2312.1079101562</ele>
        <time>2007-08-18T10:31:51Z</time>
      </trkpt>
      <trkpt lat="44.9711" lon="6.5869">
        <ele>2309.2241210938</ele>
        <time>2007-08-18T10:32:16Z</time>
      </trkpt>
      <trkpt lat="44.97077" lon="6.58725">
        <ele>2306.3400878906</ele>
        <time>2007-08-18T10:32:29Z</time>
      </trkpt>
      <trkpt lat="44.97045" lon="6.58757">
        <ele>2303.4562988281</ele>
        <time>2007-08-18T10:32:48Z</time>
      </trkpt>
      <trkpt lat="44.97013" lon="6.58778">
        <ele>2300.091796875</ele>
        <time>2007-08-18T10:32:59Z</time>
      </trkpt>
      <trkpt lat="44.97009" lon="6.58783">
        <ele>2299.1301269531</ele>
        <time>2007-08-18T10:33:01Z</time>
      </trkpt>
      <trkpt lat="44.96979" lon="6.58798">
        <ele>2296.2463378906</ele>
        <time>2007-08-18T10:33:12Z</time>
      </trkpt>
      <trkpt lat="44.96949" lon="6.58806">
        <ele>2294.3234863281</ele>
        <time>2007-08-18T10:33:26Z</time>
      </trkpt>
      <trkpt lat="44.9691" lon="6.58817">
        <ele>2291.4396972656</ele>
        <time>2007-08-18T10:33:40Z</time>
      </trkpt>
      <trkpt lat="44.96874" lon="6.58828">
        <ele>2287.5944824219</ele>
        <time>2007-08-18T10:33:51Z</time>
      </trkpt>
      <trkpt lat="44.96859" lon="6.58834">
        <ele>2285.1911621094</ele>
        <time>2007-08-18T10:33:57Z</time>
      </trkpt>
      <trkpt lat="44.96824" lon="6.58849">
        <ele>2284.2299804688</ele>
        <time>2007-08-18T10:34:10Z</time>
      </trkpt>
      <trkpt lat="44.96788" lon="6.58879">
        <ele>2280.865234375</ele>
        <time>2007-08-18T10:34:23Z</time>
      </trkpt>
      <trkpt lat="44.96786" lon="6.58884">
        <ele>2280.3845214844</ele>
        <time>2007-08-18T10:34:24Z</time>
      </trkpt>
      <trkpt lat="44.96758" lon="6.58911">
        <ele>2277.5004882812</ele>
        <time>2007-08-18T10:34:33Z</time>
      </trkpt>
      <trkpt lat="44.96743" lon="6.58926">
        <ele>2277.0200195312</ele>
        <time>2007-08-18T10:34:38Z</time>
      </trkpt>
      <trkpt lat="44.9673" lon="6.58937">
        <ele>2275.5778808594</ele>
        <time>2007-08-18T10:34:42Z</time>
      </trkpt>
      <trkpt lat="44.96726" lon="6.58942">
        <ele>2276.05859375</ele>
        <time>2007-08-18T10:34:43Z</time>
      </trkpt>
      <trkpt lat="44.96715" lon="6.58948">
        <ele>2274.1359863281</ele>
        <time>2007-08-18T10:34:46Z</time>
      </trkpt>
      <trkpt lat="44.96691" lon="6.58961">
        <ele>2271.7326660156</ele>
        <time>2007-08-18T10:34:51Z</time>
      </trkpt>
      <trkpt lat="44.96668" lon="6.58976">
        <ele>2269.3295898438</ele>
        <time>2007-08-18T10:34:56Z</time>
      </trkpt>
      <trkpt lat="44.96659" lon="6.58974">
        <ele>2265.4841308594</ele>
        <time>2007-08-18T10:35:00Z</time>
      </trkpt>
      <trkpt lat="44.96657" lon="6.58969">
        <ele>2266.4453125</ele>
        <time>2007-08-18T10:35:10Z</time>
      </trkpt>
      <trkpt lat="44.9667" lon="6.58939">
        <ele>2264.0419921875</ele>
        <time>2007-08-18T10:35:20Z</time>
      </trkpt>
      <trkpt lat="44.96691" lon="6.58862">
        <ele>2261.158203125</ele>
        <time>2007-08-18T10:35:34Z</time>
      </trkpt>
      <trkpt lat="44.96698" lon="6.58856">
        <ele>2260.1967773438</ele>
        <time>2007-08-18T10:35:39Z</time>
      </trkpt>
      <trkpt lat="44.96721" lon="6.58828">
        <ele>2257.7937011719</ele>
        <time>2007-08-18T10:35:52Z</time>
      </trkpt>
      <trkpt lat="44.96738" lon="6.58785">
        <ele>2255.3903808594</ele>
        <time>2007-08-18T10:36:03Z</time>
      </trkpt>
      <trkpt lat="44.96745" lon="6.58768">
        <ele>2254.4289550781</ele>
        <time>2007-08-18T10:36:07Z</time>
      </trkpt>
      <trkpt lat="44.96756" lon="6.58753">
        <ele>2253.9484863281</ele>
        <time>2007-08-18T10:36:10Z</time>
      </trkpt>
      <trkpt lat="44.96796" lon="6.58708">
        <ele>2250.1030273438</ele>
        <time>2007-08-18T10:36:22Z</time>
      </trkpt>
      <trkpt lat="44.96829" lon="6.58673">
        <ele>2247.2189941406</ele>
        <time>2007-08-18T10:36:31Z</time>
      </trkpt>
      <trkpt lat="44.96841" lon="6.58658">
        <ele>2244.8156738281</ele>
        <time>2007-08-18T10:36:35Z</time>
      </trkpt>
      <trkpt lat="44.96854" lon="6.58639">
        <ele>2242.8930664062</ele>
        <time>2007-08-18T10:36:39Z</time>
      </trkpt>
      <trkpt lat="44.96884" lon="6.58596">
        <ele>2240.0092773438</ele>
        <time>2007-08-18T10:36:48Z</time>
      </trkpt>
      <trkpt lat="44.96891" lon="6.58587">
        <ele>2238.5673828125</ele>
        <time>2007-08-18T10:36:50Z</time>
      </trkpt>
      <trkpt lat="44.96917" lon="6.58553">
        <ele>2235.6831054688</ele>
        <time>2007-08-18T10:36:59Z</time>
      </trkpt>
      <trkpt lat="44.96938" lon="6.58514">
        <ele>2236.1640625</ele>
        <time>2007-08-18T10:37:12Z</time>
      </trkpt>
      <trkpt lat="44.9697" lon="6.58491">
        <ele>2234.7219238281</ele>
        <time>2007-08-18T10:37:25Z</time>
      </trkpt>
      <trkpt lat="44.96992" lon="6.58457">
        <ele>2231.3571777344</ele>
        <time>2007-08-18T10:37:35Z</time>
      </trkpt>
      <trkpt lat="44.97015" lon="6.58405">
        <ele>2228.4733886719</ele>
        <time>2007-08-18T10:37:44Z</time>
      </trkpt>
      <trkpt lat="44.97026" lon="6.58375">
        <ele>2227.5119628906</ele>
        <time>2007-08-18T10:37:49Z</time>
      </trkpt>
      <trkpt lat="44.9702" lon="6.5833">
        <ele>2224.6281738281</ele>
        <time>2007-08-18T10:37:56Z</time>
      </trkpt>
      <trkpt lat="44.97009" lon="6.58304">
        <ele>2223.6667480469</ele>
        <time>2007-08-18T10:38:00Z</time>
      </trkpt>
      <trkpt lat="44.96972" lon="6.58296">
        <ele>2220.3022460938</ele>
        <time>2007-08-18T10:38:08Z</time>
      </trkpt>
      <trkpt lat="44.96962" lon="6.58296">
        <ele>2218.3793945312</ele>
        <time>2007-08-18T10:38:17Z</time>
      </trkpt>
      <trkpt lat="44.96957" lon="6.58296">
        <ele>2217.41796875</ele>
        <time>2007-08-18T10:38:33Z</time>
      </trkpt>
      <trkpt lat="44.96932" lon="6.583">
        <ele>2215.4956054688</ele>
        <time>2007-08-18T10:39:10Z</time>
      </trkpt>
      <trkpt lat="44.96914" lon="6.58296">
        <ele>2213.0922851562</ele>
        <time>2007-08-18T10:39:14Z</time>
      </trkpt>
      <trkpt lat="44.96906" lon="6.58296">
        <ele>2213.0922851562</ele>
        <time>2007-08-18T10:39:16Z</time>
      </trkpt>
      <trkpt lat="44.96886" lon="6.58298">
        <ele>2212.6115722656</ele>
        <time>2007-08-18T10:39:22Z</time>
      </trkpt>
      <trkpt lat="44.96861" lon="6.58283">
        <ele>2210.2082519531</ele>
        <time>2007-08-18T10:39:29Z</time>
      </trkpt>
      <trkpt lat="44.96831" lon="6.58278">
        <ele>2205.8823242188</ele>
        <time>2007-08-18T10:39:39Z</time>
      </trkpt>
      <trkpt lat="44.96833" lon="6.583">
        <ele>2204.9211425781</ele>
        <time>2007-08-18T10:39:47Z</time>
      </trkpt>
      <trkpt lat="44.96835" lon="6.58302">
        <ele>2204.4404296875</ele>
        <time>2007-08-18T10:39:48Z</time>
      </trkpt>
      <trkpt lat="44.96871" lon="6.58339">
        <ele>2201.0756835938</ele>
        <time>2007-08-18T10:39:58Z</time>
      </trkpt>
      <trkpt lat="44.9688" lon="6.58354">
        <ele>2199.6337890625</ele>
        <time>2007-08-18T10:40:01Z</time>
      </trkpt>
      <trkpt lat="44.96891" lon="6.58371">
        <ele>2198.1916503906</ele>
        <time>2007-08-18T10:40:05Z</time>
      </trkpt>
      <trkpt lat="44.96893" lon="6.58386">
        <ele>2197.23046875</ele>
        <time>2007-08-18T10:40:08Z</time>
      </trkpt>
      <trkpt lat="44.96891" lon="6.5839">
        <ele>2196.2692871094</ele>
        <time>2007-08-18T10:40:10Z</time>
      </trkpt>
      <trkpt lat="44.96889" lon="6.58392">
        <ele>2195.7885742188</ele>
        <time>2007-08-18T10:40:26Z</time>
      </trkpt>
      <trkpt lat="44.96891" lon="6.58394">
        <ele>2197.7111816406</ele>
        <time>2007-08-18T10:43:36Z</time>
      </trkpt>
      <trkpt lat="44.96889" lon="6.58394">
        <ele>2197.7111816406</ele>
        <time>2007-08-18T10:43:51Z</time>
      </trkpt>
      <trkpt lat="44.96878" lon="6.58416">
        <ele>2196.2692871094</ele>
        <time>2007-08-18T10:44:02Z</time>
      </trkpt>
      <trkpt lat="44.96861" lon="6.5842">
        <ele>2192.9045410156</ele>
        <time>2007-08-18T10:44:06Z</time>
      </trkpt>
      <trkpt lat="44.96837" lon="6.58422">
        <ele>2190.9819335938</ele>
        <time>2007-08-18T10:44:17Z</time>
      </trkpt>
      <trkpt lat="44.96837" lon="6.58416">
        <ele>2190.5012207031</ele>
        <time>2007-08-18T10:44:43Z</time>
      </trkpt>
      <trkpt lat="44.96822" lon="6.58394">
        <ele>2189.0593261719</ele>
        <time>2007-08-18T10:45:02Z</time>
      </trkpt>
      <trkpt lat="44.9682" lon="6.5839">
        <ele>2189.0593261719</ele>
        <time>2007-08-18T10:45:03Z</time>
      </trkpt>
      <trkpt lat="44.96779" lon="6.58362">
        <ele>2186.6557617188</ele>
        <time>2007-08-18T10:45:11Z</time>
      </trkpt>
      <trkpt lat="44.96751" lon="6.58362">
        <ele>2184.2526855469</ele>
        <time>2007-08-18T10:45:15Z</time>
      </trkpt>
      <trkpt lat="44.96685" lon="6.58334">
        <ele>2183.2912597656</ele>
        <time>2007-08-18T10:45:27Z</time>
      </trkpt>
      <trkpt lat="44.96648" lon="6.58302">
        <ele>2181.3686523438</ele>
        <time>2007-08-18T10:45:42Z</time>
      </trkpt>
      <trkpt lat="44.96599" lon="6.58251">
        <ele>2181.8493652344</ele>
        <time>2007-08-18T10:45:58Z</time>
      </trkpt>
      <trkpt lat="44.96567" lon="6.58225">
        <ele>2182.330078125</ele>
        <time>2007-08-18T10:46:16Z</time>
      </trkpt>
      <trkpt lat="44.96535" lon="6.58206">
        <ele>2184.7333984375</ele>
        <time>2007-08-18T10:46:36Z</time>
      </trkpt>
      <trkpt lat="44.96513" lon="6.58178">
        <ele>2187.1364746094</ele>
        <time>2007-08-18T10:46:57Z</time>
      </trkpt>
      <trkpt lat="44.96498" lon="6.58154">
        <ele>2189.0593261719</ele>
        <time>2007-08-18T10:47:12Z</time>
      </trkpt>
      <trkpt lat="44.96475" lon="6.58143">
        <ele>2191.4626464844</ele>
        <time>2007-08-18T10:47:28Z</time>
      </trkpt>
      <trkpt lat="44.96462" lon="6.58135">
        <ele>2192.9045410156</ele>
        <time>2007-08-18T10:47:36Z</time>
      </trkpt>
      <trkpt lat="44.9644" lon="6.58111">
        <ele>2194.8271484375</ele>
        <time>2007-08-18T10:47:54Z</time>
      </trkpt>
      <trkpt lat="44.96404" lon="6.58079">
        <ele>2196.7497558594</ele>
        <time>2007-08-18T10:48:18Z</time>
      </trkpt>
      <trkpt lat="44.96399" lon="6.58079">
        <ele>2196.7497558594</ele>
        <time>2007-08-18T10:48:39Z</time>
      </trkpt>
      <trkpt lat="44.96399" lon="6.58081">
        <ele>2198.1916503906</ele>
        <time>2007-08-18T10:49:30Z</time>
      </trkpt>
      <trkpt lat="44.96397" lon="6.58038">
        <ele>2198.1916503906</ele>
        <time>2007-08-18T10:49:45Z</time>
      </trkpt>
      <trkpt lat="44.96408" lon="6.57997">
        <ele>2200.1145019531</ele>
        <time>2007-08-18T10:50:01Z</time>
      </trkpt>
      <trkpt lat="44.96419" lon="6.57957">
        <ele>2203.4790039062</ele>
        <time>2007-08-18T10:50:19Z</time>
      </trkpt>
      <trkpt lat="44.96414" lon="6.57916">
        <ele>2206.3630371094</ele>
        <time>2007-08-18T10:50:35Z</time>
      </trkpt>
      <trkpt lat="44.96395" lon="6.57881">
        <ele>2208.2856445312</ele>
        <time>2007-08-18T10:50:54Z</time>
      </trkpt>
      <trkpt lat="44.96367" lon="6.57856">
        <ele>2211.1696777344</ele>
        <time>2007-08-18T10:51:11Z</time>
      </trkpt>
      <trkpt lat="44.9635" lon="6.57824">
        <ele>2212.130859375</ele>
        <time>2007-08-18T10:51:27Z</time>
      </trkpt>
      <trkpt lat="44.96335" lon="6.57794">
        <ele>2214.0534667969</ele>
        <time>2007-08-18T10:51:45Z</time>
      </trkpt>
      <trkpt lat="44.96316" lon="6.57761">
        <ele>2217.8986816406</ele>
        <time>2007-08-18T10:52:02Z</time>
      </trkpt>
      <trkpt lat="44.96309" lon="6.57723">
        <ele>2219.8212890625</ele>
        <time>2007-08-18T10:52:18Z</time>
      </trkpt>
      <trkpt lat="44.96305" lon="6.57682">
        <ele>2219.8212890625</ele>
        <time>2007-08-18T10:52:35Z</time>
      </trkpt>
      <trkpt lat="44.96296" lon="6.5765">
        <ele>2223.1862792969</ele>
        <time>2007-08-18T10:52:50Z</time>
      </trkpt>
      <trkpt lat="44.9629" lon="6.57615">
        <ele>2224.1474609375</ele>
        <time>2007-08-18T10:53:04Z</time>
      </trkpt>
      <trkpt lat="44.96286" lon="6.57603">
        <ele>2227.0314941406</ele>
        <time>2007-08-18T10:53:10Z</time>
      </trkpt>
      <trkpt lat="44.96277" lon="6.57585">
        <ele>2227.9926757812</ele>
        <time>2007-08-18T10:53:21Z</time>
      </trkpt>
      <trkpt lat="44.96269" lon="6.57551">
        <ele>2229.9152832031</ele>
        <time>2007-08-18T10:53:36Z</time>
      </trkpt>
      <trkpt lat="44.96286" lon="6.57527">
        <ele>2230.8767089844</ele>
        <time>2007-08-18T10:53:49Z</time>
      </trkpt>
      <trkpt lat="44.96305" lon="6.57502">
        <ele>2232.7990722656</ele>
        <time>2007-08-18T10:54:06Z</time>
      </trkpt>
      <trkpt lat="44.96329" lon="6.57472">
        <ele>2236.1640625</ele>
        <time>2007-08-18T10:54:25Z</time>
      </trkpt>
      <trkpt lat="44.9635" lon="6.57452">
        <ele>2237.6059570312</ele>
        <time>2007-08-18T10:54:41Z</time>
      </trkpt>
      <trkpt lat="44.96367" lon="6.57435">
        <ele>2239.5285644531</ele>
        <time>2007-08-18T10:54:54Z</time>
      </trkpt>
      <trkpt lat="44.96395" lon="6.57407">
        <ele>2241.9318847656</ele>
        <time>2007-08-18T10:55:12Z</time>
      </trkpt>
      <trkpt lat="44.96429" lon="6.57386">
        <ele>2243.3737792969</ele>
        <time>2007-08-18T10:55:31Z</time>
      </trkpt>
      <trkpt lat="44.96464" lon="6.57373">
        <ele>2243.3737792969</ele>
        <time>2007-08-18T10:55:47Z</time>
      </trkpt>
      <trkpt lat="44.96468" lon="6.57375">
        <ele>2243.8544921875</ele>
        <time>2007-08-18T10:55:49Z</time>
      </trkpt>
      <trkpt lat="44.9649" lon="6.57379">
        <ele>2244.8156738281</ele>
        <time>2007-08-18T10:56:00Z</time>
      </trkpt>
      <trkpt lat="44.96522" lon="6.57375">
        <ele>2246.73828125</ele>
        <time>2007-08-18T10:56:16Z</time>
      </trkpt>
      <trkpt lat="44.96567" lon="6.57364">
        <ele>2247.2189941406</ele>
        <time>2007-08-18T10:56:35Z</time>
      </trkpt>
      <trkpt lat="44.96605" lon="6.57324">
        <ele>2247.2189941406</ele>
        <time>2007-08-18T10:56:50Z</time>
      </trkpt>
      <trkpt lat="44.96633" lon="6.57274">
        <ele>2246.73828125</ele>
        <time>2007-08-18T10:57:01Z</time>
      </trkpt>
      <trkpt lat="44.9667" lon="6.57203">
        <ele>2245.7770996094</ele>
        <time>2007-08-18T10:57:18Z</time>
      </trkpt>
      <trkpt lat="44.967" lon="6.57156">
        <ele>2247.6997070312</ele>
        <time>2007-08-18T10:57:33Z</time>
      </trkpt>
      <trkpt lat="44.96713" lon="6.5713">
        <ele>2251.0642089844</ele>
        <time>2007-08-18T10:57:44Z</time>
      </trkpt>
      <trkpt lat="44.96728" lon="6.57088">
        <ele>2253.4677734375</ele>
        <time>2007-08-18T10:58:03Z</time>
      </trkpt>
      <trkpt lat="44.96741" lon="6.57053">
        <ele>2255.3903808594</ele>
        <time>2007-08-18T10:58:20Z</time>
      </trkpt>
      <trkpt lat="44.96747" lon="6.5703">
        <ele>2256.3515625</ele>
        <time>2007-08-18T10:58:34Z</time>
      </trkpt>
      <trkpt lat="44.9676" lon="6.56991">
        <ele>2260.1967773438</ele>
        <time>2007-08-18T10:58:52Z</time>
      </trkpt>
      <trkpt lat="44.96768" lon="6.56963">
        <ele>2261.6389160156</ele>
        <time>2007-08-18T10:59:06Z</time>
      </trkpt>
      <trkpt lat="44.96771" lon="6.5695">
        <ele>2262.6000976562</ele>
        <time>2007-08-18T10:59:22Z</time>
      </trkpt>
      <trkpt lat="44.96771" lon="6.56948">
        <ele>2263.0808105469</ele>
        <time>2007-08-18T11:00:05Z</time>
      </trkpt>
      <trkpt lat="44.96773" lon="6.56942">
        <ele>2263.0808105469</ele>
        <time>2007-08-18T11:00:09Z</time>
      </trkpt>
      <trkpt lat="44.96786" lon="6.56894">
        <ele>2265.4841308594</ele>
        <time>2007-08-18T11:00:27Z</time>
      </trkpt>
      <trkpt lat="44.96814" lon="6.56856">
        <ele>2266.4453125</ele>
        <time>2007-08-18T11:00:47Z</time>
      </trkpt>
      <trkpt lat="44.96831" lon="6.56843">
        <ele>2267.8872070312</ele>
        <time>2007-08-18T11:01:01Z</time>
      </trkpt>
      <trkpt lat="44.96854" lon="6.56821">
        <ele>2270.2907714844</ele>
        <time>2007-08-18T11:01:18Z</time>
      </trkpt>
      <trkpt lat="44.96854" lon="6.56819">
        <ele>2270.771484375</ele>
        <time>2007-08-18T11:01:42Z</time>
      </trkpt>
      <trkpt lat="44.96854" lon="6.56817">
        <ele>2270.771484375</ele>
        <time>2007-08-18T11:02:46Z</time>
      </trkpt>
      <trkpt lat="44.96856" lon="6.56806">
        <ele>2271.251953125</ele>
        <time>2007-08-18T11:03:00Z</time>
      </trkpt>
      <trkpt lat="44.96856" lon="6.56806">
        <ele>2271.251953125</ele>
        <time>2007-08-18T11:04:11Z</time>
      </trkpt>
      <trkpt lat="44.96865" lon="6.56794">
        <ele>2271.7326660156</ele>
        <time>2007-08-18T11:04:21Z</time>
      </trkpt>
      <trkpt lat="44.9688" lon="6.56779">
        <ele>2273.1748046875</ele>
        <time>2007-08-18T11:04:34Z</time>
      </trkpt>
      <trkpt lat="44.96891" lon="6.56764">
        <ele>2274.6166992188</ele>
        <time>2007-08-18T11:04:45Z</time>
      </trkpt>
      <trkpt lat="44.9691" lon="6.56734">
        <ele>2276.5393066406</ele>
        <time>2007-08-18T11:05:04Z</time>
      </trkpt>
      <trkpt lat="44.96925" lon="6.56714">
        <ele>2277.9812011719</ele>
        <time>2007-08-18T11:05:20Z</time>
      </trkpt>
      <trkpt lat="44.96944" lon="6.56695">
        <ele>2279.9038085938</ele>
        <time>2007-08-18T11:05:36Z</time>
      </trkpt>
      <trkpt lat="44.96966" lon="6.56676">
        <ele>2281.8264160156</ele>
        <time>2007-08-18T11:05:52Z</time>
      </trkpt>
      <trkpt lat="44.96998" lon="6.56663">
        <ele>2283.7490234375</ele>
        <time>2007-08-18T11:06:10Z</time>
      </trkpt>
      <trkpt lat="44.97" lon="6.56663">
        <ele>2283.7490234375</ele>
        <time>2007-08-18T11:06:11Z</time>
      </trkpt>
      <trkpt lat="44.97005" lon="6.56658">
        <ele>2284.2299804688</ele>
        <time>2007-08-18T11:06:15Z</time>
      </trkpt>
      <trkpt lat="44.97039" lon="6.56648">
        <ele>2288.0751953125</ele>
        <time>2007-08-18T11:06:39Z</time>
      </trkpt>
      <trkpt lat="44.97062" lon="6.56641">
        <ele>2289.9978027344</ele>
        <time>2007-08-18T11:06:55Z</time>
      </trkpt>
      <trkpt lat="44.97086" lon="6.56633">
        <ele>2291.9204101562</ele>
        <time>2007-08-18T11:07:10Z</time>
      </trkpt>
      <trkpt lat="44.97088" lon="6.56633">
        <ele>2293.3623046875</ele>
        <time>2007-08-18T11:07:12Z</time>
      </trkpt>
      <trkpt lat="44.97097" lon="6.56628">
        <ele>2293.3623046875</ele>
        <time>2007-08-18T11:07:17Z</time>
      </trkpt>
      <trkpt lat="44.9712" lon="6.56613">
        <ele>2296.2463378906</ele>
        <time>2007-08-18T11:07:34Z</time>
      </trkpt>
      <trkpt lat="44.97144" lon="6.56628">
        <ele>2297.2075195312</ele>
        <time>2007-08-18T11:07:52Z</time>
      </trkpt>
      <trkpt lat="44.97163" lon="6.56643">
        <ele>2300.091796875</ele>
        <time>2007-08-18T11:08:05Z</time>
      </trkpt>
      <trkpt lat="44.97168" lon="6.56648">
        <ele>2301.0529785156</ele>
        <time>2007-08-18T11:08:09Z</time>
      </trkpt>
      <trkpt lat="44.97172" lon="6.5665">
        <ele>2301.0529785156</ele>
        <time>2007-08-18T11:08:12Z</time>
      </trkpt>
      <trkpt lat="44.97191" lon="6.56633">
        <ele>2302.0141601562</ele>
        <time>2007-08-18T11:08:26Z</time>
      </trkpt>
      <trkpt lat="44.97213" lon="6.56605">
        <ele>2303.9370117188</ele>
        <time>2007-08-18T11:08:43Z</time>
      </trkpt>
      <trkpt lat="44.97234" lon="6.56583">
        <ele>2305.37890625</ele>
        <time>2007-08-18T11:09:00Z</time>
      </trkpt>
      <trkpt lat="44.97253" lon="6.56553">
        <ele>2307.3015136719</ele>
        <time>2007-08-18T11:09:17Z</time>
      </trkpt>
      <trkpt lat="44.97268" lon="6.56523">
        <ele>2309.7045898438</ele>
        <time>2007-08-18T11:09:35Z</time>
      </trkpt>
      <trkpt lat="44.97286" lon="6.56495">
        <ele>2311.6274414062</ele>
        <time>2007-08-18T11:09:52Z</time>
      </trkpt>
      <trkpt lat="44.97303" lon="6.56478">
        <ele>2313.0693359375</ele>
        <time>2007-08-18T11:10:07Z</time>
      </trkpt>
      <trkpt lat="44.97326" lon="6.56463">
        <ele>2315.47265625</ele>
        <time>2007-08-18T11:10:25Z</time>
      </trkpt>
      <trkpt lat="44.97352" lon="6.56448">
        <ele>2317.3952636719</ele>
        <time>2007-08-18T11:10:41Z</time>
      </trkpt>
      <trkpt lat="44.97374" lon="6.56422">
        <ele>2319.7985839844</ele>
        <time>2007-08-18T11:10:57Z</time>
      </trkpt>
      <trkpt lat="44.97393" lon="6.56405">
        <ele>2322.2019042969</ele>
        <time>2007-08-18T11:11:12Z</time>
      </trkpt>
      <trkpt lat="44.9741" lon="6.56375">
        <ele>2323.6437988281</ele>
        <time>2007-08-18T11:11:28Z</time>
      </trkpt>
      <trkpt lat="44.97427" lon="6.56349">
        <ele>2325.56640625</ele>
        <time>2007-08-18T11:11:43Z</time>
      </trkpt>
      <trkpt lat="44.97438" lon="6.56322">
        <ele>2327.9697265625</ele>
        <time>2007-08-18T11:11:59Z</time>
      </trkpt>
      <trkpt lat="44.97447" lon="6.56294">
        <ele>2328.4504394531</ele>
        <time>2007-08-18T11:12:13Z</time>
      </trkpt>
      <trkpt lat="44.97453" lon="6.56276">
        <ele>2329.8923339844</ele>
        <time>2007-08-18T11:12:23Z</time>
      </trkpt>
      <trkpt lat="44.97472" lon="6.56242">
        <ele>2330.373046875</ele>
        <time>2007-08-18T11:12:39Z</time>
      </trkpt>
      <trkpt lat="44.975" lon="6.56221">
        <ele>2332.7763671875</ele>
        <time>2007-08-18T11:12:57Z</time>
      </trkpt>
      <trkpt lat="44.97528" lon="6.56206">
        <ele>2334.69921875</ele>
        <time>2007-08-18T11:13:14Z</time>
      </trkpt>
      <trkpt lat="44.9756" lon="6.56201">
        <ele>2336.1411132812</ele>
        <time>2007-08-18T11:13:31Z</time>
      </trkpt>
      <trkpt lat="44.97565" lon="6.56197">
        <ele>2336.6215820312</ele>
        <time>2007-08-18T11:13:46Z</time>
      </trkpt>
      <trkpt lat="44.97565" lon="6.56195">
        <ele>2337.1022949219</ele>
        <time>2007-08-18T11:14:18Z</time>
      </trkpt>
      <trkpt lat="44.9758" lon="6.56154">
        <ele>2338.5444335938</ele>
        <time>2007-08-18T11:14:40Z</time>
      </trkpt>
      <trkpt lat="44.97597" lon="6.56131">
        <ele>2340.466796875</ele>
        <time>2007-08-18T11:14:56Z</time>
      </trkpt>
      <trkpt lat="44.97607" lon="6.56101">
        <ele>2342.8701171875</ele>
        <time>2007-08-18T11:15:13Z</time>
      </trkpt>
      <trkpt lat="44.97625" lon="6.56077">
        <ele>2344.3120117188</ele>
        <time>2007-08-18T11:15:31Z</time>
      </trkpt>
      <trkpt lat="44.97629" lon="6.56073">
        <ele>2345.2734375</ele>
        <time>2007-08-18T11:15:34Z</time>
      </trkpt>
      <trkpt lat="44.97646" lon="6.56049">
        <ele>2347.6767578125</ele>
        <time>2007-08-18T11:15:52Z</time>
      </trkpt>
      <trkpt lat="44.97668" lon="6.56032">
        <ele>2348.6381835938</ele>
        <time>2007-08-18T11:16:09Z</time>
      </trkpt>
      <trkpt lat="44.97689" lon="6.56034">
        <ele>2351.5222167969</ele>
        <time>2007-08-18T11:16:25Z</time>
      </trkpt>
      <trkpt lat="44.97704" lon="6.56043">
        <ele>2352.4833984375</ele>
        <time>2007-08-18T11:16:38Z</time>
      </trkpt>
      <trkpt lat="44.97721" lon="6.56058">
        <ele>2355.8479003906</ele>
        <time>2007-08-18T11:16:53Z</time>
      </trkpt>
      <trkpt lat="44.97723" lon="6.56058">
        <ele>2356.3286132812</ele>
        <time>2007-08-18T11:16:54Z</time>
      </trkpt>
      <trkpt lat="44.97747" lon="6.56073">
        <ele>2358.7319335938</ele>
        <time>2007-08-18T11:17:13Z</time>
      </trkpt>
      <trkpt lat="44.97771" lon="6.56092">
        <ele>2360.173828125</ele>
        <time>2007-08-18T11:17:32Z</time>
      </trkpt>
      <trkpt lat="44.97777" lon="6.56094">
        <ele>2359.6931152344</ele>
        <time>2007-08-18T11:17:37Z</time>
      </trkpt>
      <trkpt lat="44.97796" lon="6.56101">
        <ele>2361.6159667969</ele>
        <time>2007-08-18T11:17:50Z</time>
      </trkpt>
      <trkpt lat="44.97818" lon="6.56101">
        <ele>2365.4614257812</ele>
        <time>2007-08-18T11:18:06Z</time>
      </trkpt>
      <trkpt lat="44.97841" lon="6.56105">
        <ele>2366.4226074219</ele>
        <time>2007-08-18T11:18:23Z</time>
      </trkpt>
      <trkpt lat="44.97856" lon="6.56103">
        <ele>2367.8645019531</ele>
        <time>2007-08-18T11:18:33Z</time>
      </trkpt>
      <trkpt lat="44.97871" lon="6.56101">
        <ele>2368.3452148438</ele>
        <time>2007-08-18T11:18:44Z</time>
      </trkpt>
      <trkpt lat="44.97884" lon="6.56101">
        <ele>2370.2678222656</ele>
        <time>2007-08-18T11:18:54Z</time>
      </trkpt>
      <trkpt lat="44.97908" lon="6.56096">
        <ele>2372.6711425781</ele>
        <time>2007-08-18T11:19:12Z</time>
      </trkpt>
      <trkpt lat="44.97929" lon="6.56092">
        <ele>2374.1130371094</ele>
        <time>2007-08-18T11:19:28Z</time>
      </trkpt>
      <trkpt lat="44.97949" lon="6.56083">
        <ele>2375.5549316406</ele>
        <time>2007-08-18T11:19:44Z</time>
      </trkpt>
      <trkpt lat="44.97972" lon="6.56064">
        <ele>2376.5163574219</ele>
        <time>2007-08-18T11:20:00Z</time>
      </trkpt>
      <trkpt lat="44.97985" lon="6.56043">
        <ele>2379.880859375</ele>
        <time>2007-08-18T11:20:15Z</time>
      </trkpt>
      <trkpt lat="44.98004" lon="6.56038">
        <ele>2380.8425292969</ele>
        <time>2007-08-18T11:20:30Z</time>
      </trkpt>
      <trkpt lat="44.98028" lon="6.5603">
        <ele>2381.8037109375</ele>
        <time>2007-08-18T11:20:45Z</time>
      </trkpt>
      <trkpt lat="44.98034" lon="6.56028">
        <ele>2382.7648925781</ele>
        <time>2007-08-18T11:20:49Z</time>
      </trkpt>
      <trkpt lat="44.98056" lon="6.56008">
        <ele>2383.7263183594</ele>
        <time>2007-08-18T11:21:07Z</time>
      </trkpt>
      <trkpt lat="44.98071" lon="6.55991">
        <ele>2383.7263183594</ele>
        <time>2007-08-18T11:21:21Z</time>
      </trkpt>
      <trkpt lat="44.98086" lon="6.5598">
        <ele>2387.5715332031</ele>
        <time>2007-08-18T11:21:35Z</time>
      </trkpt>
      <trkpt lat="44.98103" lon="6.55965">
        <ele>2388.5329589844</ele>
        <time>2007-08-18T11:21:50Z</time>
      </trkpt>
      <trkpt lat="44.98122" lon="6.5595">
        <ele>2390.4553222656</ele>
        <time>2007-08-18T11:22:06Z</time>
      </trkpt>
      <trkpt lat="44.98142" lon="6.55944">
        <ele>2391.4167480469</ele>
        <time>2007-08-18T11:22:20Z</time>
      </trkpt>
      <trkpt lat="44.98161" lon="6.5594">
        <ele>2392.8586425781</ele>
        <time>2007-08-18T11:22:36Z</time>
      </trkpt>
      <trkpt lat="44.98168" lon="6.55937">
        <ele>2393.8200683594</ele>
        <time>2007-08-18T11:22:41Z</time>
      </trkpt>
      <trkpt lat="44.98189" lon="6.55929">
        <ele>2396.7041015625</ele>
        <time>2007-08-18T11:22:59Z</time>
      </trkpt>
      <trkpt lat="44.98208" lon="6.5592">
        <ele>2397.6655273438</ele>
        <time>2007-08-18T11:23:14Z</time>
      </trkpt>
      <trkpt lat="44.9823" lon="6.5591">
        <ele>2399.107421875</ele>
        <time>2007-08-18T11:23:32Z</time>
      </trkpt>
      <trkpt lat="44.98236" lon="6.55907">
        <ele>2400.0688476562</ele>
        <time>2007-08-18T11:23:37Z</time>
      </trkpt>
      <trkpt lat="44.98245" lon="6.55901">
        <ele>2402.9526367188</ele>
        <time>2007-08-18T11:23:45Z</time>
      </trkpt>
      <trkpt lat="44.98268" lon="6.55897">
        <ele>2405.3559570312</ele>
        <time>2007-08-18T11:24:02Z</time>
      </trkpt>
      <trkpt lat="44.98288" lon="6.55895">
        <ele>2405.8364257812</ele>
        <time>2007-08-18T11:24:16Z</time>
      </trkpt>
      <trkpt lat="44.98309" lon="6.55897">
        <ele>2406.7978515625</ele>
        <time>2007-08-18T11:24:32Z</time>
      </trkpt>
      <trkpt lat="44.98337" lon="6.55903">
        <ele>2408.2397460938</ele>
        <time>2007-08-18T11:24:49Z</time>
      </trkpt>
      <trkpt lat="44.98346" lon="6.55907">
        <ele>2409.201171875</ele>
        <time>2007-08-18T11:24:56Z</time>
      </trkpt>
      <trkpt lat="44.98361" lon="6.5591">
        <ele>2410.6430664062</ele>
        <time>2007-08-18T11:25:05Z</time>
      </trkpt>
      <trkpt lat="44.98386" lon="6.55912">
        <ele>2411.6044921875</ele>
        <time>2007-08-18T11:25:22Z</time>
      </trkpt>
      <trkpt lat="44.98412" lon="6.55918">
        <ele>2414.4885253906</ele>
        <time>2007-08-18T11:25:38Z</time>
      </trkpt>
      <trkpt lat="44.98427" lon="6.55922">
        <ele>2414.9692382812</ele>
        <time>2007-08-18T11:25:49Z</time>
      </trkpt>
      <trkpt lat="44.98434" lon="6.5592">
        <ele>2414.4885253906</ele>
        <time>2007-08-18T11:25:53Z</time>
      </trkpt>
      <trkpt lat="44.98442" lon="6.55918">
        <ele>2415.4499511719</ele>
        <time>2007-08-18T11:25:58Z</time>
      </trkpt>
      <trkpt lat="44.98459" lon="6.55927">
        <ele>2416.4111328125</ele>
        <time>2007-08-18T11:26:11Z</time>
      </trkpt>
      <trkpt lat="44.98481" lon="6.55942">
        <ele>2417.3723144531</ele>
        <time>2007-08-18T11:26:28Z</time>
      </trkpt>
      <trkpt lat="44.98507" lon="6.55948">
        <ele>2421.2175292969</ele>
        <time>2007-08-18T11:26:46Z</time>
      </trkpt>
      <trkpt lat="44.98509" lon="6.55948">
        <ele>2421.2175292969</ele>
        <time>2007-08-18T11:26:47Z</time>
      </trkpt>
      <trkpt lat="44.98522" lon="6.55946">
        <ele>2423.1403808594</ele>
        <time>2007-08-18T11:26:55Z</time>
      </trkpt>
      <trkpt lat="44.98549" lon="6.5594">
        <ele>2425.0627441406</ele>
        <time>2007-08-18T11:27:12Z</time>
      </trkpt>
      <trkpt lat="44.9856" lon="6.55931">
        <ele>2428.427734375</ele>
        <time>2007-08-18T11:27:18Z</time>
      </trkpt>
      <trkpt lat="44.98577" lon="6.5591">
        <ele>2428.908203125</ele>
        <time>2007-08-18T11:27:31Z</time>
      </trkpt>
      <trkpt lat="44.98584" lon="6.55903">
        <ele>2426.5048828125</ele>
        <time>2007-08-18T11:27:36Z</time>
      </trkpt>
      <trkpt lat="44.98592" lon="6.55899">
        <ele>2427.4660644531</ele>
        <time>2007-08-18T11:27:40Z</time>
      </trkpt>
      <trkpt lat="44.98597" lon="6.55897">
        <ele>2426.0241699219</ele>
        <time>2007-08-18T11:27:43Z</time>
      </trkpt>
      <trkpt lat="44.98605" lon="6.55895">
        <ele>2426.9855957031</ele>
        <time>2007-08-18T11:27:48Z</time>
      </trkpt>
      <trkpt lat="44.98607" lon="6.55895">
        <ele>2426.9855957031</ele>
        <time>2007-08-18T11:27:49Z</time>
      </trkpt>
      <trkpt lat="44.98633" lon="6.55888">
        <ele>2426.5048828125</ele>
        <time>2007-08-18T11:28:04Z</time>
      </trkpt>
      <trkpt lat="44.9864" lon="6.5589">
        <ele>2427.9467773438</ele>
        <time>2007-08-18T11:28:08Z</time>
      </trkpt>
      <trkpt lat="44.98661" lon="6.55899">
        <ele>2429.8696289062</ele>
        <time>2007-08-18T11:28:24Z</time>
      </trkpt>
      <trkpt lat="44.98687" lon="6.55916">
        <ele>2432.2729492188</ele>
        <time>2007-08-18T11:28:43Z</time>
      </trkpt>
      <trkpt lat="44.9871" lon="6.55927">
        <ele>2434.6762695312</ele>
        <time>2007-08-18T11:29:00Z</time>
      </trkpt>
      <trkpt lat="44.98717" lon="6.55929">
        <ele>2434.6762695312</ele>
        <time>2007-08-18T11:29:05Z</time>
      </trkpt>
      <trkpt lat="44.98719" lon="6.55935">
        <ele>2435.1567382812</ele>
        <time>2007-08-18T11:29:17Z</time>
      </trkpt>
      <trkpt lat="44.98719" lon="6.55935">
        <ele>2436.1181640625</ele>
        <time>2007-08-18T11:29:44Z</time>
      </trkpt>
      <trkpt lat="44.98719" lon="6.55935">
        <ele>2435.6374511719</ele>
        <time>2007-08-18T11:30:02Z</time>
      </trkpt>
      <trkpt lat="44.98715" lon="6.55931">
        <ele>2436.5986328125</ele>
        <time>2007-08-18T11:30:18Z</time>
      </trkpt>
      <trkpt lat="44.98715" lon="6.55931">
        <ele>2433.2341308594</ele>
        <time>2007-08-18T11:30:52Z</time>
      </trkpt>
      <trkpt lat="44.98717" lon="6.55929">
        <ele>2435.6374511719</ele>
        <time>2007-08-18T11:31:33Z</time>
      </trkpt>
      <trkpt lat="44.98719" lon="6.55925">
        <ele>2436.1181640625</ele>
        <time>2007-08-18T11:31:39Z</time>
      </trkpt>
      <trkpt lat="44.9874" lon="6.55897">
        <ele>2435.6374511719</ele>
        <time>2007-08-18T11:31:54Z</time>
      </trkpt>
      <trkpt lat="44.98777" lon="6.55879">
        <ele>2434.6762695312</ele>
        <time>2007-08-18T11:32:07Z</time>
      </trkpt>
      <trkpt lat="44.98837" lon="6.55871">
        <ele>2433.71484375</ele>
        <time>2007-08-18T11:32:23Z</time>
      </trkpt>
      <trkpt lat="44.98863" lon="6.55862">
        <ele>2430.3503417969</ele>
        <time>2007-08-18T11:32:31Z</time>
      </trkpt>
      <trkpt lat="44.98876" lon="6.55862">
        <ele>2430.3503417969</ele>
        <time>2007-08-18T11:32:35Z</time>
      </trkpt>
      <trkpt lat="44.98897" lon="6.55907">
        <ele>2428.908203125</ele>
        <time>2007-08-18T11:32:44Z</time>
      </trkpt>
      <trkpt lat="44.98908" lon="6.55922">
        <ele>2426.0241699219</ele>
        <time>2007-08-18T11:32:48Z</time>
      </trkpt>
      <trkpt lat="44.98914" lon="6.55931">
        <ele>2425.5434570312</ele>
        <time>2007-08-18T11:32:50Z</time>
      </trkpt>
      <trkpt lat="44.98921" lon="6.55946">
        <ele>2425.5434570312</ele>
        <time>2007-08-18T11:32:53Z</time>
      </trkpt>
      <trkpt lat="44.98931" lon="6.5595">
        <ele>2425.5434570312</ele>
        <time>2007-08-18T11:32:58Z</time>
      </trkpt>
      <trkpt lat="44.98934" lon="6.55937">
        <ele>2424.5822753906</ele>
        <time>2007-08-18T11:33:02Z</time>
      </trkpt>
      <trkpt lat="44.98944" lon="6.5592">
        <ele>2422.6596679688</ele>
        <time>2007-08-18T11:33:06Z</time>
      </trkpt>
      <trkpt lat="44.98964" lon="6.5591">
        <ele>2421.6982421875</ele>
        <time>2007-08-18T11:33:10Z</time>
      </trkpt>
      <trkpt lat="44.98979" lon="6.55897">
        <ele>2419.7756347656</ele>
        <time>2007-08-18T11:33:13Z</time>
      </trkpt>
      <trkpt lat="44.98991" lon="6.55897">
        <ele>2418.3337402344</ele>
        <time>2007-08-18T11:33:16Z</time>
      </trkpt>
      <trkpt lat="44.99002" lon="6.55903">
        <ele>2417.8530273438</ele>
        <time>2007-08-18T11:33:19Z</time>
      </trkpt>
      <trkpt lat="44.99007" lon="6.5591">
        <ele>2416.4111328125</ele>
        <time>2007-08-18T11:33:21Z</time>
      </trkpt>
      <trkpt lat="44.99011" lon="6.55918">
        <ele>2415.4499511719</ele>
        <time>2007-08-18T11:33:23Z</time>
      </trkpt>
      <trkpt lat="44.99013" lon="6.55935">
        <ele>2414.0078125</ele>
        <time>2007-08-18T11:33:26Z</time>
      </trkpt>
      <trkpt lat="44.99019" lon="6.55948">
        <ele>2412.5659179688</ele>
        <time>2007-08-18T11:33:34Z</time>
      </trkpt>
      <trkpt lat="44.99019" lon="6.55961">
        <ele>2413.5270996094</ele>
        <time>2007-08-18T11:33:50Z</time>
      </trkpt>
      <trkpt lat="44.99022" lon="6.55961">
        <ele>2413.5270996094</ele>
        <time>2007-08-18T11:34:06Z</time>
      </trkpt>
      <trkpt lat="44.99022" lon="6.55961">
        <ele>2414.0078125</ele>
        <time>2007-08-18T11:34:29Z</time>
      </trkpt>
      <trkpt lat="44.99022" lon="6.55961">
        <ele>2413.5270996094</ele>
        <time>2007-08-18T11:36:10Z</time>
      </trkpt>
      <trkpt lat="44.99022" lon="6.55959">
        <ele>2413.5270996094</ele>
        <time>2007-08-18T11:36:11Z</time>
      </trkpt>
      <trkpt lat="44.99022" lon="6.55952">
        <ele>2414.0078125</ele>
        <time>2007-08-18T11:36:26Z</time>
      </trkpt>
      <trkpt lat="44.99022" lon="6.5595">
        <ele>2414.9692382812</ele>
        <time>2007-08-18T11:53:38Z</time>
      </trkpt>
      <trkpt lat="44.99022" lon="6.5595">
        <ele>2412.0852050781</ele>
        <time>2007-08-18T12:05:28Z</time>
      </trkpt>
      <trkpt lat="44.99019" lon="6.55952">
        <ele>2413.5270996094</ele>
        <time>2007-08-18T12:07:53Z</time>
      </trkpt>
      <trkpt lat="44.99019" lon="6.55952">
        <ele>2410.6430664062</ele>
        <time>2007-08-18T12:14:50Z</time>
      </trkpt>
      <trkpt lat="44.99019" lon="6.55952">
        <ele>2412.0852050781</ele>
        <time>2007-08-18T12:17:33Z</time>
      </trkpt>
      <trkpt lat="44.99011" lon="6.55974">
        <ele>2411.1237792969</ele>
        <time>2007-08-18T12:17:47Z</time>
      </trkpt>
      <trkpt lat="44.99009" lon="6.5598">
        <ele>2410.6430664062</ele>
        <time>2007-08-18T12:17:51Z</time>
      </trkpt>
      <trkpt lat="44.99" lon="6.55982">
        <ele>2407.7592773438</ele>
        <time>2007-08-18T12:17:56Z</time>
      </trkpt>
      <trkpt lat="44.99" lon="6.55982">
        <ele>2407.7592773438</ele>
        <time>2007-08-18T12:17:57Z</time>
      </trkpt>
      <trkpt lat="44.98998" lon="6.55993">
        <ele>2405.3559570312</ele>
        <time>2007-08-18T12:18:11Z</time>
      </trkpt>
      <trkpt lat="44.98998" lon="6.55993">
        <ele>2404.8752441406</ele>
        <time>2007-08-18T12:18:23Z</time>
      </trkpt>
      <trkpt lat="44.98985" lon="6.56002">
        <ele>2401.9912109375</ele>
        <time>2007-08-18T12:18:29Z</time>
      </trkpt>
      <trkpt lat="44.98983" lon="6.56004">
        <ele>2401.9912109375</ele>
        <time>2007-08-18T12:18:30Z</time>
      </trkpt>
      <trkpt lat="44.98979" lon="6.56017">
        <ele>2400.0688476562</ele>
        <time>2007-08-18T12:18:34Z</time>
      </trkpt>
      <trkpt lat="44.98976" lon="6.56019">
        <ele>2398.6267089844</ele>
        <time>2007-08-18T12:18:36Z</time>
      </trkpt>
      <trkpt lat="44.98972" lon="6.56025">
        <ele>2396.2236328125</ele>
        <time>2007-08-18T12:18:40Z</time>
      </trkpt>
      <trkpt lat="44.98961" lon="6.56036">
        <ele>2392.8586425781</ele>
        <time>2007-08-18T12:18:48Z</time>
      </trkpt>
      <trkpt lat="44.98959" lon="6.56036">
        <ele>2391.4167480469</ele>
        <time>2007-08-18T12:18:50Z</time>
      </trkpt>
      <trkpt lat="44.98942" lon="6.56055">
        <ele>2388.5329589844</ele>
        <time>2007-08-18T12:19:00Z</time>
      </trkpt>
      <trkpt lat="44.98931" lon="6.56073">
        <ele>2384.6877441406</ele>
        <time>2007-08-18T12:19:07Z</time>
      </trkpt>
      <trkpt lat="44.98936" lon="6.56077">
        <ele>2382.2844238281</ele>
        <time>2007-08-18T12:19:18Z</time>
      </trkpt>
      <trkpt lat="44.98951" lon="6.56077">
        <ele>2380.3618164062</ele>
        <time>2007-08-18T12:19:44Z</time>
      </trkpt>
      <trkpt lat="44.98959" lon="6.56085">
        <ele>2379.4001464844</ele>
        <time>2007-08-18T12:19:57Z</time>
      </trkpt>
      <trkpt lat="44.9897" lon="6.56085">
        <ele>2377.9582519531</ele>
        <time>2007-08-18T12:20:22Z</time>
      </trkpt>
      <trkpt lat="44.98981" lon="6.56098">
        <ele>2375.07421875</ele>
        <time>2007-08-18T12:20:26Z</time>
      </trkpt>
      <trkpt lat="44.98989" lon="6.5612">
        <ele>2371.2290039062</ele>
        <time>2007-08-18T12:20:30Z</time>
      </trkpt>
      <trkpt lat="44.98996" lon="6.56131">
        <ele>2367.8645019531</ele>
        <time>2007-08-18T12:20:33Z</time>
      </trkpt>
      <trkpt lat="44.98998" lon="6.56139">
        <ele>2366.4226074219</ele>
        <time>2007-08-18T12:20:35Z</time>
      </trkpt>
      <trkpt lat="44.98998" lon="6.56148">
        <ele>2364.9807128906</ele>
        <time>2007-08-18T12:20:37Z</time>
      </trkpt>
      <trkpt lat="44.99009" lon="6.56158">
        <ele>2361.1352539062</ele>
        <time>2007-08-18T12:20:42Z</time>
      </trkpt>
      <trkpt lat="44.99013" lon="6.56161">
        <ele>2360.6545410156</ele>
        <time>2007-08-18T12:20:43Z</time>
      </trkpt>
      <trkpt lat="44.99024" lon="6.56161">
        <ele>2359.2126464844</ele>
        <time>2007-08-18T12:20:46Z</time>
      </trkpt>
      <trkpt lat="44.99032" lon="6.56152">
        <ele>2358.2512207031</ele>
        <time>2007-08-18T12:20:58Z</time>
      </trkpt>
      <trkpt lat="44.99041" lon="6.56146">
        <ele>2355.3674316406</ele>
        <time>2007-08-18T12:21:18Z</time>
      </trkpt>
      <trkpt lat="44.99045" lon="6.56146">
        <ele>2353.9255371094</ele>
        <time>2007-08-18T12:21:21Z</time>
      </trkpt>
      <trkpt lat="44.99047" lon="6.56146">
        <ele>2352.4833984375</ele>
        <time>2007-08-18T12:21:23Z</time>
      </trkpt>
      <trkpt lat="44.99056" lon="6.56141">
        <ele>2350.5607910156</ele>
        <time>2007-08-18T12:21:28Z</time>
      </trkpt>
      <trkpt lat="44.99069" lon="6.56143">
        <ele>2347.1960449219</ele>
        <time>2007-08-18T12:21:37Z</time>
      </trkpt>
      <trkpt lat="44.99073" lon="6.5615">
        <ele>2344.7927246094</ele>
        <time>2007-08-18T12:21:41Z</time>
      </trkpt>
      <trkpt lat="44.99079" lon="6.56152">
        <ele>2341.9089355469</ele>
        <time>2007-08-18T12:21:45Z</time>
      </trkpt>
      <trkpt lat="44.99088" lon="6.56154">
        <ele>2339.5056152344</ele>
        <time>2007-08-18T12:21:49Z</time>
      </trkpt>
      <trkpt lat="44.99094" lon="6.56158">
        <ele>2337.5830078125</ele>
        <time>2007-08-18T12:21:52Z</time>
      </trkpt>
      <trkpt lat="44.99101" lon="6.56158">
        <ele>2335.1796875</ele>
        <time>2007-08-18T12:22:02Z</time>
      </trkpt>
      <trkpt lat="44.99103" lon="6.56158">
        <ele>2334.2185058594</ele>
        <time>2007-08-18T12:22:42Z</time>
      </trkpt>
      <trkpt lat="44.9911" lon="6.56163">
        <ele>2333.2570800781</ele>
        <time>2007-08-18T12:22:47Z</time>
      </trkpt>
      <trkpt lat="44.99114" lon="6.56165">
        <ele>2331.8149414062</ele>
        <time>2007-08-18T12:22:50Z</time>
      </trkpt>
      <trkpt lat="44.99125" lon="6.56163">
        <ele>2328.9309082031</ele>
        <time>2007-08-18T12:22:55Z</time>
      </trkpt>
      <trkpt lat="44.99129" lon="6.56165">
        <ele>2327.4890136719</ele>
        <time>2007-08-18T12:23:03Z</time>
      </trkpt>
      <trkpt lat="44.99129" lon="6.56169">
        <ele>2325.56640625</ele>
        <time>2007-08-18T12:23:06Z</time>
      </trkpt>
      <trkpt lat="44.99144" lon="6.56171">
        <ele>2323.1633300781</ele>
        <time>2007-08-18T12:23:17Z</time>
      </trkpt>
      <trkpt lat="44.99146" lon="6.56171">
        <ele>2322.2019042969</ele>
        <time>2007-08-18T12:23:20Z</time>
      </trkpt>
      <trkpt lat="44.99157" lon="6.56169">
        <ele>2319.7985839844</ele>
        <time>2007-08-18T12:23:33Z</time>
      </trkpt>
      <trkpt lat="44.99159" lon="6.56169">
        <ele>2318.8374023438</ele>
        <time>2007-08-18T12:23:56Z</time>
      </trkpt>
      <trkpt lat="44.99165" lon="6.56173">
        <ele>2317.3952636719</ele>
        <time>2007-08-18T12:24:00Z</time>
      </trkpt>
      <trkpt lat="44.99176" lon="6.56176">
        <ele>2315.953125</ele>
        <time>2007-08-18T12:24:05Z</time>
      </trkpt>
      <trkpt lat="44.9918" lon="6.56178">
        <ele>2314.5112304688</ele>
        <time>2007-08-18T12:24:07Z</time>
      </trkpt>
      <trkpt lat="44.99187" lon="6.56178">
        <ele>2311.6274414062</ele>
        <time>2007-08-18T12:24:10Z</time>
      </trkpt>
      <trkpt lat="44.99189" lon="6.5618">
        <ele>2311.1467285156</ele>
        <time>2007-08-18T12:24:11Z</time>
      </trkpt>
      <trkpt lat="44.99189" lon="6.56182">
        <ele>2310.1853027344</ele>
        <time>2007-08-18T12:24:12Z</time>
      </trkpt>
      <trkpt lat="44.99195" lon="6.56188">
        <ele>2308.2626953125</ele>
        <time>2007-08-18T12:24:15Z</time>
      </trkpt>
      <trkpt lat="44.99213" lon="6.56199">
        <ele>2304.8981933594</ele>
        <time>2007-08-18T12:24:21Z</time>
      </trkpt>
      <trkpt lat="44.99217" lon="6.56201">
        <ele>2303.4562988281</ele>
        <time>2007-08-18T12:24:29Z</time>
      </trkpt>
      <trkpt lat="44.99232" lon="6.56212">
        <ele>2302.9755859375</ele>
        <time>2007-08-18T12:24:46Z</time>
      </trkpt>
      <trkpt lat="44.9924" lon="6.56227">
        <ele>2300.572265625</ele>
        <time>2007-08-18T12:24:51Z</time>
      </trkpt>
      <trkpt lat="44.99249" lon="6.56234">
        <ele>2298.1687011719</ele>
        <time>2007-08-18T12:24:54Z</time>
      </trkpt>
      <trkpt lat="44.99266" lon="6.56242">
        <ele>2296.7268066406</ele>
        <time>2007-08-18T12:25:00Z</time>
      </trkpt>
      <trkpt lat="44.99275" lon="6.56236">
        <ele>2294.3234863281</ele>
        <time>2007-08-18T12:25:05Z</time>
      </trkpt>
      <trkpt lat="44.99281" lon="6.56234">
        <ele>2291.9204101562</ele>
        <time>2007-08-18T12:25:11Z</time>
      </trkpt>
      <trkpt lat="44.99285" lon="6.56236">
        <ele>2290.958984375</ele>
        <time>2007-08-18T12:25:13Z</time>
      </trkpt>
      <trkpt lat="44.99303" lon="6.56244">
        <ele>2288.5559082031</ele>
        <time>2007-08-18T12:25:23Z</time>
      </trkpt>
      <trkpt lat="44.99333" lon="6.56257">
        <ele>2288.5559082031</ele>
        <time>2007-08-18T12:25:34Z</time>
      </trkpt>
      <trkpt lat="44.99343" lon="6.5627">
        <ele>2285.1911621094</ele>
        <time>2007-08-18T12:25:42Z</time>
      </trkpt>
      <trkpt lat="44.99346" lon="6.56272">
        <ele>2285.1911621094</ele>
        <time>2007-08-18T12:25:43Z</time>
      </trkpt>
      <trkpt lat="44.99352" lon="6.56279">
        <ele>2284.7106933594</ele>
        <time>2007-08-18T12:26:00Z</time>
      </trkpt>
      <trkpt lat="44.99367" lon="6.56298">
        <ele>2281.8264160156</ele>
        <time>2007-08-18T12:26:08Z</time>
      </trkpt>
      <trkpt lat="44.99395" lon="6.56311">
        <ele>2278.9423828125</ele>
        <time>2007-08-18T12:26:21Z</time>
      </trkpt>
      <trkpt lat="44.99412" lon="6.56319">
        <ele>2276.5393066406</ele>
        <time>2007-08-18T12:26:27Z</time>
      </trkpt>
      <trkpt lat="44.99431" lon="6.5633">
        <ele>2273.1748046875</ele>
        <time>2007-08-18T12:26:36Z</time>
      </trkpt>
      <trkpt lat="44.99446" lon="6.56332">
        <ele>2272.6940917969</ele>
        <time>2007-08-18T12:26:46Z</time>
      </trkpt>
      <trkpt lat="44.99449" lon="6.56332">
        <ele>2272.2133789062</ele>
        <time>2007-08-18T12:26:47Z</time>
      </trkpt>
      <trkpt lat="44.99459" lon="6.5633">
        <ele>2273.6552734375</ele>
        <time>2007-08-18T12:27:00Z</time>
      </trkpt>
      <trkpt lat="44.99481" lon="6.56326">
        <ele>2271.251953125</ele>
        <time>2007-08-18T12:27:33Z</time>
      </trkpt>
      <trkpt lat="44.99511" lon="6.56322">
        <ele>2270.771484375</ele>
        <time>2007-08-18T12:27:41Z</time>
      </trkpt>
      <trkpt lat="44.99547" lon="6.56324">
        <ele>2271.251953125</ele>
        <time>2007-08-18T12:27:53Z</time>
      </trkpt>
      <trkpt lat="44.99554" lon="6.56328">
        <ele>2271.251953125</ele>
        <time>2007-08-18T12:27:56Z</time>
      </trkpt>
      <trkpt lat="44.99573" lon="6.56326">
        <ele>2266.9260253906</ele>
        <time>2007-08-18T12:28:01Z</time>
      </trkpt>
      <trkpt lat="44.99577" lon="6.56326">
        <ele>2267.8872070312</ele>
        <time>2007-08-18T12:28:02Z</time>
      </trkpt>
      <trkpt lat="44.99588" lon="6.56322">
        <ele>2265.9645996094</ele>
        <time>2007-08-18T12:28:06Z</time>
      </trkpt>
      <trkpt lat="44.99601" lon="6.56315">
        <ele>2263.5612792969</ele>
        <time>2007-08-18T12:28:13Z</time>
      </trkpt>
      <trkpt lat="44.99609" lon="6.56315">
        <ele>2259.7160644531</ele>
        <time>2007-08-18T12:28:17Z</time>
      </trkpt>
      <trkpt lat="44.99612" lon="6.56315">
        <ele>2259.7160644531</ele>
        <time>2007-08-18T12:28:18Z</time>
      </trkpt>
      <trkpt lat="44.99622" lon="6.56319">
        <ele>2258.7548828125</ele>
        <time>2007-08-18T12:28:23Z</time>
      </trkpt>
      <trkpt lat="44.99637" lon="6.56313">
        <ele>2256.3515625</ele>
        <time>2007-08-18T12:28:36Z</time>
      </trkpt>
      <trkpt lat="44.99655" lon="6.56309">
        <ele>2256.3515625</ele>
        <time>2007-08-18T12:28:46Z</time>
      </trkpt>
      <trkpt lat="44.99676" lon="6.56302">
        <ele>2255.3903808594</ele>
        <time>2007-08-18T12:28:56Z</time>
      </trkpt>
      <trkpt lat="44.9971" lon="6.56289">
        <ele>2253.4677734375</ele>
        <time>2007-08-18T12:29:09Z</time>
      </trkpt>
      <trkpt lat="44.99753" lon="6.56264">
        <ele>2251.544921875</ele>
        <time>2007-08-18T12:29:22Z</time>
      </trkpt>
      <trkpt lat="44.9979" lon="6.56244">
        <ele>2250.1030273438</ele>
        <time>2007-08-18T12:29:34Z</time>
      </trkpt>
      <trkpt lat="44.99803" lon="6.56236">
        <ele>2249.6223144531</ele>
        <time>2007-08-18T12:29:43Z</time>
      </trkpt>
      <trkpt lat="44.99824" lon="6.56238">
        <ele>2247.2189941406</ele>
        <time>2007-08-18T12:29:57Z</time>
      </trkpt>
      <trkpt lat="44.99826" lon="6.56238">
        <ele>2247.6997070312</ele>
        <time>2007-08-18T12:29:59Z</time>
      </trkpt>
      <trkpt lat="44.99828" lon="6.56238">
        <ele>2246.2578125</ele>
        <time>2007-08-18T12:30:02Z</time>
      </trkpt>
      <trkpt lat="44.99833" lon="6.56236">
        <ele>2246.2578125</ele>
        <time>2007-08-18T12:30:10Z</time>
      </trkpt>
      <trkpt lat="44.99846" lon="6.56231">
        <ele>2243.8544921875</ele>
        <time>2007-08-18T12:30:22Z</time>
      </trkpt>
      <trkpt lat="44.99848" lon="6.56229">
        <ele>2243.3737792969</ele>
        <time>2007-08-18T12:30:24Z</time>
      </trkpt>
      <trkpt lat="44.99867" lon="6.56225">
        <ele>2242.4125976562</ele>
        <time>2007-08-18T12:30:35Z</time>
      </trkpt>
      <trkpt lat="44.9988" lon="6.56219">
        <ele>2242.4125976562</ele>
        <time>2007-08-18T12:30:42Z</time>
      </trkpt>
      <trkpt lat="44.99884" lon="6.56216">
        <ele>2241.9318847656</ele>
        <time>2007-08-18T12:30:45Z</time>
      </trkpt>
      <trkpt lat="44.99891" lon="6.56214">
        <ele>2240.9704589844</ele>
        <time>2007-08-18T12:30:50Z</time>
      </trkpt>
      <trkpt lat="44.99918" lon="6.56214">
        <ele>2240.4897460938</ele>
        <time>2007-08-18T12:31:02Z</time>
      </trkpt>
      <trkpt lat="44.99949" lon="6.56212">
        <ele>2237.6059570312</ele>
        <time>2007-08-18T12:31:13Z</time>
      </trkpt>
      <trkpt lat="44.99966" lon="6.56208">
        <ele>2237.6059570312</ele>
        <time>2007-08-18T12:31:22Z</time>
      </trkpt>
      <trkpt lat="44.99966" lon="6.56206">
        <ele>2235.2023925781</ele>
        <time>2007-08-18T12:31:37Z</time>
      </trkpt>
      <trkpt lat="44.9997" lon="6.56208">
        <ele>2233.7604980469</ele>
        <time>2007-08-18T12:31:41Z</time>
      </trkpt>
      <trkpt lat="44.99994" lon="6.5621">
        <ele>2231.3571777344</ele>
        <time>2007-08-18T12:31:48Z</time>
      </trkpt>
      <trkpt lat="45.00009" lon="6.56216">
        <ele>2229.9152832031</ele>
        <time>2007-08-18T12:31:53Z</time>
      </trkpt>
      <trkpt lat="45.0003" lon="6.56219">
        <ele>2229.4345703125</ele>
        <time>2007-08-18T12:31:59Z</time>
      </trkpt>
      <trkpt lat="45.00036" lon="6.56223">
        <ele>2228.9538574219</ele>
        <time>2007-08-18T12:32:03Z</time>
      </trkpt>
      <trkpt lat="45.00051" lon="6.56223">
        <ele>2227.0314941406</ele>
        <time>2007-08-18T12:32:16Z</time>
      </trkpt>
      <trkpt lat="45.00054" lon="6.56223">
        <ele>2226.55078125</ele>
        <time>2007-08-18T12:32:23Z</time>
      </trkpt>
      <trkpt lat="45.00058" lon="6.56229">
        <ele>2225.5893554688</ele>
        <time>2007-08-18T12:32:27Z</time>
      </trkpt>
      <trkpt lat="45.00082" lon="6.56231">
        <ele>2222.7055664062</ele>
        <time>2007-08-18T12:32:38Z</time>
      </trkpt>
      <trkpt lat="45.00092" lon="6.56236">
        <ele>2220.7829589844</ele>
        <time>2007-08-18T12:32:44Z</time>
      </trkpt>
      <trkpt lat="45.00103" lon="6.5624">
        <ele>2219.3408203125</ele>
        <time>2007-08-18T12:32:49Z</time>
      </trkpt>
      <trkpt lat="45.00109" lon="6.56244">
        <ele>2217.8986816406</ele>
        <time>2007-08-18T12:32:52Z</time>
      </trkpt>
      <trkpt lat="45.00114" lon="6.56246">
        <ele>2218.3793945312</ele>
        <time>2007-08-18T12:32:54Z</time>
      </trkpt>
      <trkpt lat="45.00142" lon="6.56266">
        <ele>2213.5727539062</ele>
        <time>2007-08-18T12:33:05Z</time>
      </trkpt>
      <trkpt lat="45.00161" lon="6.56276">
        <ele>2210.6889648438</ele>
        <time>2007-08-18T12:33:13Z</time>
      </trkpt>
      <trkpt lat="45.0017" lon="6.56291">
        <ele>2207.8051757812</ele>
        <time>2007-08-18T12:33:25Z</time>
      </trkpt>
      <trkpt lat="45.00172" lon="6.56291">
        <ele>2207.3244628906</ele>
        <time>2007-08-18T12:33:38Z</time>
      </trkpt>
      <trkpt lat="45.00174" lon="6.56291">
        <ele>2207.3244628906</ele>
        <time>2007-08-18T12:33:55Z</time>
      </trkpt>
      <trkpt lat="45.00176" lon="6.563">
        <ele>2204.9211425781</ele>
        <time>2007-08-18T12:34:00Z</time>
      </trkpt>
      <trkpt lat="45.00182" lon="6.56307">
        <ele>2203.4790039062</ele>
        <time>2007-08-18T12:34:03Z</time>
      </trkpt>
      <trkpt lat="45.00185" lon="6.56307">
        <ele>2202.517578125</ele>
        <time>2007-08-18T12:34:04Z</time>
      </trkpt>
      <trkpt lat="45.00191" lon="6.56313">
        <ele>2200.1145019531</ele>
        <time>2007-08-18T12:34:08Z</time>
      </trkpt>
      <trkpt lat="45.00204" lon="6.56334">
        <ele>2197.7111816406</ele>
        <time>2007-08-18T12:34:15Z</time>
      </trkpt>
      <trkpt lat="45.0021" lon="6.56339">
        <ele>2196.2692871094</ele>
        <time>2007-08-18T12:34:18Z</time>
      </trkpt>
      <trkpt lat="45.00215" lon="6.56347">
        <ele>2195.3078613281</ele>
        <time>2007-08-18T12:34:20Z</time>
      </trkpt>
      <trkpt lat="45.00219" lon="6.56354">
        <ele>2195.3078613281</ele>
        <time>2007-08-18T12:34:22Z</time>
      </trkpt>
      <trkpt lat="45.00249" lon="6.5639">
        <ele>2193.8659667969</ele>
        <time>2007-08-18T12:34:31Z</time>
      </trkpt>
      <trkpt lat="45.0026" lon="6.5641">
        <ele>2192.4240722656</ele>
        <time>2007-08-18T12:34:37Z</time>
      </trkpt>
      <trkpt lat="45.00264" lon="6.5642">
        <ele>2190.9819335938</ele>
        <time>2007-08-18T12:34:41Z</time>
      </trkpt>
      <trkpt lat="45.00266" lon="6.56427">
        <ele>2190.0207519531</ele>
        <time>2007-08-18T12:34:43Z</time>
      </trkpt>
      <trkpt lat="45.0027" lon="6.56435">
        <ele>2190.0207519531</ele>
        <time>2007-08-18T12:34:46Z</time>
      </trkpt>
      <trkpt lat="45.00275" lon="6.56448">
        <ele>2187.6171875</ele>
        <time>2007-08-18T12:34:50Z</time>
      </trkpt>
      <trkpt lat="45.00283" lon="6.5647">
        <ele>2184.7333984375</ele>
        <time>2007-08-18T12:34:59Z</time>
      </trkpt>
      <trkpt lat="45.00288" lon="6.56482">
        <ele>2184.7333984375</ele>
        <time>2007-08-18T12:35:06Z</time>
      </trkpt>
      <trkpt lat="45.0029" lon="6.56487">
        <ele>2185.2138671875</ele>
        <time>2007-08-18T12:35:20Z</time>
      </trkpt>
      <trkpt lat="45.00294" lon="6.56497">
        <ele>2185.2138671875</ele>
        <time>2007-08-18T12:35:32Z</time>
      </trkpt>
      <trkpt lat="45.00298" lon="6.56506">
        <ele>2185.2138671875</ele>
        <time>2007-08-18T12:35:42Z</time>
      </trkpt>
      <trkpt lat="45.00307" lon="6.56528">
        <ele>2184.7333984375</ele>
        <time>2007-08-18T12:35:51Z</time>
      </trkpt>
      <trkpt lat="45.00307" lon="6.5653">
        <ele>2185.2138671875</ele>
        <time>2007-08-18T12:35:53Z</time>
      </trkpt>
      <trkpt lat="45.00311" lon="6.56551">
        <ele>2181.8493652344</ele>
        <time>2007-08-18T12:36:02Z</time>
      </trkpt>
      <trkpt lat="45.00318" lon="6.56581">
        <ele>2183.2912597656</ele>
        <time>2007-08-18T12:36:14Z</time>
      </trkpt>
      <trkpt lat="45.00318" lon="6.56585">
        <ele>2183.7719726562</ele>
        <time>2007-08-18T12:36:15Z</time>
      </trkpt>
      <trkpt lat="45.00328" lon="6.56596">
        <ele>2185.2138671875</ele>
        <time>2007-08-18T12:36:22Z</time>
      </trkpt>
      <trkpt lat="45.00333" lon="6.56594">
        <ele>2184.2526855469</ele>
        <time>2007-08-18T12:36:24Z</time>
      </trkpt>
      <trkpt lat="45.00337" lon="6.56596">
        <ele>2183.7719726562</ele>
        <time>2007-08-18T12:36:37Z</time>
      </trkpt>
      <trkpt lat="45.00337" lon="6.56594">
        <ele>2184.2526855469</ele>
        <time>2007-08-18T12:37:18Z</time>
      </trkpt>
      <trkpt lat="45.00343" lon="6.56598">
        <ele>2184.2526855469</ele>
        <time>2007-08-18T12:37:39Z</time>
      </trkpt>
      <trkpt lat="45.0035" lon="6.56607">
        <ele>2183.2912597656</ele>
        <time>2007-08-18T12:37:42Z</time>
      </trkpt>
      <trkpt lat="45.00356" lon="6.56613">
        <ele>2182.330078125</ele>
        <time>2007-08-18T12:37:44Z</time>
      </trkpt>
      <trkpt lat="45.00367" lon="6.56622">
        <ele>2179.4460449219</ele>
        <time>2007-08-18T12:37:47Z</time>
      </trkpt>
      <trkpt lat="45.00371" lon="6.56626">
        <ele>2178.0041503906</ele>
        <time>2007-08-18T12:37:49Z</time>
      </trkpt>
      <trkpt lat="45.00393" lon="6.5665">
        <ele>2174.6396484375</ele>
        <time>2007-08-18T12:37:58Z</time>
      </trkpt>
      <trkpt lat="45.0041" lon="6.56682">
        <ele>2171.7553710938</ele>
        <time>2007-08-18T12:38:09Z</time>
      </trkpt>
      <trkpt lat="45.00429" lon="6.56706">
        <ele>2168.8715820312</ele>
        <time>2007-08-18T12:38:24Z</time>
      </trkpt>
      <trkpt lat="45.00451" lon="6.56731">
        <ele>2167.4294433594</ele>
        <time>2007-08-18T12:38:38Z</time>
      </trkpt>
      <trkpt lat="45.00463" lon="6.5674">
        <ele>2165.5070800781</ele>
        <time>2007-08-18T12:38:44Z</time>
      </trkpt>
      <trkpt lat="45.00472" lon="6.56749">
        <ele>2164.5456542969</ele>
        <time>2007-08-18T12:38:50Z</time>
      </trkpt>
      <trkpt lat="45.00481" lon="6.56755">
        <ele>2163.1037597656</ele>
        <time>2007-08-18T12:38:54Z</time>
      </trkpt>
      <trkpt lat="45.00487" lon="6.56759">
        <ele>2161.6618652344</ele>
        <time>2007-08-18T12:38:56Z</time>
      </trkpt>
      <trkpt lat="45.00513" lon="6.56791">
        <ele>2159.2585449219</ele>
        <time>2007-08-18T12:39:06Z</time>
      </trkpt>
      <trkpt lat="45.00539" lon="6.56826">
        <ele>2155.8935546875</ele>
        <time>2007-08-18T12:39:17Z</time>
      </trkpt>
      <trkpt lat="45.00558" lon="6.56841">
        <ele>2153.4904785156</ele>
        <time>2007-08-18T12:39:23Z</time>
      </trkpt>
      <trkpt lat="45.00569" lon="6.56847">
        <ele>2151.5678710938</ele>
        <time>2007-08-18T12:39:27Z</time>
      </trkpt>
      <trkpt lat="45.00588" lon="6.56854">
        <ele>2150.1259765625</ele>
        <time>2007-08-18T12:39:32Z</time>
      </trkpt>
      <trkpt lat="45.00631" lon="6.56867">
        <ele>2149.6452636719</ele>
        <time>2007-08-18T12:39:45Z</time>
      </trkpt>
      <trkpt lat="45.00691" lon="6.56886">
        <ele>2146.2807617188</ele>
        <time>2007-08-18T12:40:01Z</time>
      </trkpt>
      <trkpt lat="45.00706" lon="6.56886">
        <ele>2144.3579101562</ele>
        <time>2007-08-18T12:40:05Z</time>
      </trkpt>
      <trkpt lat="45.00725" lon="6.56886">
        <ele>2142.435546875</ele>
        <time>2007-08-18T12:40:12Z</time>
      </trkpt>
      <trkpt lat="45.0074" lon="6.56877">
        <ele>2139.5512695312</ele>
        <time>2007-08-18T12:40:16Z</time>
      </trkpt>
      <trkpt lat="45.00768" lon="6.56873">
        <ele>2135.2253417969</ele>
        <time>2007-08-18T12:40:23Z</time>
      </trkpt>
      <trkpt lat="45.00777" lon="6.56873">
        <ele>2134.7448730469</ele>
        <time>2007-08-18T12:40:25Z</time>
      </trkpt>
      <trkpt lat="45.0079" lon="6.56875">
        <ele>2133.302734375</ele>
        <time>2007-08-18T12:40:28Z</time>
      </trkpt>
      <trkpt lat="45.00848" lon="6.56882">
        <ele>2131.3801269531</ele>
        <time>2007-08-18T12:40:42Z</time>
      </trkpt>
      <trkpt lat="45.00863" lon="6.56884">
        <ele>2129.9382324219</ele>
        <time>2007-08-18T12:40:45Z</time>
      </trkpt>
      <trkpt lat="45.00884" lon="6.56886">
        <ele>2128.9768066406</ele>
        <time>2007-08-18T12:40:51Z</time>
      </trkpt>
      <trkpt lat="45.00895" lon="6.56879">
        <ele>2127.5349121094</ele>
        <time>2007-08-18T12:40:55Z</time>
      </trkpt>
      <trkpt lat="45.00912" lon="6.56882">
        <ele>2124.1704101562</ele>
        <time>2007-08-18T12:40:59Z</time>
      </trkpt>
      <trkpt lat="45.00914" lon="6.56882">
        <ele>2124.1704101562</ele>
        <time>2007-08-18T12:41:00Z</time>
      </trkpt>
      <trkpt lat="45.00929" lon="6.56886">
        <ele>2123.208984375</ele>
        <time>2007-08-18T12:41:05Z</time>
      </trkpt>
      <trkpt lat="45.0097" lon="6.56912">
        <ele>2120.3249511719</ele>
        <time>2007-08-18T12:41:17Z</time>
      </trkpt>
      <trkpt lat="45.00978" lon="6.56918">
        <ele>2119.8442382812</ele>
        <time>2007-08-18T12:41:21Z</time>
      </trkpt>
      <trkpt lat="45.00978" lon="6.56922">
        <ele>2119.3637695312</ele>
        <time>2007-08-18T12:41:24Z</time>
      </trkpt>
      <trkpt lat="45.00998" lon="6.56935">
        <ele>2115.9990234375</ele>
        <time>2007-08-18T12:41:33Z</time>
      </trkpt>
      <trkpt lat="45.01006" lon="6.5694">
        <ele>2114.0764160156</ele>
        <time>2007-08-18T12:41:35Z</time>
      </trkpt>
      <trkpt lat="45.01028" lon="6.56955">
        <ele>2110.7119140625</ele>
        <time>2007-08-18T12:41:40Z</time>
      </trkpt>
      <trkpt lat="45.01036" lon="6.56961">
        <ele>2109.2700195312</ele>
        <time>2007-08-18T12:41:42Z</time>
      </trkpt>
      <trkpt lat="45.01062" lon="6.56978">
        <ele>2104.9438476562</ele>
        <time>2007-08-18T12:41:48Z</time>
      </trkpt>
      <trkpt lat="45.01069" lon="6.56987">
        <ele>2103.9826660156</ele>
        <time>2007-08-18T12:41:50Z</time>
      </trkpt>
      <trkpt lat="45.01081" lon="6.56991">
        <ele>2102.0598144531</ele>
        <time>2007-08-18T12:41:54Z</time>
      </trkpt>
      <trkpt lat="45.01103" lon="6.56995">
        <ele>2100.6179199219</ele>
        <time>2007-08-18T12:42:00Z</time>
      </trkpt>
      <trkpt lat="45.01131" lon="6.57002">
        <ele>2096.7727050781</ele>
        <time>2007-08-18T12:42:09Z</time>
      </trkpt>
      <trkpt lat="45.01167" lon="6.5701">
        <ele>2091.9660644531</ele>
        <time>2007-08-18T12:42:19Z</time>
      </trkpt>
      <trkpt lat="45.01191" lon="6.57021">
        <ele>2089.08203125</ele>
        <time>2007-08-18T12:42:27Z</time>
      </trkpt>
      <trkpt lat="45.01202" lon="6.57032">
        <ele>2088.1208496094</ele>
        <time>2007-08-18T12:42:55Z</time>
      </trkpt>
      <trkpt lat="45.0121" lon="6.5704">
        <ele>2084.2756347656</ele>
        <time>2007-08-18T12:42:59Z</time>
      </trkpt>
      <trkpt lat="45.0121" lon="6.57043">
        <ele>2084.2756347656</ele>
        <time>2007-08-18T12:43:00Z</time>
      </trkpt>
      <trkpt lat="45.01217" lon="6.57047">
        <ele>2083.794921875</ele>
        <time>2007-08-18T12:43:16Z</time>
      </trkpt>
      <trkpt lat="45.0123" lon="6.57049">
        <ele>2083.794921875</ele>
        <time>2007-08-18T12:43:42Z</time>
      </trkpt>
      <trkpt lat="45.01238" lon="6.57058">
        <ele>2082.3530273438</ele>
        <time>2007-08-18T12:43:45Z</time>
      </trkpt>
      <trkpt lat="45.01247" lon="6.57064">
        <ele>2079.4689941406</ele>
        <time>2007-08-18T12:43:48Z</time>
      </trkpt>
      <trkpt lat="45.01251" lon="6.57075">
        <ele>2078.0270996094</ele>
        <time>2007-08-18T12:43:57Z</time>
      </trkpt>
      <trkpt lat="45.01251" lon="6.57077">
        <ele>2077.5463867188</ele>
        <time>2007-08-18T12:45:16Z</time>
      </trkpt>
      <trkpt lat="45.01251" lon="6.57077">
        <ele>2075.6235351562</ele>
        <time>2007-08-18T12:45:34Z</time>
      </trkpt>
      <trkpt lat="45.01251" lon="6.57077">
        <ele>2078.5078125</ele>
        <time>2007-08-18T12:45:35Z</time>
      </trkpt>
      <trkpt lat="45.01251" lon="6.57077">
        <ele>2078.5078125</ele>
        <time>2007-08-18T12:45:36Z</time>
      </trkpt>
      <trkpt lat="45.01253" lon="6.57081">
        <ele>2077.5463867188</ele>
        <time>2007-08-18T12:45:38Z</time>
      </trkpt>
      <trkpt lat="45.01262" lon="6.5709">
        <ele>2076.1044921875</ele>
        <time>2007-08-18T12:45:41Z</time>
      </trkpt>
      <trkpt lat="45.01272" lon="6.57105">
        <ele>2072.7397460938</ele>
        <time>2007-08-18T12:45:45Z</time>
      </trkpt>
      <trkpt lat="45.01281" lon="6.57118">
        <ele>2069.3752441406</ele>
        <time>2007-08-18T12:45:48Z</time>
      </trkpt>
      <trkpt lat="45.01292" lon="6.57128">
        <ele>2066.9719238281</ele>
        <time>2007-08-18T12:45:51Z</time>
      </trkpt>
      <trkpt lat="45.01296" lon="6.57141">
        <ele>2064.5686035156</ele>
        <time>2007-08-18T12:45:54Z</time>
      </trkpt>
      <trkpt lat="45.01296" lon="6.57158">
        <ele>2062.6459960938</ele>
        <time>2007-08-18T12:45:57Z</time>
      </trkpt>
      <trkpt lat="45.01302" lon="6.57171">
        <ele>2060.7233886719</ele>
        <time>2007-08-18T12:46:00Z</time>
      </trkpt>
      <trkpt lat="45.01307" lon="6.5718">
        <ele>2060.2426757812</ele>
        <time>2007-08-18T12:46:02Z</time>
      </trkpt>
      <trkpt lat="45.01318" lon="6.57186">
        <ele>2055.9165039062</ele>
        <time>2007-08-18T12:46:07Z</time>
      </trkpt>
      <trkpt lat="45.0132" lon="6.57191">
        <ele>2055.4360351562</ele>
        <time>2007-08-18T12:46:08Z</time>
      </trkpt>
      <trkpt lat="45.01326" lon="6.57201">
        <ele>2053.5134277344</ele>
        <time>2007-08-18T12:46:10Z</time>
      </trkpt>
      <trkpt lat="45.01341" lon="6.57229">
        <ele>2048.7067871094</ele>
        <time>2007-08-18T12:46:15Z</time>
      </trkpt>
      <trkpt lat="45.01348" lon="6.5724">
        <ele>2047.2648925781</ele>
        <time>2007-08-18T12:46:17Z</time>
      </trkpt>
      <trkpt lat="45.0135" lon="6.57251">
        <ele>2045.8229980469</ele>
        <time>2007-08-18T12:46:19Z</time>
      </trkpt>
      <trkpt lat="45.01354" lon="6.57274">
        <ele>2042.4582519531</ele>
        <time>2007-08-18T12:46:25Z</time>
      </trkpt>
      <trkpt lat="45.01356" lon="6.57294">
        <ele>2039.57421875</ele>
        <time>2007-08-18T12:46:30Z</time>
      </trkpt>
      <trkpt lat="45.01365" lon="6.57326">
        <ele>2036.2097167969</ele>
        <time>2007-08-18T12:46:37Z</time>
      </trkpt>
      <trkpt lat="45.01367" lon="6.57336">
        <ele>2034.7678222656</ele>
        <time>2007-08-18T12:46:39Z</time>
      </trkpt>
      <trkpt lat="45.01371" lon="6.57356">
        <ele>2034.287109375</ele>
        <time>2007-08-18T12:46:42Z</time>
      </trkpt>
      <trkpt lat="45.01378" lon="6.57384">
        <ele>2029.9611816406</ele>
        <time>2007-08-18T12:46:46Z</time>
      </trkpt>
      <trkpt lat="45.01382" lon="6.57437">
        <ele>2025.154296875</ele>
        <time>2007-08-18T12:46:55Z</time>
      </trkpt>
      <trkpt lat="45.01382" lon="6.57461">
        <ele>2023.2319335938</ele>
        <time>2007-08-18T12:46:59Z</time>
      </trkpt>
      <trkpt lat="45.01388" lon="6.57478">
        <ele>2018.9060058594</ele>
        <time>2007-08-18T12:47:03Z</time>
      </trkpt>
      <trkpt lat="45.0139" lon="6.5748">
        <ele>2018.9060058594</ele>
        <time>2007-08-18T12:47:04Z</time>
      </trkpt>
      <trkpt lat="45.01393" lon="6.57485">
        <ele>2018.9060058594</ele>
        <time>2007-08-18T12:47:05Z</time>
      </trkpt>
      <trkpt lat="45.01399" lon="6.57512">
        <ele>2015.0607910156</ele>
        <time>2007-08-18T12:47:16Z</time>
      </trkpt>
      <trkpt lat="45.01399" lon="6.57515">
        <ele>2014.580078125</ele>
        <time>2007-08-18T12:47:17Z</time>
      </trkpt>
      <trkpt lat="45.01403" lon="6.5753">
        <ele>2013.1381835938</ele>
        <time>2007-08-18T12:47:21Z</time>
      </trkpt>
      <trkpt lat="45.01403" lon="6.57534">
        <ele>2011.6960449219</ele>
        <time>2007-08-18T12:47:23Z</time>
      </trkpt>
      <trkpt lat="45.01405" lon="6.57534">
        <ele>2011.2153320312</ele>
        <time>2007-08-18T12:47:45Z</time>
      </trkpt>
      <trkpt lat="45.0142" lon="6.57545">
        <ele>2008.8120117188</ele>
        <time>2007-08-18T12:47:53Z</time>
      </trkpt>
      <trkpt lat="45.01431" lon="6.57547">
        <ele>2006.8894042969</ele>
        <time>2007-08-18T12:47:58Z</time>
      </trkpt>
      <trkpt lat="45.01446" lon="6.57555">
        <ele>2003.5249023438</ele>
        <time>2007-08-18T12:48:04Z</time>
      </trkpt>
      <trkpt lat="45.01459" lon="6.57564">
        <ele>2000.6408691406</ele>
        <time>2007-08-18T12:48:09Z</time>
      </trkpt>
      <trkpt lat="45.01463" lon="6.57568">
        <ele>1999.6796875</ele>
        <time>2007-08-18T12:48:11Z</time>
      </trkpt>
      <trkpt lat="45.01474" lon="6.57588">
        <ele>1996.3151855469</ele>
        <time>2007-08-18T12:48:19Z</time>
      </trkpt>
      <trkpt lat="45.01478" lon="6.57598">
        <ele>1993.9116210938</ele>
        <time>2007-08-18T12:48:22Z</time>
      </trkpt>
      <trkpt lat="45.01481" lon="6.57607">
        <ele>1991.9890136719</ele>
        <time>2007-08-18T12:48:24Z</time>
      </trkpt>
      <trkpt lat="45.015" lon="6.57611">
        <ele>1989.1049804688</ele>
        <time>2007-08-18T12:48:34Z</time>
      </trkpt>
      <trkpt lat="45.01508" lon="6.57605">
        <ele>1984.779296875</ele>
        <time>2007-08-18T12:48:39Z</time>
      </trkpt>
      <trkpt lat="45.01515" lon="6.57598">
        <ele>1980.9340820312</ele>
        <time>2007-08-18T12:48:43Z</time>
      </trkpt>
      <trkpt lat="45.01519" lon="6.57596">
        <ele>1979.4916992188</ele>
        <time>2007-08-18T12:48:45Z</time>
      </trkpt>
      <trkpt lat="45.01534" lon="6.57592">
        <ele>1975.1657714844</ele>
        <time>2007-08-18T12:48:51Z</time>
      </trkpt>
      <trkpt lat="45.01545" lon="6.57603">
        <ele>1972.7626953125</ele>
        <time>2007-08-18T12:48:56Z</time>
      </trkpt>
      <trkpt lat="45.01554" lon="6.57645">
        <ele>1968.9174804688</ele>
        <time>2007-08-18T12:49:05Z</time>
      </trkpt>
      <trkpt lat="45.01558" lon="6.57671">
        <ele>1966.5141601562</ele>
        <time>2007-08-18T12:49:14Z</time>
      </trkpt>
      <trkpt lat="45.0156" lon="6.57703">
        <ele>1964.5915527344</ele>
        <time>2007-08-18T12:49:32Z</time>
      </trkpt>
      <trkpt lat="45.0156" lon="6.57708">
        <ele>1964.1108398438</ele>
        <time>2007-08-18T12:49:33Z</time>
      </trkpt>
      <trkpt lat="45.01564" lon="6.57727">
        <ele>1962.1879882812</ele>
        <time>2007-08-18T12:49:37Z</time>
      </trkpt>
      <trkpt lat="45.01575" lon="6.57731">
        <ele>1960.74609375</ele>
        <time>2007-08-18T12:49:40Z</time>
      </trkpt>
      <trkpt lat="45.01594" lon="6.57706">
        <ele>1954.9782714844</ele>
        <time>2007-08-18T12:49:49Z</time>
      </trkpt>
      <trkpt lat="45.01603" lon="6.57693">
        <ele>1951.6137695312</ele>
        <time>2007-08-18T12:49:53Z</time>
      </trkpt>
      <trkpt lat="45.01609" lon="6.57678">
        <ele>1948.7297363281</ele>
        <time>2007-08-18T12:49:57Z</time>
      </trkpt>
      <trkpt lat="45.01614" lon="6.57671">
        <ele>1947.7683105469</ele>
        <time>2007-08-18T12:49:59Z</time>
      </trkpt>
      <trkpt lat="45.01618" lon="6.57676">
        <ele>1944.8842773438</ele>
        <time>2007-08-18T12:50:02Z</time>
      </trkpt>
      <trkpt lat="45.01618" lon="6.57682">
        <ele>1943.4423828125</ele>
        <time>2007-08-18T12:50:04Z</time>
      </trkpt>
      <trkpt lat="45.01618" lon="6.57691">
        <ele>1942.4812011719</ele>
        <time>2007-08-18T12:50:06Z</time>
      </trkpt>
      <trkpt lat="45.01611" lon="6.57708">
        <ele>1937.1938476562</ele>
        <time>2007-08-18T12:50:13Z</time>
      </trkpt>
      <trkpt lat="45.01611" lon="6.5771">
        <ele>1937.1938476562</ele>
        <time>2007-08-18T12:50:14Z</time>
      </trkpt>
      <trkpt lat="45.01611" lon="6.57727">
        <ele>1933.3486328125</ele>
        <time>2007-08-18T12:50:20Z</time>
      </trkpt>
      <trkpt lat="45.01611" lon="6.57729">
        <ele>1932.8679199219</ele>
        <time>2007-08-18T12:50:21Z</time>
      </trkpt>
      <trkpt lat="45.01618" lon="6.57729">
        <ele>1931.42578125</ele>
        <time>2007-08-18T12:50:25Z</time>
      </trkpt>
      <trkpt lat="45.01622" lon="6.57725">
        <ele>1929.9838867188</ele>
        <time>2007-08-18T12:50:28Z</time>
      </trkpt>
      <trkpt lat="45.01635" lon="6.57716">
        <ele>1926.138671875</ele>
        <time>2007-08-18T12:50:35Z</time>
      </trkpt>
      <trkpt lat="45.01644" lon="6.5771">
        <ele>1922.7741699219</ele>
        <time>2007-08-18T12:50:41Z</time>
      </trkpt>
      <trkpt lat="45.01646" lon="6.57708">
        <ele>1922.2934570312</ele>
        <time>2007-08-18T12:50:42Z</time>
      </trkpt>
      <trkpt lat="45.01652" lon="6.57703">
        <ele>1920.3708496094</ele>
        <time>2007-08-18T12:50:45Z</time>
      </trkpt>
      <trkpt lat="45.01669" lon="6.57688">
        <ele>1917.9675292969</ele>
        <time>2007-08-18T12:50:55Z</time>
      </trkpt>
      <trkpt lat="45.01684" lon="6.57676">
        <ele>1914.6027832031</ele>
        <time>2007-08-18T12:51:01Z</time>
      </trkpt>
      <trkpt lat="45.01691" lon="6.57667">
        <ele>1912.1994628906</ele>
        <time>2007-08-18T12:51:05Z</time>
      </trkpt>
      <trkpt lat="45.01706" lon="6.57652">
        <ele>1908.8349609375</ele>
        <time>2007-08-18T12:51:12Z</time>
      </trkpt>
      <trkpt lat="45.01717" lon="6.57643">
        <ele>1905.4704589844</ele>
        <time>2007-08-18T12:51:17Z</time>
      </trkpt>
      <trkpt lat="45.01717" lon="6.57641">
        <ele>1905.4704589844</ele>
        <time>2007-08-18T12:51:18Z</time>
      </trkpt>
      <trkpt lat="45.01717" lon="6.57633">
        <ele>1903.5478515625</ele>
        <time>2007-08-18T12:51:23Z</time>
      </trkpt>
      <trkpt lat="45.01712" lon="6.5763">
        <ele>1903.5478515625</ele>
        <time>2007-08-18T12:51:40Z</time>
      </trkpt>
      <trkpt lat="45.01708" lon="6.57628">
        <ele>1903.5478515625</ele>
        <time>2007-08-18T12:52:04Z</time>
      </trkpt>
      <trkpt lat="45.01708" lon="6.57628">
        <ele>1903.0671386719</ele>
        <time>2007-08-18T12:52:08Z</time>
      </trkpt>
      <trkpt lat="45.01712" lon="6.57622">
        <ele>1899.7023925781</ele>
        <time>2007-08-18T12:52:14Z</time>
      </trkpt>
      <trkpt lat="45.01717" lon="6.57615">
        <ele>1896.818359375</ele>
        <time>2007-08-18T12:52:17Z</time>
      </trkpt>
      <trkpt lat="45.01719" lon="6.576">
        <ele>1892.4926757812</ele>
        <time>2007-08-18T12:52:21Z</time>
      </trkpt>
      <trkpt lat="45.01717" lon="6.57588">
        <ele>1889.1279296875</ele>
        <time>2007-08-18T12:52:24Z</time>
      </trkpt>
      <trkpt lat="45.01714" lon="6.57579">
        <ele>1888.1667480469</ele>
        <time>2007-08-18T12:52:26Z</time>
      </trkpt>
      <trkpt lat="45.01712" lon="6.5756">
        <ele>1888.1667480469</ele>
        <time>2007-08-18T12:52:38Z</time>
      </trkpt>
      <trkpt lat="45.01717" lon="6.57557">
        <ele>1886.244140625</ele>
        <time>2007-08-18T12:52:51Z</time>
      </trkpt>
      <trkpt lat="45.01719" lon="6.57551">
        <ele>1881.91796875</ele>
        <time>2007-08-18T12:52:55Z</time>
      </trkpt>
      <trkpt lat="45.01723" lon="6.5754">
        <ele>1879.5146484375</ele>
        <time>2007-08-18T12:53:00Z</time>
      </trkpt>
      <trkpt lat="45.01729" lon="6.5753">
        <ele>1876.1501464844</ele>
        <time>2007-08-18T12:53:05Z</time>
      </trkpt>
      <trkpt lat="45.01732" lon="6.57521">
        <ele>1872.3049316406</ele>
        <time>2007-08-18T12:53:09Z</time>
      </trkpt>
      <trkpt lat="45.01734" lon="6.57515">
        <ele>1870.3823242188</ele>
        <time>2007-08-18T12:53:12Z</time>
      </trkpt>
      <trkpt lat="45.01736" lon="6.57506">
        <ele>1868.4597167969</ele>
        <time>2007-08-18T12:53:15Z</time>
      </trkpt>
      <trkpt lat="45.01742" lon="6.57493">
        <ele>1864.6142578125</ele>
        <time>2007-08-18T12:53:20Z</time>
      </trkpt>
      <trkpt lat="45.01742" lon="6.57489">
        <ele>1862.6916503906</ele>
        <time>2007-08-18T12:53:22Z</time>
      </trkpt>
      <trkpt lat="45.01747" lon="6.5748">
        <ele>1860.2883300781</ele>
        <time>2007-08-18T12:53:25Z</time>
      </trkpt>
      <trkpt lat="45.01753" lon="6.57465">
        <ele>1856.923828125</ele>
        <time>2007-08-18T12:53:31Z</time>
      </trkpt>
      <trkpt lat="45.01764" lon="6.57442">
        <ele>1853.0786132812</ele>
        <time>2007-08-18T12:53:43Z</time>
      </trkpt>
      <trkpt lat="45.01775" lon="6.57427">
        <ele>1849.7138671875</ele>
        <time>2007-08-18T12:53:49Z</time>
      </trkpt>
      <trkpt lat="45.01785" lon="6.57401">
        <ele>1846.3493652344</ele>
        <time>2007-08-18T12:53:59Z</time>
      </trkpt>
      <trkpt lat="45.0179" lon="6.57379">
        <ele>1842.5041503906</ele>
        <time>2007-08-18T12:54:08Z</time>
      </trkpt>
      <trkpt lat="45.0179" lon="6.57377">
        <ele>1842.5041503906</ele>
        <time>2007-08-18T12:54:09Z</time>
      </trkpt>
      <trkpt lat="45.01796" lon="6.57367">
        <ele>1839.1394042969</ele>
        <time>2007-08-18T12:54:14Z</time>
      </trkpt>
      <trkpt lat="45.01796" lon="6.57364">
        <ele>1839.6201171875</ele>
        <time>2007-08-18T12:54:15Z</time>
      </trkpt>
      <trkpt lat="45.01807" lon="6.57351">
        <ele>1836.2556152344</ele>
        <time>2007-08-18T12:54:23Z</time>
      </trkpt>
      <trkpt lat="45.01811" lon="6.57347">
        <ele>1834.3327636719</ele>
        <time>2007-08-18T12:54:27Z</time>
      </trkpt>
      <trkpt lat="45.01822" lon="6.57339">
        <ele>1830.9682617188</ele>
        <time>2007-08-18T12:54:34Z</time>
      </trkpt>
      <trkpt lat="45.01828" lon="6.57336">
        <ele>1829.5261230469</ele>
        <time>2007-08-18T12:54:38Z</time>
      </trkpt>
      <trkpt lat="45.01839" lon="6.57343">
        <ele>1826.1616210938</ele>
        <time>2007-08-18T12:54:49Z</time>
      </trkpt>
      <trkpt lat="45.01843" lon="6.5736">
        <ele>1823.2778320312</ele>
        <time>2007-08-18T12:54:57Z</time>
      </trkpt>
      <trkpt lat="45.01845" lon="6.57375">
        <ele>1820.3937988281</ele>
        <time>2007-08-18T12:55:04Z</time>
      </trkpt>
      <trkpt lat="45.01845" lon="6.5739">
        <ele>1817.990234375</ele>
        <time>2007-08-18T12:55:10Z</time>
      </trkpt>
      <trkpt lat="45.01848" lon="6.57422">
        <ele>1814.6257324219</ele>
        <time>2007-08-18T12:55:22Z</time>
      </trkpt>
      <trkpt lat="45.01852" lon="6.57448">
        <ele>1811.7419433594</ele>
        <time>2007-08-18T12:55:28Z</time>
      </trkpt>
      <trkpt lat="45.01856" lon="6.57482">
        <ele>1808.3771972656</ele>
        <time>2007-08-18T12:55:35Z</time>
      </trkpt>
      <trkpt lat="45.01854" lon="6.5753">
        <ele>1805.0126953125</ele>
        <time>2007-08-18T12:55:45Z</time>
      </trkpt>
      <trkpt lat="45.01854" lon="6.57534">
        <ele>1805.0126953125</ele>
        <time>2007-08-18T12:55:46Z</time>
      </trkpt>
      <trkpt lat="45.01837" lon="6.5763">
        <ele>1802.1284179688</ele>
        <time>2007-08-18T12:55:56Z</time>
      </trkpt>
      <trkpt lat="45.01835" lon="6.57637">
        <ele>1799.7253417969</ele>
        <time>2007-08-18T12:55:58Z</time>
      </trkpt>
      <trkpt lat="45.0183" lon="6.57663">
        <ele>1796.8413085938</ele>
        <time>2007-08-18T12:56:04Z</time>
      </trkpt>
      <trkpt lat="45.01886" lon="6.57703">
        <ele>1793.4768066406</ele>
        <time>2007-08-18T12:56:10Z</time>
      </trkpt>
      <trkpt lat="45.01878" lon="6.57697">
        <ele>1793.4768066406</ele>
        <time>2007-08-18T12:56:11Z</time>
      </trkpt>
      <trkpt lat="45.01828" lon="6.57635">
        <ele>1790.1123046875</ele>
        <time>2007-08-18T12:56:16Z</time>
      </trkpt>
      <trkpt lat="45.01729" lon="6.57474">
        <ele>1787.2280273438</ele>
        <time>2007-08-18T12:56:23Z</time>
      </trkpt>
      <trkpt lat="45.01873" lon="6.57755">
        <ele>1784.3442382812</ele>
        <time>2007-08-18T12:56:28Z</time>
      </trkpt>
      <trkpt lat="45.01867" lon="6.57759">
        <ele>1783.3828125</ele>
        <time>2007-08-18T12:56:40Z</time>
      </trkpt>
      <trkpt lat="45.01873" lon="6.5777">
        <ele>1780.0183105469</ele>
        <time>2007-08-18T12:57:03Z</time>
      </trkpt>
      <trkpt lat="45.01873" lon="6.57774">
        <ele>1779.0568847656</ele>
        <time>2007-08-18T12:57:06Z</time>
      </trkpt>
      <trkpt lat="45.01878" lon="6.57815">
        <ele>1776.6538085938</ele>
        <time>2007-08-18T12:57:15Z</time>
      </trkpt>
      <trkpt lat="45.01878" lon="6.57817">
        <ele>1776.6538085938</ele>
        <time>2007-08-18T12:57:16Z</time>
      </trkpt>
      <trkpt lat="45.0188" lon="6.57821">
        <ele>1776.6538085938</ele>
        <time>2007-08-18T12:57:18Z</time>
      </trkpt>
      <trkpt lat="45.0188" lon="6.57886">
        <ele>1775.2116699219</ele>
        <time>2007-08-18T12:57:35Z</time>
      </trkpt>
      <trkpt lat="45.01869" lon="6.57948">
        <ele>1774.2504882812</ele>
        <time>2007-08-18T12:57:53Z</time>
      </trkpt>
      <trkpt lat="45.01867" lon="6.57967">
        <ele>1773.2893066406</ele>
        <time>2007-08-18T12:58:09Z</time>
      </trkpt>
      <trkpt lat="45.01867" lon="6.57993">
        <ele>1773.7697753906</ele>
        <time>2007-08-18T12:58:22Z</time>
      </trkpt>
      <trkpt lat="45.0185" lon="6.58081">
        <ele>1772.80859375</ele>
        <time>2007-08-18T12:58:38Z</time>
      </trkpt>
      <trkpt lat="45.01848" lon="6.58085">
        <ele>1773.2893066406</ele>
        <time>2007-08-18T12:58:39Z</time>
      </trkpt>
      <trkpt lat="45.01835" lon="6.58105">
        <ele>1772.3278808594</ele>
        <time>2007-08-18T12:58:43Z</time>
      </trkpt>
      <trkpt lat="45.01817" lon="6.5812">
        <ele>1772.3278808594</ele>
        <time>2007-08-18T12:58:47Z</time>
      </trkpt>
      <trkpt lat="45.01777" lon="6.58148">
        <ele>1771.3662109375</ele>
        <time>2007-08-18T12:58:59Z</time>
      </trkpt>
      <trkpt lat="45.01757" lon="6.58163">
        <ele>1771.3662109375</ele>
        <time>2007-08-18T12:59:05Z</time>
      </trkpt>
      <trkpt lat="45.01745" lon="6.58173">
        <ele>1770.4050292969</ele>
        <time>2007-08-18T12:59:08Z</time>
      </trkpt>
      <trkpt lat="45.01714" lon="6.58231">
        <ele>1767.5209960938</ele>
        <time>2007-08-18T12:59:20Z</time>
      </trkpt>
      <trkpt lat="45.01699" lon="6.58287">
        <ele>1767.0405273438</ele>
        <time>2007-08-18T12:59:37Z</time>
      </trkpt>
      <trkpt lat="45.01693" lon="6.58366">
        <ele>1766.0791015625</ele>
        <time>2007-08-18T13:00:00Z</time>
      </trkpt>
      <trkpt lat="45.01708" lon="6.58424">
        <ele>1763.67578125</ele>
        <time>2007-08-18T13:00:14Z</time>
      </trkpt>
      <trkpt lat="45.0171" lon="6.58437">
        <ele>1760.3112792969</ele>
        <time>2007-08-18T13:00:18Z</time>
      </trkpt>
      <trkpt lat="45.0171" lon="6.58444">
        <ele>1756.9467773438</ele>
        <time>2007-08-18T13:00:21Z</time>
      </trkpt>
      <trkpt lat="45.0171" lon="6.58446">
        <ele>1756.9467773438</ele>
        <time>2007-08-18T13:00:22Z</time>
      </trkpt>
      <trkpt lat="45.0171" lon="6.58454">
        <ele>1755.5046386719</ele>
        <time>2007-08-18T13:00:25Z</time>
      </trkpt>
      <trkpt lat="45.01712" lon="6.58467">
        <ele>1752.1398925781</ele>
        <time>2007-08-18T13:00:30Z</time>
      </trkpt>
      <trkpt lat="45.01714" lon="6.58478">
        <ele>1749.2561035156</ele>
        <time>2007-08-18T13:00:34Z</time>
      </trkpt>
      <trkpt lat="45.01714" lon="6.58489">
        <ele>1748.2946777344</ele>
        <time>2007-08-18T13:00:37Z</time>
      </trkpt>
      <trkpt lat="45.01712" lon="6.58497">
        <ele>1745.8916015625</ele>
        <time>2007-08-18T13:00:40Z</time>
      </trkpt>
      <trkpt lat="45.0171" lon="6.58506">
        <ele>1743.0075683594</ele>
        <time>2007-08-18T13:00:44Z</time>
      </trkpt>
      <trkpt lat="45.01706" lon="6.58514">
        <ele>1740.1237792969</ele>
        <time>2007-08-18T13:00:47Z</time>
      </trkpt>
      <trkpt lat="45.01699" lon="6.58525">
        <ele>1737.7202148438</ele>
        <time>2007-08-18T13:00:50Z</time>
      </trkpt>
      <trkpt lat="45.01693" lon="6.58532">
        <ele>1736.7587890625</ele>
        <time>2007-08-18T13:00:52Z</time>
      </trkpt>
      <trkpt lat="45.01663" lon="6.58555">
        <ele>1732.9135742188</ele>
        <time>2007-08-18T13:01:02Z</time>
      </trkpt>
      <trkpt lat="45.01657" lon="6.58568">
        <ele>1731.9523925781</ele>
        <time>2007-08-18T13:01:06Z</time>
      </trkpt>
      <trkpt lat="45.01663" lon="6.58572">
        <ele>1730.9912109375</ele>
        <time>2007-08-18T13:01:36Z</time>
      </trkpt>
      <trkpt lat="45.01663" lon="6.58577">
        <ele>1727.6264648438</ele>
        <time>2007-08-18T13:01:53Z</time>
      </trkpt>
      <trkpt lat="45.01663" lon="6.58577">
        <ele>1734.3557128906</ele>
        <time>2007-08-18T13:01:54Z</time>
      </trkpt>
      <trkpt lat="45.01663" lon="6.58575">
        <ele>1730.5104980469</ele>
        <time>2007-08-18T13:01:55Z</time>
      </trkpt>
      <trkpt lat="45.01663" lon="6.58572">
        <ele>1730.9912109375</ele>
        <time>2007-08-18T13:02:08Z</time>
      </trkpt>
      <trkpt lat="45.01652" lon="6.586">
        <ele>1728.587890625</ele>
        <time>2007-08-18T13:03:10Z</time>
      </trkpt>
      <trkpt lat="45.01646" lon="6.5863">
        <ele>1725.2231445312</ele>
        <time>2007-08-18T13:03:19Z</time>
      </trkpt>
      <trkpt lat="45.01646" lon="6.58633">
        <ele>1725.2231445312</ele>
        <time>2007-08-18T13:03:20Z</time>
      </trkpt>
      <trkpt lat="45.01644" lon="6.58639">
        <ele>1723.7810058594</ele>
        <time>2007-08-18T13:03:22Z</time>
      </trkpt>
      <trkpt lat="45.01637" lon="6.58663">
        <ele>1719.4553222656</ele>
        <time>2007-08-18T13:03:28Z</time>
      </trkpt>
      <trkpt lat="45.01624" lon="6.58718">
        <ele>1717.0520019531</ele>
        <time>2007-08-18T13:03:43Z</time>
      </trkpt>
      <trkpt lat="45.01637" lon="6.58738">
        <ele>1714.6486816406</ele>
        <time>2007-08-18T13:03:53Z</time>
      </trkpt>
      <trkpt lat="45.01639" lon="6.5874">
        <ele>1714.6486816406</ele>
        <time>2007-08-18T13:03:57Z</time>
      </trkpt>
      <trkpt lat="45.01648" lon="6.58744">
        <ele>1711.2841796875</ele>
        <time>2007-08-18T13:04:02Z</time>
      </trkpt>
      <trkpt lat="45.01661" lon="6.58753">
        <ele>1707.4387207031</ele>
        <time>2007-08-18T13:04:08Z</time>
      </trkpt>
      <trkpt lat="45.01665" lon="6.58757">
        <ele>1706.4772949219</ele>
        <time>2007-08-18T13:04:10Z</time>
      </trkpt>
      <trkpt lat="45.01667" lon="6.58766">
        <ele>1703.1127929688</ele>
        <time>2007-08-18T13:04:14Z</time>
      </trkpt>
      <trkpt lat="45.01674" lon="6.5877">
        <ele>1700.2290039062</ele>
        <time>2007-08-18T13:04:16Z</time>
      </trkpt>
      <trkpt lat="45.01687" lon="6.58787">
        <ele>1696.3837890625</ele>
        <time>2007-08-18T13:04:25Z</time>
      </trkpt>
      <trkpt lat="45.01704" lon="6.58804">
        <ele>1693.4997558594</ele>
        <time>2007-08-18T13:04:33Z</time>
      </trkpt>
      <trkpt lat="45.01717" lon="6.58836">
        <ele>1692.0578613281</ele>
        <time>2007-08-18T13:04:58Z</time>
      </trkpt>
      <trkpt lat="45.01721" lon="6.58858">
        <ele>1688.2124023438</ele>
        <time>2007-08-18T13:05:50Z</time>
      </trkpt>
      <trkpt lat="45.01721" lon="6.58866">
        <ele>1683.8864746094</ele>
        <time>2007-08-18T13:05:59Z</time>
      </trkpt>
      <trkpt lat="45.01723" lon="6.58869">
        <ele>1680.5219726562</ele>
        <time>2007-08-18T13:06:02Z</time>
      </trkpt>
      <trkpt lat="45.01725" lon="6.58869">
        <ele>1680.5219726562</ele>
        <time>2007-08-18T13:06:03Z</time>
      </trkpt>
      <trkpt lat="45.01729" lon="6.58875">
        <ele>1676.6767578125</ele>
        <time>2007-08-18T13:06:10Z</time>
      </trkpt>
      <trkpt lat="45.01734" lon="6.58881">
        <ele>1673.7924804688</ele>
        <time>2007-08-18T13:06:16Z</time>
      </trkpt>
      <trkpt lat="45.01747" lon="6.58916">
        <ele>1668.5053710938</ele>
        <time>2007-08-18T13:06:37Z</time>
      </trkpt>
      <trkpt lat="45.01751" lon="6.58937">
        <ele>1670.9086914062</ele>
        <time>2007-08-18T13:06:48Z</time>
      </trkpt>
      <trkpt lat="45.01755" lon="6.58969">
        <ele>1668.0246582031</ele>
        <time>2007-08-18T13:06:59Z</time>
      </trkpt>
      <trkpt lat="45.01717" lon="6.5922">
        <ele>1667.0634765625</ele>
        <time>2007-08-18T13:08:05Z</time>
      </trkpt>
      <trkpt lat="45.01757" lon="6.5922">
        <ele>1664.1794433594</ele>
        <time>2007-08-18T13:08:13Z</time>
      </trkpt>
      <trkpt lat="45.01747" lon="6.59242">
        <ele>1662.7375488281</ele>
        <time>2007-08-18T13:08:35Z</time>
      </trkpt>
      <trkpt lat="45.01766" lon="6.59386">
        <ele>1662.2568359375</ele>
        <time>2007-08-18T13:08:51Z</time>
      </trkpt>
      <trkpt lat="45.01732" lon="6.59469">
        <ele>1661.2956542969</ele>
        <time>2007-08-18T13:09:06Z</time>
      </trkpt>
      <trkpt lat="45.01764" lon="6.59551">
        <ele>1660.8149414062</ele>
        <time>2007-08-18T13:09:20Z</time>
      </trkpt>
      <trkpt lat="45.01766" lon="6.59654">
        <ele>1659.3728027344</ele>
        <time>2007-08-18T13:09:38Z</time>
      </trkpt>
      <trkpt lat="45.01764" lon="6.59669">
        <ele>1659.3728027344</ele>
        <time>2007-08-18T13:09:41Z</time>
      </trkpt>
      <trkpt lat="45.01736" lon="6.59748">
        <ele>1659.8532714844</ele>
        <time>2007-08-18T13:09:57Z</time>
      </trkpt>
      <trkpt lat="45.01723" lon="6.59768">
        <ele>1661.7763671875</ele>
        <time>2007-08-18T13:10:04Z</time>
      </trkpt>
      <trkpt lat="45.01719" lon="6.59826">
        <ele>1664.66015625</ele>
        <time>2007-08-18T13:10:26Z</time>
      </trkpt>
      <trkpt lat="45.01729" lon="6.59877">
        <ele>1667.5439453125</ele>
        <time>2007-08-18T13:10:46Z</time>
      </trkpt>
      <trkpt lat="45.01729" lon="6.59896">
        <ele>1671.3891601562</ele>
        <time>2007-08-18T13:10:59Z</time>
      </trkpt>
      <trkpt lat="45.01732" lon="6.59896">
        <ele>1670.4279785156</ele>
        <time>2007-08-18T13:11:00Z</time>
      </trkpt>
      <trkpt lat="45.01717" lon="6.59974">
        <ele>1669.947265625</ele>
        <time>2007-08-18T13:11:41Z</time>
      </trkpt>
      <trkpt lat="45.01725" lon="6.60008">
        <ele>1667.0634765625</ele>
        <time>2007-08-18T13:11:59Z</time>
      </trkpt>
      <trkpt lat="45.01729" lon="6.60019">
        <ele>1663.2182617188</ele>
        <time>2007-08-18T13:12:05Z</time>
      </trkpt>
      <trkpt lat="45.01732" lon="6.60027">
        <ele>1659.8532714844</ele>
        <time>2007-08-18T13:12:10Z</time>
      </trkpt>
      <trkpt lat="45.01708" lon="6.60165">
        <ele>1656.9694824219</ele>
        <time>2007-08-18T13:12:17Z</time>
      </trkpt>
      <trkpt lat="45.0171" lon="6.60186">
        <ele>1653.6049804688</ele>
        <time>2007-08-18T13:12:29Z</time>
      </trkpt>
      <trkpt lat="45.0171" lon="6.60188">
        <ele>1653.6049804688</ele>
        <time>2007-08-18T13:12:30Z</time>
      </trkpt>
      <trkpt lat="45.01712" lon="6.6024">
        <ele>1650.2404785156</ele>
        <time>2007-08-18T13:12:42Z</time>
      </trkpt>
      <trkpt lat="45.01706" lon="6.60257">
        <ele>1649.2790527344</ele>
        <time>2007-08-18T13:12:44Z</time>
      </trkpt>
      <trkpt lat="45.01699" lon="6.60285">
        <ele>1647.3564453125</ele>
        <time>2007-08-18T13:12:49Z</time>
      </trkpt>
      <trkpt lat="45.01721" lon="6.60298">
        <ele>1643.9916992188</ele>
        <time>2007-08-18T13:12:58Z</time>
      </trkpt>
      <trkpt lat="45.01732" lon="6.60326">
        <ele>1641.1076660156</ele>
        <time>2007-08-18T13:13:07Z</time>
      </trkpt>
      <trkpt lat="45.01742" lon="6.60371">
        <ele>1637.7431640625</ele>
        <time>2007-08-18T13:13:18Z</time>
      </trkpt>
      <trkpt lat="45.01762" lon="6.60405">
        <ele>1637.7431640625</ele>
        <time>2007-08-18T13:13:26Z</time>
      </trkpt>
      <trkpt lat="45.01779" lon="6.60435">
        <ele>1633.8979492188</ele>
        <time>2007-08-18T13:13:33Z</time>
      </trkpt>
      <trkpt lat="45.01785" lon="6.60441">
        <ele>1633.8979492188</ele>
        <time>2007-08-18T13:13:35Z</time>
      </trkpt>
      <trkpt lat="45.01798" lon="6.6045">
        <ele>1632.9365234375</ele>
        <time>2007-08-18T13:13:39Z</time>
      </trkpt>
      <trkpt lat="45.0182" lon="6.60467">
        <ele>1631.4946289062</ele>
        <time>2007-08-18T13:13:51Z</time>
      </trkpt>
      <trkpt lat="45.0182" lon="6.60467">
        <ele>1630.052734375</ele>
        <time>2007-08-18T13:14:24Z</time>
      </trkpt>
      <trkpt lat="45.01822" lon="6.60467">
        <ele>1630.5334472656</ele>
        <time>2007-08-18T13:14:34Z</time>
      </trkpt>
      <trkpt lat="45.01863" lon="6.60456">
        <ele>1630.5334472656</ele>
        <time>2007-08-18T13:14:55Z</time>
      </trkpt>
      <trkpt lat="45.01882" lon="6.60463">
        <ele>1630.5334472656</ele>
        <time>2007-08-18T13:15:05Z</time>
      </trkpt>
      <trkpt lat="45.01886" lon="6.60474">
        <ele>1630.052734375</ele>
        <time>2007-08-18T13:15:09Z</time>
      </trkpt>
      <trkpt lat="45.0188" lon="6.60521">
        <ele>1628.6108398438</ele>
        <time>2007-08-18T13:15:23Z</time>
      </trkpt>
      <trkpt lat="45.01897" lon="6.60574">
        <ele>1628.1301269531</ele>
        <time>2007-08-18T13:15:38Z</time>
      </trkpt>
      <trkpt lat="45.01903" lon="6.60592">
        <ele>1627.1687011719</ele>
        <time>2007-08-18T13:15:45Z</time>
      </trkpt>
      <trkpt lat="45.01903" lon="6.60596">
        <ele>1623.8039550781</ele>
        <time>2007-08-18T13:15:49Z</time>
      </trkpt>
      <trkpt lat="45.01903" lon="6.60598">
        <ele>1630.052734375</ele>
        <time>2007-08-18T13:15:50Z</time>
      </trkpt>
      <trkpt lat="45.01901" lon="6.60598">
        <ele>1627.1687011719</ele>
        <time>2007-08-18T13:15:52Z</time>
      </trkpt>
      <trkpt lat="45.01901" lon="6.60607">
        <ele>1627.1687011719</ele>
        <time>2007-08-18T13:16:07Z</time>
      </trkpt>
      <trkpt lat="45.0189" lon="6.60615">
        <ele>1627.1687011719</ele>
        <time>2007-08-18T13:16:21Z</time>
      </trkpt>
      <trkpt lat="45.0189" lon="6.60615">
        <ele>1625.7265625</ele>
        <time>2007-08-18T13:16:43Z</time>
      </trkpt>
      <trkpt lat="45.01893" lon="6.60619">
        <ele>1622.8427734375</ele>
        <time>2007-08-18T13:20:18Z</time>
      </trkpt>
      <trkpt lat="45.0189" lon="6.60615">
        <ele>1621.8813476562</ele>
        <time>2007-08-18T13:21:51Z</time>
      </trkpt>
      <trkpt lat="45.0189" lon="6.60613">
        <ele>1622.3620605469</ele>
        <time>2007-08-18T13:22:58Z</time>
      </trkpt>
      <trkpt lat="45.0189" lon="6.60613">
        <ele>1618.9975585938</ele>
        <time>2007-08-18T13:23:36Z</time>
      </trkpt>
      <trkpt lat="45.01888" lon="6.60613">
        <ele>1617.5554199219</ele>
        <time>2007-08-18T13:23:42Z</time>
      </trkpt>
      <trkpt lat="45.01888" lon="6.60613">
        <ele>1620.9201660156</ele>
        <time>2007-08-18T13:24:04Z</time>
      </trkpt>
      <trkpt lat="45.0189" lon="6.60617">
        <ele>1617.5554199219</ele>
        <time>2007-08-18T13:25:34Z</time>
      </trkpt>
      <trkpt lat="45.0189" lon="6.60617">
        <ele>1619.4782714844</ele>
        <time>2007-08-18T13:25:42Z</time>
      </trkpt>
      <trkpt lat="45.0189" lon="6.60617">
        <ele>1616.1135253906</ele>
        <time>2007-08-18T13:27:52Z</time>
      </trkpt>
      <trkpt lat="45.0189" lon="6.60615">
        <ele>1612.2683105469</ele>
        <time>2007-08-18T13:33:25Z</time>
      </trkpt>
      <trkpt lat="45.0189" lon="6.60617">
        <ele>1615.6330566406</ele>
        <time>2007-08-18T13:33:27Z</time>
      </trkpt>
      <trkpt lat="45.0189" lon="6.60615">
        <ele>1611.7875976562</ele>
        <time>2007-08-18T13:33:50Z</time>
      </trkpt>
      <trkpt lat="45.0189" lon="6.60615">
        <ele>1614.1909179688</ele>
        <time>2007-08-18T13:34:16Z</time>
      </trkpt>
      <trkpt lat="45.01905" lon="6.60639">
        <ele>1614.6716308594</ele>
        <time>2007-08-18T13:34:22Z</time>
      </trkpt>
      <trkpt lat="45.01925" lon="6.60686">
        <ele>1612.2683105469</ele>
        <time>2007-08-18T13:34:33Z</time>
      </trkpt>
      <trkpt lat="45.0192" lon="6.6069">
        <ele>1612.2683105469</ele>
        <time>2007-08-18T13:34:41Z</time>
      </trkpt>
      <trkpt lat="45.0192" lon="6.6069">
        <ele>1613.2297363281</ele>
        <time>2007-08-18T13:34:54Z</time>
      </trkpt>
      <trkpt lat="45.01923" lon="6.6069">
        <ele>1613.7102050781</ele>
        <time>2007-08-18T13:35:01Z</time>
      </trkpt>
      <trkpt lat="45.0192" lon="6.60707">
        <ele>1613.7102050781</ele>
        <time>2007-08-18T13:35:05Z</time>
      </trkpt>
      <trkpt lat="45.01925" lon="6.60729">
        <ele>1614.1909179688</ele>
        <time>2007-08-18T13:35:08Z</time>
      </trkpt>
      <trkpt lat="45.01935" lon="6.60746">
        <ele>1612.7490234375</ele>
        <time>2007-08-18T13:35:11Z</time>
      </trkpt>
      <trkpt lat="45.01948" lon="6.60856">
        <ele>1614.6716308594</ele>
        <time>2007-08-18T13:35:24Z</time>
      </trkpt>
      <trkpt lat="45.01948" lon="6.60892">
        <ele>1611.3068847656</ele>
        <time>2007-08-18T13:35:28Z</time>
      </trkpt>
      <trkpt lat="45.01946" lon="6.6092">
        <ele>1613.2297363281</ele>
        <time>2007-08-18T13:35:31Z</time>
      </trkpt>
      <trkpt lat="45.01946" lon="6.60937">
        <ele>1611.3068847656</ele>
        <time>2007-08-18T13:35:33Z</time>
      </trkpt>
      <trkpt lat="45.01946" lon="6.60946">
        <ele>1611.7875976562</ele>
        <time>2007-08-18T13:35:34Z</time>
      </trkpt>
      <trkpt lat="45.01946" lon="6.60961">
        <ele>1610.826171875</ele>
        <time>2007-08-18T13:35:36Z</time>
      </trkpt>
      <trkpt lat="45.01948" lon="6.60989">
        <ele>1610.3454589844</ele>
        <time>2007-08-18T13:35:40Z</time>
      </trkpt>
      <trkpt lat="45.01925" lon="6.61047">
        <ele>1609.8647460938</ele>
        <time>2007-08-18T13:35:53Z</time>
      </trkpt>
      <trkpt lat="45.01895" lon="6.61102">
        <ele>1609.3842773438</ele>
        <time>2007-08-18T13:36:05Z</time>
      </trkpt>
      <trkpt lat="45.01854" lon="6.6115">
        <ele>1607.9423828125</ele>
        <time>2007-08-18T13:36:17Z</time>
      </trkpt>
      <trkpt lat="45.01809" lon="6.61261">
        <ele>1607.4616699219</ele>
        <time>2007-08-18T13:36:36Z</time>
      </trkpt>
      <trkpt lat="45.01807" lon="6.61268">
        <ele>1608.4228515625</ele>
        <time>2007-08-18T13:36:37Z</time>
      </trkpt>
      <trkpt lat="45.01807" lon="6.61298">
        <ele>1607.9423828125</ele>
        <time>2007-08-18T13:36:41Z</time>
      </trkpt>
      <trkpt lat="45.01837" lon="6.61443">
        <ele>1607.9423828125</ele>
        <time>2007-08-18T13:36:59Z</time>
      </trkpt>
      <trkpt lat="45.01863" lon="6.61489">
        <ele>1607.9423828125</ele>
        <time>2007-08-18T13:37:06Z</time>
      </trkpt>
      <trkpt lat="45.01869" lon="6.61512">
        <ele>1606.9809570312</ele>
        <time>2007-08-18T13:37:09Z</time>
      </trkpt>
      <trkpt lat="45.01869" lon="6.61613">
        <ele>1606.01953125</ele>
        <time>2007-08-18T13:37:20Z</time>
      </trkpt>
      <trkpt lat="45.01865" lon="6.61675">
        <ele>1605.5390625</ele>
        <time>2007-08-18T13:37:27Z</time>
      </trkpt>
      <trkpt lat="45.01824" lon="6.61752">
        <ele>1605.0583496094</ele>
        <time>2007-08-18T13:37:37Z</time>
      </trkpt>
      <trkpt lat="45.01813" lon="6.61795">
        <ele>1605.5390625</ele>
        <time>2007-08-18T13:37:42Z</time>
      </trkpt>
      <trkpt lat="45.01796" lon="6.61952">
        <ele>1603.6164550781</ele>
        <time>2007-08-18T13:37:59Z</time>
      </trkpt>
      <trkpt lat="45.01781" lon="6.621">
        <ele>1604.0971679688</ele>
        <time>2007-08-18T13:38:16Z</time>
      </trkpt>
      <trkpt lat="45.01783" lon="6.62293">
        <ele>1604.0971679688</ele>
        <time>2007-08-18T13:38:39Z</time>
      </trkpt>
      <trkpt lat="45.01785" lon="6.623">
        <ele>1603.6164550781</ele>
        <time>2007-08-18T13:38:40Z</time>
      </trkpt>
      <trkpt lat="45.01794" lon="6.62506">
        <ele>1604.5776367188</ele>
        <time>2007-08-18T13:39:07Z</time>
      </trkpt>
      <trkpt lat="45.01796" lon="6.62628">
        <ele>1604.0971679688</ele>
        <time>2007-08-18T13:39:22Z</time>
      </trkpt>
      <trkpt lat="45.01766" lon="6.62767">
        <ele>1603.6164550781</ele>
        <time>2007-08-18T13:39:38Z</time>
      </trkpt>
      <trkpt lat="45.01723" lon="6.62926">
        <ele>1600.732421875</ele>
        <time>2007-08-18T13:39:55Z</time>
      </trkpt>
      <trkpt lat="45.01665" lon="6.63184">
        <ele>1602.1743164062</ele>
        <time>2007-08-18T13:40:22Z</time>
      </trkpt>
      <trkpt lat="45.0165" lon="6.63297">
        <ele>1600.251953125</ele>
        <time>2007-08-18T13:40:34Z</time>
      </trkpt>
      <trkpt lat="45.01648" lon="6.63342">
        <ele>1600.251953125</ele>
        <time>2007-08-18T13:40:39Z</time>
      </trkpt>
      <trkpt lat="45.01644" lon="6.63812">
        <ele>1594.9643554688</ele>
        <time>2007-08-18T13:41:29Z</time>
      </trkpt>
      <trkpt lat="45.01644" lon="6.63851">
        <ele>1592.5612792969</ele>
        <time>2007-08-18T13:41:32Z</time>
      </trkpt>
      <trkpt lat="45.01642" lon="6.63905">
        <ele>1593.0417480469</ele>
        <time>2007-08-18T13:41:36Z</time>
      </trkpt>
      <trkpt lat="45.01663" lon="6.63965">
        <ele>1590.1579589844</ele>
        <time>2007-08-18T13:41:41Z</time>
      </trkpt>
      <trkpt lat="45.01725" lon="6.64083">
        <ele>1587.2739257812</ele>
        <time>2007-08-18T13:41:52Z</time>
      </trkpt>
      <trkpt lat="45.01734" lon="6.64121">
        <ele>1585.83203125</ele>
        <time>2007-08-18T13:41:55Z</time>
      </trkpt>
      <trkpt lat="45.01732" lon="6.64147">
        <ele>1583.4287109375</ele>
        <time>2007-08-18T13:41:57Z</time>
      </trkpt>
      <trkpt lat="45.01725" lon="6.64173">
        <ele>1583.4287109375</ele>
        <time>2007-08-18T13:41:59Z</time>
      </trkpt>
      <trkpt lat="45.01725" lon="6.64227">
        <ele>1581.0256347656</ele>
        <time>2007-08-18T13:42:03Z</time>
      </trkpt>
      <trkpt lat="45.01729" lon="6.64252">
        <ele>1580.544921875</ele>
        <time>2007-08-18T13:42:05Z</time>
      </trkpt>
      <trkpt lat="45.01732" lon="6.6428">
        <ele>1579.5832519531</ele>
        <time>2007-08-18T13:42:07Z</time>
      </trkpt>
      <trkpt lat="45.01736" lon="6.64362">
        <ele>1575.7380371094</ele>
        <time>2007-08-18T13:42:13Z</time>
      </trkpt>
      <trkpt lat="45.01742" lon="6.64387">
        <ele>1574.7768554688</ele>
        <time>2007-08-18T13:42:15Z</time>
      </trkpt>
      <trkpt lat="45.01785" lon="6.64536">
        <ele>1572.3735351562</ele>
        <time>2007-08-18T13:42:27Z</time>
      </trkpt>
      <trkpt lat="45.01785" lon="6.64591">
        <ele>1568.5283203125</ele>
        <time>2007-08-18T13:42:31Z</time>
      </trkpt>
      <trkpt lat="45.01796" lon="6.64701">
        <ele>1565.64453125</ele>
        <time>2007-08-18T13:42:39Z</time>
      </trkpt>
      <trkpt lat="45.018" lon="6.64714">
        <ele>1565.64453125</ele>
        <time>2007-08-18T13:42:40Z</time>
      </trkpt>
      <trkpt lat="45.01805" lon="6.64742">
        <ele>1564.2023925781</ele>
        <time>2007-08-18T13:42:42Z</time>
      </trkpt>
      <trkpt lat="45.018" lon="6.64795">
        <ele>1562.7602539062</ele>
        <time>2007-08-18T13:42:46Z</time>
      </trkpt>
      <trkpt lat="45.01796" lon="6.64823">
        <ele>1560.3569335938</ele>
        <time>2007-08-18T13:42:48Z</time>
      </trkpt>
      <trkpt lat="45.01783" lon="6.64963">
        <ele>1556.51171875</ele>
        <time>2007-08-18T13:42:58Z</time>
      </trkpt>
      <trkpt lat="45.01781" lon="6.64975">
        <ele>1556.51171875</ele>
        <time>2007-08-18T13:42:59Z</time>
      </trkpt>
      <trkpt lat="45.01779" lon="6.6502">
        <ele>1554.5891113281</ele>
        <time>2007-08-18T13:43:02Z</time>
      </trkpt>
      <trkpt lat="45.0176" lon="6.65072">
        <ele>1552.6665039062</ele>
        <time>2007-08-18T13:43:06Z</time>
      </trkpt>
      <trkpt lat="45.01717" lon="6.65158">
        <ele>1549.3020019531</ele>
        <time>2007-08-18T13:43:13Z</time>
      </trkpt>
      <trkpt lat="45.0171" lon="6.65171">
        <ele>1550.7438964844</ele>
        <time>2007-08-18T13:43:14Z</time>
      </trkpt>
      <trkpt lat="45.01676" lon="6.65207">
        <ele>1548.3405761719</ele>
        <time>2007-08-18T13:43:18Z</time>
      </trkpt>
      <trkpt lat="45.01665" lon="6.65211">
        <ele>1547.8598632812</ele>
        <time>2007-08-18T13:43:19Z</time>
      </trkpt>
      <trkpt lat="45.0162" lon="6.65252">
        <ele>1545.9372558594</ele>
        <time>2007-08-18T13:43:24Z</time>
      </trkpt>
      <trkpt lat="45.01605" lon="6.65276">
        <ele>1544.9758300781</ele>
        <time>2007-08-18T13:43:26Z</time>
      </trkpt>
      <trkpt lat="45.01551" lon="6.65379">
        <ele>1542.0920410156</ele>
        <time>2007-08-18T13:43:34Z</time>
      </trkpt>
      <trkpt lat="45.01523" lon="6.65443">
        <ele>1539.6887207031</ele>
        <time>2007-08-18T13:43:39Z</time>
      </trkpt>
      <trkpt lat="45.01474" lon="6.65538">
        <ele>1538.2468261719</ele>
        <time>2007-08-18T13:43:47Z</time>
      </trkpt>
      <trkpt lat="45.01418" lon="6.65568">
        <ele>1537.7661132812</ele>
        <time>2007-08-18T13:43:53Z</time>
      </trkpt>
      <trkpt lat="45.01369" lon="6.6555">
        <ele>1537.2854003906</ele>
        <time>2007-08-18T13:43:58Z</time>
      </trkpt>
      <trkpt lat="45.01339" lon="6.65555">
        <ele>1533.4401855469</ele>
        <time>2007-08-18T13:44:01Z</time>
      </trkpt>
      <trkpt lat="45.0133" lon="6.65561">
        <ele>1533.9208984375</ele>
        <time>2007-08-18T13:44:02Z</time>
      </trkpt>
      <trkpt lat="45.01309" lon="6.65574">
        <ele>1534.4016113281</ele>
        <time>2007-08-18T13:44:04Z</time>
      </trkpt>
      <trkpt lat="45.01236" lon="6.65638">
        <ele>1531.0368652344</ele>
        <time>2007-08-18T13:44:12Z</time>
      </trkpt>
      <trkpt lat="45.0112" lon="6.65729">
        <ele>1528.1528320312</ele>
        <time>2007-08-18T13:44:24Z</time>
      </trkpt>
      <trkpt lat="45.01032" lon="6.65823">
        <ele>1525.2687988281</ele>
        <time>2007-08-18T13:44:35Z</time>
      </trkpt>
      <trkpt lat="45.01" lon="6.65857">
        <ele>1523.8269042969</ele>
        <time>2007-08-18T13:44:39Z</time>
      </trkpt>
      <trkpt lat="45.0091" lon="6.65855">
        <ele>1524.3076171875</ele>
        <time>2007-08-18T13:44:48Z</time>
      </trkpt>
      <trkpt lat="45.0089" lon="6.65855">
        <ele>1522.3850097656</ele>
        <time>2007-08-18T13:44:50Z</time>
      </trkpt>
      <trkpt lat="45.00689" lon="6.65898">
        <ele>1519.5012207031</ele>
        <time>2007-08-18T13:45:12Z</time>
      </trkpt>
      <trkpt lat="45.00577" lon="6.65915">
        <ele>1516.1364746094</ele>
        <time>2007-08-18T13:45:23Z</time>
      </trkpt>
      <trkpt lat="45.00566" lon="6.65917">
        <ele>1516.6171875</ele>
        <time>2007-08-18T13:45:24Z</time>
      </trkpt>
      <trkpt lat="45.00506" lon="6.65932">
        <ele>1515.6557617188</ele>
        <time>2007-08-18T13:45:30Z</time>
      </trkpt>
      <trkpt lat="45.00455" lon="6.65924">
        <ele>1513.7329101562</ele>
        <time>2007-08-18T13:45:35Z</time>
      </trkpt>
      <trkpt lat="45.00382" lon="6.65913">
        <ele>1511.810546875</ele>
        <time>2007-08-18T13:45:42Z</time>
      </trkpt>
      <trkpt lat="45.0033" lon="6.65922">
        <ele>1510.3684082031</ele>
        <time>2007-08-18T13:45:47Z</time>
      </trkpt>
      <trkpt lat="45.00311" lon="6.65926">
        <ele>1509.4072265625</ele>
        <time>2007-08-18T13:45:49Z</time>
      </trkpt>
      <trkpt lat="45.00225" lon="6.65958">
        <ele>1506.5231933594</ele>
        <time>2007-08-18T13:45:58Z</time>
      </trkpt>
      <trkpt lat="45.00195" lon="6.65969">
        <ele>1505.5620117188</ele>
        <time>2007-08-18T13:46:01Z</time>
      </trkpt>
      <trkpt lat="45.00189" lon="6.66042">
        <ele>1503.6394042969</ele>
        <time>2007-08-18T13:46:08Z</time>
      </trkpt>
      <trkpt lat="45.00247" lon="6.6616">
        <ele>1504.1201171875</ele>
        <time>2007-08-18T13:46:12Z</time>
      </trkpt>
      <trkpt lat="45.00217" lon="6.66196">
        <ele>1502.197265625</ele>
        <time>2007-08-18T13:46:17Z</time>
      </trkpt>
      <trkpt lat="45.0017" lon="6.66235">
        <ele>1499.7939453125</ele>
        <time>2007-08-18T13:46:26Z</time>
      </trkpt>
      <trkpt lat="45.00129" lon="6.66248">
        <ele>1499.3132324219</ele>
        <time>2007-08-18T13:46:32Z</time>
      </trkpt>
      <trkpt lat="45.00069" lon="6.66252">
        <ele>1501.2360839844</ele>
        <time>2007-08-18T13:46:41Z</time>
      </trkpt>
      <trkpt lat="45.00021" lon="6.66224">
        <ele>1497.8713378906</ele>
        <time>2007-08-18T13:46:48Z</time>
      </trkpt>
      <trkpt lat="45.00013" lon="6.6622">
        <ele>1497.8713378906</ele>
        <time>2007-08-18T13:46:49Z</time>
      </trkpt>
      <trkpt lat="44.99929" lon="6.66183">
        <ele>1495.9487304688</ele>
        <time>2007-08-18T13:46:59Z</time>
      </trkpt>
      <trkpt lat="44.99891" lon="6.66196">
        <ele>1495.4680175781</ele>
        <time>2007-08-18T13:47:03Z</time>
      </trkpt>
      <trkpt lat="44.9973" lon="6.66291">
        <ele>1492.103515625</ele>
        <time>2007-08-18T13:47:20Z</time>
      </trkpt>
      <trkpt lat="44.99609" lon="6.66338">
        <ele>1489.7001953125</ele>
        <time>2007-08-18T13:47:33Z</time>
      </trkpt>
      <trkpt lat="44.99451" lon="6.66398">
        <ele>1485.8549804688</ele>
        <time>2007-08-18T13:47:50Z</time>
      </trkpt>
      <trkpt lat="44.99442" lon="6.66402">
        <ele>1485.8549804688</ele>
        <time>2007-08-18T13:47:51Z</time>
      </trkpt>
      <trkpt lat="44.99275" lon="6.66467">
        <ele>1482.490234375</ele>
        <time>2007-08-18T13:48:09Z</time>
      </trkpt>
      <trkpt lat="44.99064" lon="6.66546">
        <ele>1480.5676269531</ele>
        <time>2007-08-18T13:48:31Z</time>
      </trkpt>
      <trkpt lat="44.98987" lon="6.66576">
        <ele>1478.6450195312</ele>
        <time>2007-08-18T13:48:39Z</time>
      </trkpt>
      <trkpt lat="44.98828" lon="6.66638">
        <ele>1474.7998046875</ele>
        <time>2007-08-18T13:48:56Z</time>
      </trkpt>
      <trkpt lat="44.98655" lon="6.66703">
        <ele>1471.4350585938</ele>
        <time>2007-08-18T13:49:14Z</time>
      </trkpt>
      <trkpt lat="44.98541" lon="6.66724">
        <ele>1472.396484375</ele>
        <time>2007-08-18T13:49:27Z</time>
      </trkpt>
      <trkpt lat="44.98485" lon="6.66759">
        <ele>1471.4350585938</ele>
        <time>2007-08-18T13:49:35Z</time>
      </trkpt>
      <trkpt lat="44.98425" lon="6.66814">
        <ele>1468.0705566406</ele>
        <time>2007-08-18T13:49:43Z</time>
      </trkpt>
      <trkpt lat="44.98416" lon="6.66823">
        <ele>1468.0705566406</ele>
        <time>2007-08-18T13:49:44Z</time>
      </trkpt>
      <trkpt lat="44.98328" lon="6.669">
        <ele>1466.6284179688</ele>
        <time>2007-08-18T13:49:55Z</time>
      </trkpt>
      <trkpt lat="44.98206" lon="6.66977">
        <ele>1463.7443847656</ele>
        <time>2007-08-18T13:50:10Z</time>
      </trkpt>
      <trkpt lat="44.98112" lon="6.6702">
        <ele>1464.7058105469</ele>
        <time>2007-08-18T13:50:21Z</time>
      </trkpt>
      <trkpt lat="44.98002" lon="6.66967">
        <ele>1467.5895996094</ele>
        <time>2007-08-18T13:50:37Z</time>
      </trkpt>
      <trkpt lat="44.97992" lon="6.6696">
        <ele>1468.5512695312</ele>
        <time>2007-08-18T13:50:39Z</time>
      </trkpt>
      <trkpt lat="44.97886" lon="6.66919">
        <ele>1465.6672363281</ele>
        <time>2007-08-18T13:50:55Z</time>
      </trkpt>
      <trkpt lat="44.9785" lon="6.66907">
        <ele>1464.2250976562</ele>
        <time>2007-08-18T13:51:00Z</time>
      </trkpt>
      <trkpt lat="44.97773" lon="6.66879">
        <ele>1465.6672363281</ele>
        <time>2007-08-18T13:51:10Z</time>
      </trkpt>
      <trkpt lat="44.97751" lon="6.6687">
        <ele>1467.1091308594</ele>
        <time>2007-08-18T13:51:13Z</time>
      </trkpt>
      <trkpt lat="44.97723" lon="6.66862">
        <ele>1467.1091308594</ele>
        <time>2007-08-18T13:51:17Z</time>
      </trkpt>
      <trkpt lat="44.97562" lon="6.66874">
        <ele>1467.1091308594</ele>
        <time>2007-08-18T13:51:39Z</time>
      </trkpt>
      <trkpt lat="44.97447" lon="6.66928">
        <ele>1467.1091308594</ele>
        <time>2007-08-18T13:51:54Z</time>
      </trkpt>
      <trkpt lat="44.97307" lon="6.66992">
        <ele>1465.6672363281</ele>
        <time>2007-08-18T13:52:11Z</time>
      </trkpt>
      <trkpt lat="44.97266" lon="6.67016">
        <ele>1463.7443847656</ele>
        <time>2007-08-18T13:52:16Z</time>
      </trkpt>
      <trkpt lat="44.97187" lon="6.67078">
        <ele>1464.7058105469</ele>
        <time>2007-08-18T13:52:27Z</time>
      </trkpt>
      <trkpt lat="44.97116" lon="6.6711">
        <ele>1462.783203125</ele>
        <time>2007-08-18T13:52:37Z</time>
      </trkpt>
      <trkpt lat="44.97032" lon="6.67149">
        <ele>1461.3413085938</ele>
        <time>2007-08-18T13:52:48Z</time>
      </trkpt>
      <trkpt lat="44.96908" lon="6.6722">
        <ele>1461.3413085938</ele>
        <time>2007-08-18T13:53:04Z</time>
      </trkpt>
      <trkpt lat="44.96824" lon="6.67276">
        <ele>1458.4572753906</ele>
        <time>2007-08-18T13:53:14Z</time>
      </trkpt>
      <trkpt lat="44.96809" lon="6.67286">
        <ele>1457.49609375</ele>
        <time>2007-08-18T13:53:16Z</time>
      </trkpt>
      <trkpt lat="44.96775" lon="6.67316">
        <ele>1455.5734863281</ele>
        <time>2007-08-18T13:53:20Z</time>
      </trkpt>
      <trkpt lat="44.96685" lon="6.67426">
        <ele>1452.2087402344</ele>
        <time>2007-08-18T13:53:32Z</time>
      </trkpt>
      <trkpt lat="44.96642" lon="6.67505">
        <ele>1449.3247070312</ele>
        <time>2007-08-18T13:53:39Z</time>
      </trkpt>
      <trkpt lat="44.96629" lon="6.67529">
        <ele>1448.36328125</ele>
        <time>2007-08-18T13:53:41Z</time>
      </trkpt>
      <trkpt lat="44.96597" lon="6.67585">
        <ele>1445.9602050781</ele>
        <time>2007-08-18T13:53:46Z</time>
      </trkpt>
      <trkpt lat="44.96569" lon="6.67628">
        <ele>1443.5568847656</ele>
        <time>2007-08-18T13:53:50Z</time>
      </trkpt>
      <trkpt lat="44.96457" lon="6.67722">
        <ele>1440.1923828125</ele>
        <time>2007-08-18T13:54:03Z</time>
      </trkpt>
      <trkpt lat="44.96419" lon="6.67733">
        <ele>1440.6728515625</ele>
        <time>2007-08-18T13:54:07Z</time>
      </trkpt>
      <trkpt lat="44.96294" lon="6.67662">
        <ele>1438.2697753906</ele>
        <time>2007-08-18T13:54:22Z</time>
      </trkpt>
      <trkpt lat="44.96236" lon="6.67649">
        <ele>1438.2697753906</ele>
        <time>2007-08-18T13:54:29Z</time>
      </trkpt>
      <trkpt lat="44.96174" lon="6.67677">
        <ele>1437.3083496094</ele>
        <time>2007-08-18T13:54:37Z</time>
      </trkpt>
      <trkpt lat="44.96105" lon="6.67748">
        <ele>1432.9821777344</ele>
        <time>2007-08-18T13:54:46Z</time>
      </trkpt>
      <trkpt lat="44.96088" lon="6.67765">
        <ele>1432.5017089844</ele>
        <time>2007-08-18T13:54:48Z</time>
      </trkpt>
      <trkpt lat="44.96047" lon="6.67786">
        <ele>1431.0598144531</ele>
        <time>2007-08-18T13:54:52Z</time>
      </trkpt>
      <trkpt lat="44.95953" lon="6.67812">
        <ele>1431.0598144531</ele>
        <time>2007-08-18T13:55:02Z</time>
      </trkpt>
      <trkpt lat="44.95831" lon="6.67885">
        <ele>1429.1369628906</ele>
        <time>2007-08-18T13:55:17Z</time>
      </trkpt>
      <trkpt lat="44.95685" lon="6.67919">
        <ele>1429.1369628906</ele>
        <time>2007-08-18T13:55:35Z</time>
      </trkpt>
      <trkpt lat="44.95676" lon="6.67919">
        <ele>1428.6564941406</ele>
        <time>2007-08-18T13:55:36Z</time>
      </trkpt>
      <trkpt lat="44.95633" lon="6.67883">
        <ele>1429.1369628906</ele>
        <time>2007-08-18T13:55:43Z</time>
      </trkpt>
      <trkpt lat="44.95629" lon="6.67838">
        <ele>1428.6564941406</ele>
        <time>2007-08-18T13:55:50Z</time>
      </trkpt>
      <trkpt lat="44.95627" lon="6.67827">
        <ele>1427.2145996094</ele>
        <time>2007-08-18T13:55:55Z</time>
      </trkpt>
      <trkpt lat="44.95629" lon="6.67829">
        <ele>1427.6950683594</ele>
        <time>2007-08-18T13:56:00Z</time>
      </trkpt>
      <trkpt lat="44.95629" lon="6.67831">
        <ele>1426.7338867188</ele>
        <time>2007-08-18T13:56:16Z</time>
      </trkpt>
    </trkseg>
  </trk>
</gpx>